GFSGBSN_prec_cloud_003.txt.gz
Cloud_Cover
100 100 99 48 7 14 16 12 0 3 6 6 5 4 7 2 2 41 80 1 4 74 75 100 100 77 45 100 48 5 5 0 2 80 10 38 99 67 0 0 0 0 0 0 3 5 5
100 100 92 14 7 32 49 55 3 5 61 52 5 5 5 8 6 45 0 5 80 75 100 100 100 93 75 95 20 5 5 5 0 97 17 1 9 80 9 0 1 0 4 0 0 5 5
100 100 100 24 9 5 55 5 3 5 98 97 5 5 5 73 83 5 3 38 6 96 100 100 100 90 84 43 4 5 5 17 5 45 10 3 45 100 99 8 0 3 25 3 0 0 0
100 100 100 91 2 40 100 39 4 5 100 100 5 5 83 100 100 95 7 69 100 100 100 100 99 34 69 75 100 58 58 46 99 49 5 20 56 100 100 17 8 78 100 13 0 0 0
100 100 100 100 100 87 100 89 61 5 100 100 5 6 100 100 100 98 99 76 100 100 100 100 91 28 85 100 100 100 100 71 100 84 85 93 90 100 100 100 84 94 26 4 0 0 0
100 100 100 100 100 94 100 100 12 13 100 100 6 38 92 100 100 97 95 100 100 100 100 100 88 56 13 82 100 82 79 93 99 94 100 100 100 100 81 49 83 96 91 86 3 0 0
100 100 100 100 100 100 100 100 24 24 100 77 30 32 100 100 100 100 100 100 100 100 100 100 92 92 17 75 75 12 35 85 100 100 71 96 100 100 90 8 10 100 24 4 0 5 5
100 100 100 100 100 100 100 100 22 74 100 69 29 38 100 100 100 100 100 100 100 100 100 100 100 100 98 31 71 95 83 83 96 100 100 100 100 100 100 100 56 6 98 5 4 21 26
100 100 100 100 100 100 100 100 79 100 100 67 52 100 100 100 100 100 100 100 100 100 100 100 100 100 100 49 100 100 90 98 93 100 100 34 100 100 100 99 13 5 5 5 5 54 37
100 100 100 100 100 100 100 100 100 100 100 31 100 19 17 100 100 100 100 100 100 100 100 100 100 100 100 52 100 100 100 54 100 100 100 98 100 100 100 100 12 5 59 5 26 51 5
100 100 100 100 100 100 100 100 100 100 100 43 100 52 96 100 100 100 100 100 100 100 100 100 100 100 100 49 100 100 100 43 100 100 99 98 100 63 94 92 6 22 18 56 81 70 5
100 100 100 100 100 100 100 100 100 100 100 92 80 77 5 76 100 100 100 100 100 100 100 100 100 100 100 84 100 100 37 99 100 100 100 100 88 100 89 100 80 25 100 61 18 60 68
100 100 100 100 100 100 100 100 100 100 100 100 80 75 62 9 100 100 100 100 100 100 100 100 100 100 85 78 98 62 5 100 100 100 100 100 100 100 100 94 100 100 82 78 86 99 16
100 100 100 100 100 100 100 100 100 100 100 100 83 89 99 85 100 100 100 100 100 100 100 100 66 94 99 64 100 35 98 100 100 55 94 100 100 81 100 100 100 100 59 65 100 40 5
100 100 100 100 100 100 100 100 100 100 100 100 100 100 100 100 100 100 100 100 100 100 100 92 8 25 96 86 98 14 38 83 100 43 94 99 100 59 100 100 92 100 89 58 67 5 2
100 100 100 100 100 100 100 100 100 100 100 100 100 100 100 100 100 100 100 100 100 100 89 1 3 6 56 42 100 15 16 88 100 81 5 44 90 92 54 100 100 32 21 100 93 5 5
100 100 100 100 100 100 100 100 100 100 100 81 100 90 97 100 100 100 100 100 100 100 83 3 4 9 5 32 100 77 9 86 100 100 26 5 5 38 100 100 100 59 87 30 100 6 5
100 100 100 100 100 100 100 100 100 100 100 89 93 92 100 100 100 100 100 100 100 100 100 5 48 100 78 98 22 65 37 83 72 75 5 29 4 5 60 100 48 22 7 96 10 5 4
100 100 100 100 100 100 100 100 100 100 100 71 100 100 100 100 100 100 100 100 100 78 100 17 5 6 93 93 100 33 65 83 100 100 14 21 5 20 92 44 11 70 85 87 12 5 5
100 100 100 100 100 100 100 100 100 100 100 87 100 100 100 100 100 100 100 100 100 100 98 46 72 58 13 28 99 100 97 100 100 100 100 94 99 8 28 45 87 48 78 40 10 20 5
100 100 100 100 100 100 100 100 100 100 100 100 100 63 66 100 100 100 100 100 100 100 100 100 96 76 86 80 97 100 99 54 100 100 100 100 94 84 98 100 25 6 2 100 26 27 28
100 100 100 100 100 100 100 100 100 100 100 94 100 99 5 88 100 100 100 100 100 100 100 100 100 86 100 31 90 100 100 92 100 100 88 67 99 99 75 59 26 34 5 5 48 7 3
100 100 100 100 100 100 100 100 100 100 100 100 100 100 12 89 96 94 100 100 100 100 100 100 86 98 100 100 79 100 100 100 99 98 74 92 61 84 100 83 95 10 5 10 15 5 4
100 100 100 100 100 100 100 100 100 100 100 100 100 100 96 41 98 100 100 100 100 100 100 100 100 100 82 11 5 73 90 100 98 85 100 74 98 100 100 100 66 15 92 63 40 9 5
100 100 100 100 100 100 100 100 100 100 100 100 100 100 100 88 100 100 100 100 100 100 100 100 100 100 100 100 97 72 97 100 100 100 100 100 99 100 87 95 55 100 98 86 57 64 5
100 100 100 100 100 100 100 100 100 100 100 100 100 100 98 98 100 88 100 100 100 100 100 100 100 100 100 100 100 70 100 95 96 100 100 94 100 96 100 65 24 100 100 63 40 91 100
100 100 100 100 100 100 100 100 100 100 100 100 100 100 52 99 100 100 100 100 100 100 100 100 100 100 100 100 100 100 100 100 100 100 100 100 100 100 100 100 100 100 100 88 89 100 100
100 100 100 100 100 100 100 100 100 100 100 100 100 100 50 97 100 100 94 100 100 100 100 100 100 100 100 100 100 100 100 100 100 100 100 100 100 100 87 100 100 100 84 79 100 100 100
100 100 100 100 100 100 100 100 100 100 100 100 99 90 22 58 100 100 81 100 100 100 99 100 100 93 99 100 100 100 100 98 98 100 100 100 100 100 100 100 100 100 100 100 100 100 100

GFSGBSN_prec_cloud_006.txt.gz
Cloud_Cover
100 100 70 100 64 83 51 19 5 5 5 5 2 0 5 0 0 0 0 0 0 12 5 4 83 97 98 100 65 98 10 0 0 21 99 5 24 4 41 67 67 0 0 0 0 32 100
100 96 100 97 96 38 8 50 76 5 5 5 0 6 5 1 0 4 0 4 3 4 5 15 42 82 86 97 13 2 7 5 3 3 70 2 41 39 5 19 60 7 0 0 0 0 48
100 100 100 100 100 53 92 5 72 5 5 5 2 4 5 5 5 16 6 5 0 6 69 100 90 96 99 100 43 5 79 99 66 100 5 1 5 82 7 65 45 60 27 3 0 0 5
100 100 100 100 100 100 99 60 29 5 5 7 4 10 5 5 5 5 38 43 5 29 100 90 100 32 75 70 30 96 40 0 0 83 83 56 76 100 100 50 79 54 84 53 1 4 3
100 100 100 100 100 100 100 98 57 16 64 5 5 5 5 5 5 29 81 42 71 71 66 100 60 63 100 84 87 75 5 5 0 2 92 90 98 100 67 48 94 70 29 8 37 9 0
100 100 100 100 100 100 100 100 100 100 100 5 5 6 7 5 8 100 96 98 83 100 99 100 96 62 100 100 100 58 48 18 35 5 100 43 49 100 100 86 92 100 41 63 47 5 0
100 100 100 100 100 100 100 100 98 99 100 5 5 10 52 5 86 100 100 96 100 100 100 97 96 100 100 100 59 14 98 87 97 5 90 43 94 100 45 100 87 97 33 79 24 7 4
100 100 100 100 100 100 100 100 100 100 83 5 53 42 100 28 86 100 100 100 100 100 100 100 100 100 100 100 81 5 68 68 100 86 100 100 96 100 100 100 98 100 27 59 90 3 5
100 100 100 100 100 100 100 100 100 100 77 5 96 92 100 5 90 98 100 100 100 100 100 100 100 100 100 100 100 70 61 100 100 100 100 94 71 100 100 99 100 73 99 72 21 5 27
97 100 100 100 100 100 100 100 100 100 63 5 82 100 100 5 48 94 100 100 100 100 100 100 100 100 100 100 99 32 100 100 100 100 100 100 97 100 100 100 100 100 77 60 5 62 94
69 100 100 100 100 100 100 100 100 100 100 30 100 100 100 8 53 100 100 100 100 100 100 100 100 100 100 100 78 13 86 100 100 100 100 100 100 100 100 100 100 100 92 5 8 100 61
100 100 100 100 100 100 100 100 100 100 100 100 100 100 99 77 52 75 100 100 100 100 100 100 100 100 100 100 100 58 100 100 100 100 100 100 100 100 99 100 100 100 69 36 44 96 73
93 98 100 100 79 100 100 100 100 100 100 100 100 100 100 100 26 88 100 100 100 100 100 100 100 100 100 100 100 100 100 100 100 100 100 100 100 100 100 100 100 100 92 99 100 95 48
98 100 100 100 100 100 100 100 100 100 100 100 100 100 100 100 7 100 100 100 100 100 100 100 100 100 100 100 100 100 100 100 100 100 100 100 100 100 100 100 100 57 62 79 88 19 15
100 100 100 100 100 100 100 100 100 100 100 100 100 100 100 100 71 100 100 100 100 100 100 100 100 96 100 100 100 100 100 100 100 100 100 100 100 100 88 92 100 100 88 64 5 5 5
100 100 100 100 100 100 100 100 100 100 100 100 100 100 98 100 100 100 100 100 100 100 100 99 20 61 71 88 88 100 71 96 100 100 100 100 100 100 100 90 82 100 43 55 5 39 42
100 100 100 100 100 100 100 100 100 100 100 100 100 100 100 100 100 100 100 100 100 100 100 40 4 31 12 21 40 76 54 90 100 100 100 100 100 100 100 100 87 100 93 69 5 5 64
100 100 100 100 100 100 100 100 100 100 100 100 100 100 100 100 100 100 100 100 100 100 100 97 4 0 0 6 36 100 10 55 76 97 74 95 100 100 97 97 100 100 100 100 89 58 5
100 100 100 100 100 100 100 100 100 100 100 100 100 100 100 100 100 100 100 100 100 100 100 98 5 5 6 5 34 76 19 100 98 37 7 30 37 88 100 100 100 100 100 100 60 5 5
100 100 100 100 100 100 100 100 100 100 100 100 100 100 100 100 100 100 100 100 100 100 100 100 37 9 38 37 20 4 50 28 87 51 68 61 18 36 5 4 4 82 100 100 81 42 59
100 100 100 100 100 100 100 100 100 100 100 100 100 100 100 100 100 100 100 100 100 100 84 100 100 91 28 61 95 81 85 85 100 100 100 96 63 5 1 4 5 5 17 54 5 39 4
100 100 100 100 100 100 100 100 100 100 100 100 100 100 98 70 100 100 100 100 100 100 100 100 91 100 86 100 100 100 98 86 100 100 98 100 100 45 5 3 1 3 0 5 1 5 5
100 100 100 100 100 100 100 100 100 100 100 100 100 100 99 96 85 100 100 100 100 100 100 100 100 96 76 81 88 100 89 100 100 100 100 99 87 90 32 5 5 5 0 0 0 0 2
100 100 100 100 100 100 100 100 100 100 100 100 100 100 100 94 59 100 100 100 100 100 100 100 100 100 79 95 85 100 100 100 100 100 100 100 100 97 60 56 35 1 2 5 0 0 0
100 100 100 100 100 100 100 100 100 100 100 100 100 100 100 100 85 100 98 100 100 100 100 100 88 96 100 98 100 96 100 100 100 100 100 100 95 38 96 100 42 6 3 4 4 5 5
100 100 100 100 100 100 100 100 100 100 100 100 100 100 100 100 100 98 99 100 100 100 100 100 100 76 38 82 97 87 100 99 100 100 100 100 100 100 92 64 5 61 45 5 5 6 5
100 100 100 100 100 100 100 100 100 100 100 100 100 100 100 100 100 100 99 100 100 100 100 100 100 100 100 100 100 100 100 54 56 95 100 99 100 100 88 66 9 76 58 14 5 5 5
100 100 100 100 100 100 100 100 100 100 100 100 100 100 100 100 100 96 100 100 100 100 100 100 100 100 100 100 100 100 100 88 63 92 65 98 100 99 87 91 80 100 43 38 74 72 11
100 100 100 100 100 100 100 100 100 100 100 100 100 100 100 100 100 98 100 100 100 100 100 100 100 100 100 100 100 100 100 100 100 100 100 100 82 100 90 54 69 90 12 59 5 5 86

GFSGBSN_prec_cloud_009.txt.gz
Cloud_Cover
96 100 100 100 100 100 100 100 100 45 5 5 5 21 6 5 48 2 0 0 0 0 0 0 4 1 10 68 43 25 13 36 1 25 72 18 0 0 14 80 100 100 7 6 2 8 0
44 100 100 100 100 100 100 98 91 96 80 58 8 5 5 40 42 5 5 3 0 0 0 0 5 14 9 96 20 87 70 100 100 37 99 64 16 0 11 95 99 95 41 15 32 4 0
85 46 94 100 100 100 100 100 100 80 46 62 99 5 5 5 24 9 10 5 5 0 0 0 3 24 82 100 99 100 100 29 10 5 37 41 98 56 16 5 37 100 100 92 29 39 3
37 95 11 49 100 100 100 100 100 100 100 78 100 100 96 5 5 5 12 5 5 5 5 5 2 49 100 100 100 100 100 85 32 46 55 40 100 34 100 29 18 99 100 93 90 47 2
5 100 31 21 78 100 100 100 100 100 100 22 100 100 70 5 24 95 95 100 8 8 11 5 6 68 75 100 70 34 5 9 68 100 91 83 100 97 55 100 61 100 97 68 84 77 5
46 9 41 96 94 66 100 100 100 100 100 38 99 90 65 96 5 80 100 100 78 65 87 61 90 70 80 98 35 23 20 97 72 100 100 100 100 100 94 93 90 100 100 97 10 65 15
21 97 18 60 81 96 100 100 100 100 100 100 100 78 24 100 67 69 100 100 99 100 100 97 51 16 93 100 95 100 99 90 100 100 100 68 90 100 9 2 40 54 98 100 47 62 100
46 82 16 5 13 100 100 100 100 100 100 100 100 12 97 100 100 97 100 100 100 100 100 100 100 90 98 94 100 77 97 100 100 97 94 100 100 5 6 72 84 75 100 90 96 100 47
63 5 18 5 13 100 100 100 100 100 100 100 90 30 100 100 100 100 97 97 100 100 100 100 100 100 100 95 68 99 100 100 100 95 100 99 50 5 62 84 100 78 91 100 68 100 4
98 74 4 6 0 75 100 100 100 100 100 100 80 100 100 100 100 99 88 91 100 100 100 81 100 100 100 100 100 100 100 100 100 100 100 98 99 100 97 99 100 90 86 100 100 100 16
100 100 31 4 33 1 29 100 100 100 100 100 100 75 100 100 100 100 81 100 100 100 100 58 100 100 100 100 100 100 100 100 100 100 71 68 96 100 100 33 100 99 100 100 100 96 86
100 100 100 19 12 70 32 100 100 100 100 100 100 100 100 97 100 97 93 100 100 100 100 100 100 100 100 100 100 100 100 99 98 100 100 99 100 100 9 100 100 100 100 100 100 100 26
100 100 100 93 99 89 66 100 100 100 100 100 100 100 100 100 100 100 100 100 100 100 100 100 100 100 100 100 100 100 100 88 88 100 100 100 100 100 100 100 100 100 100 100 100 89 36
100 100 100 100 100 100 66 100 100 100 100 100 100 100 100 100 100 100 100 100 100 100 100 100 100 100 100 100 100 100 100 100 100 100 100 100 100 100 100 100 100 100 100 100 82 59 34
100 100 100 100 100 86 100 100 100 100 100 100 100 100 100 100 100 100 100 100 100 100 100 100 100 100 100 100 100 99 99 100 98 100 100 100 59 100 100 100 100 100 100 100 73 18 91
100 100 100 100 100 99 100 100 100 100 100 100 100 100 100 100 100 100 100 100 100 100 100 100 82 34 66 81 98 94 100 73 92 100 100 99 100 100 100 100 100 100 98 87 25 12 92
100 100 100 100 100 79 100 100 100 100 100 100 100 100 100 100 100 100 100 100 100 100 100 100 74 48 100 93 82 100 100 96 100 100 100 100 100 100 100 100 100 100 100 65 76 6 99
100 100 100 100 100 100 100 100 100 100 100 100 100 100 100 100 100 100 100 100 100 100 100 100 70 99 88 16 100 100 96 100 100 100 100 100 100 100 100 100 100 100 98 91 10 23 1
100 100 100 100 100 100 100 100 100 100 100 100 100 100 100 100 100 100 100 100 100 100 100 100 96 36 8 32 64 100 100 100 100 100 100 100 100 100 100 100 100 88 100 100 29 64 25
100 100 100 100 100 100 100 100 100 100 100 100 100 100 100 100 100 100 100 100 100 100 100 100 100 36 69 59 12 16 57 100 98 71 100 100 100 100 100 100 82 99 94 100 35 5 6
100 100 100 100 100 100 100 100 100 100 100 100 100 100 100 100 100 100 100 100 100 100 100 100 100 89 81 5 6 88 8 89 46 46 72 79 98 100 100 62 100 100 98 99 6 100 49
100 100 100 100 100 100 100 100 100 100 100 100 100 100 100 100 100 100 100 100 100 100 100 100 100 100 17 89 100 100 100 100 62 84 48 100 77 5 80 5 52 100 5 6 11 7 5
100 100 100 100 100 100 100 100 100 100 100 100 100 100 100 100 100 100 100 100 100 100 100 100 100 100 100 75 73 34 91 100 100 100 100 100 93 64 95 5 5 6 4 5 5 5 5
100 100 100 100 100 100 100 100 100 100 100 100 100 100 100 100 100 100 100 100 100 100 100 100 100 100 100 100 65 50 99 92 100 100 92 97 80 93 90 6 45 3 0 0 0 0 0
100 100 100 100 100 100 100 100 100 100 100 100 100 100 100 100 100 84 100 100 100 100 100 100 100 100 100 100 100 100 100 92 100 100 90 98 100 83 98 51 36 1 1 0 0 0 0
100 100 100 100 100 100 100 100 100 100 100 100 100 100 100 100 100 96 100 100 100 100 100 100 100 100 100 100 100 100 100 100 100 100 100 100 100 100 62 81 96 99 21 5 5 5 5
100 100 100 100 100 100 100 100 100 100 100 100 100 100 100 100 100 100 100 100 100 100 100 100 100 100 76 100 100 100 100 100 98 100 100 100 100 100 99 84 100 89 67 6 2 15 5
100 100 100 100 100 100 100 100 100 100 100 100 100 100 100 100 100 100 100 100 100 100 100 100 100 100 100 100 100 77 83 100 100 78 99 100 100 100 100 100 100 87 74 89 54 5 5
100 100 100 100 100 100 100 100 100 100 100 100 100 100 100 100 100 100 100 100 100 100 100 100 100 100 100 100 100 100 97 82 12 93 16 100 79 44 72 100 100 74 100 92 73 6 5

GFSGBSN_prec_cloud_012.txt.gz
Cloud_Cover
5 0 1 35 2 100 100 100 100 93 100 96 100 95 77 79 80 13 5 4 2 0 4 1 0 0 0 22 0 6 1 0 0 0 30 6 10 4 21 0 59 66 32 53 9 0 18
5 4 0 0 5 100 100 100 100 100 99 97 100 99 41 15 16 43 5 5 4 6 1 0 1 4 12 48 0 0 22 9 0 98 32 12 94 36 4 25 38 64 86 98 91 20 27
80 41 5 74 1 10 100 100 100 100 100 100 92 72 99 6 95 97 15 5 5 5 5 3 0 13 69 2 0 0 21 78 18 97 100 98 97 56 97 29 99 98 82 100 57 78 96
44 54 5 5 10 4 13 89 100 100 100 100 100 100 81 77 97 93 100 24 98 7 18 5 0 46 100 0 5 2 6 0 0 24 84 100 100 97 91 97 75 21 100 5 3 100 17
58 58 100 92 8 60 85 26 33 100 100 100 100 100 100 100 87 68 88 100 31 13 96 62 10 19 27 5 5 5 4 2 8 95 83 13 5 14 100 88 70 5 11 4 1 33 93
100 60 100 100 100 79 100 86 61 76 98 100 100 100 100 100 100 77 6 90 39 22 100 100 18 69 5 46 30 5 5 10 21 75 100 90 78 86 45 73 60 83 45 2 5 4 9
100 100 99 100 100 100 98 100 59 64 45 50 100 100 100 100 100 100 19 76 61 71 97 100 100 59 9 30 5 5 5 26 73 100 100 100 88 27 96 96 58 8 71 5 4 5 53
86 83 100 98 100 100 100 82 40 100 100 100 100 100 100 100 99 97 85 79 11 77 100 100 100 100 89 49 95 100 74 61 100 100 100 100 24 75 100 90 34 7 34 32 43 61 87
85 100 100 100 100 100 100 100 100 92 100 100 100 100 100 100 79 100 100 100 61 42 100 100 100 100 99 100 97 96 42 72 67 100 82 61 13 100 100 100 89 75 25 19 86 48 100
100 36 100 100 100 100 64 100 100 82 45 99 100 100 100 100 100 99 100 100 79 98 100 88 100 100 100 100 100 100 100 89 92 9 62 61 45 100 99 11 100 100 4 9 39 87 87
59 77 100 100 100 100 66 20 99 87 85 100 100 100 100 100 100 100 100 100 99 100 100 72 100 72 100 100 100 98 100 100 100 100 100 35 100 100 88 11 5 13 47 40 100 100 99
5 100 61 99 100 100 100 67 100 100 100 100 100 100 100 100 100 100 100 100 100 100 65 64 100 100 100 100 100 100 100 100 100 100 99 100 100 32 2 64 24 27 78 100 100 100 99
87 92 95 47 100 100 100 89 90 100 100 100 100 100 100 100 100 100 100 100 100 100 11 90 100 100 94 100 100 100 100 100 100 100 86 100 84 97 96 100 77 100 95 100 100 100 96
26 100 100 80 100 100 100 100 82 100 100 100 100 100 100 100 100 100 100 99 100 51 66 100 100 100 100 100 100 100 100 100 98 95 72 96 93 99 95 86 16 100 100 100 100 100 38
71 100 100 56 100 100 100 100 100 100 100 100 100 100 100 100 100 100 100 100 62 81 94 100 100 100 100 100 100 100 96 85 85 100 100 100 100 100 63 57 100 100 100 100 100 100 37
100 100 100 88 100 100 100 100 100 100 100 100 100 100 100 100 100 100 100 100 94 100 100 100 100 100 97 82 95 93 82 56 100 100 100 100 100 100 100 100 100 100 100 100 100 66 85
100 100 100 96 100 100 100 100 100 100 100 100 100 100 100 100 100 100 100 100 100 100 100 100 100 100 16 43 20 50 100 100 86 44 100 100 100 100 100 100 100 100 100 100 100 100 94
100 100 100 100 100 100 100 100 100 100 100 100 100 100 100 100 100 100 100 100 100 100 100 100 100 98 34 100 5 53 68 100 100 100 100 100 100 100 100 100 100 100 100 77 100 100 100
100 100 100 100 100 100 100 100 100 100 100 100 100 100 100 100 100 100 100 100 100 100 100 100 100 97 4 100 98 100 100 100 100 100 100 100 100 100 100 100 100 100 100 99 100 100 100
100 100 100 100 100 100 100 100 100 100 100 100 100 100 100 100 100 100 100 100 100 100 100 100 100 98 21 62 67 100 100 100 100 100 100 100 100 100 100 100 100 81 100 100 100 94 70
100 100 100 100 100 100 100 100 100 100 100 100 100 100 100 100 100 100 100 100 100 100 100 100 100 100 6 85 98 66 100 100 100 100 100 100 100 100 100 100 100 100 100 100 82 89 21
69 100 100 100 100 100 100 100 100 100 100 100 100 100 100 100 100 100 100 100 100 100 100 100 100 100 68 15 24 66 100 100 100 100 100 100 100 100 100 100 100 100 44 71 100 26 83
5 100 100 100 100 100 100 100 100 100 100 100 100 100 100 100 100 100 100 100 100 100 100 100 100 100 99 95 100 99 100 77 100 100 100 100 100 75 86 76 100 100 100 100 100 100 93
5 100 100 100 100 100 100 100 100 100 100 100 100 100 100 100 100 100 99 100 100 100 100 100 100 100 100 100 100 89 100 84 99 100 99 10 16 72 61 6 12 5 4 84 86 30 14
96 100 100 100 100 100 100 100 100 100 100 100 100 100 100 100 100 97 72 100 100 100 100 100 100 100 100 62 97 100 100 98 100 97 100 92 71 50 81 45 29 1 1 49 5 40 3
60 100 100 100 100 100 100 100 100 100 100 100 100 100 100 100 100 100 100 100 100 100 100 100 100 100 100 89 100 100 100 100 100 100 100 100 100 90 5 73 13 5 5 0 1 5 3
100 100 100 100 100 100 100 100 100 100 100 100 100 100 100 100 100 100 100 100 100 100 100 100 100 100 100 100 100 100 87 72 99 100 100 100 99 99 99 84 83 100 79 10 21 4 2
99 100 100 100 100 100 100 100 100 100 100 100 100 100 100 100 100 100 100 100 100 100 100 100 100 100 100 100 100 100 100 100 95 66 100 100 100 100 100 100 100 63 54 94 90 42 5
100 100 100 100 100 100 100 100 100 100 100 100 100 100 100 100 100 100 100 100 100 100 100 100 100 100 100 100 100 100 100 100 100 100 100 100 100 100 100 100 80 100 59 22 36 6 46

GFSGBSN_prec_cloud_015.txt.gz
Cloud_Cover
55 5 32 5 5 4 0 16 100 100 100 100 100 100 100 100 100 86 81 35 100 43 19 5 5 5 0 0 17 0 0 0 0 0 1 3 5 1 0 0 0 1 0 0 0 0 0
100 32 6 5 5 5 10 3 67 100 100 100 100 100 100 100 100 100 100 100 84 6 5 12 5 5 5 65 0 0 0 0 0 0 0 0 3 5 8 0 59 20 2 0 0 0 0
100 100 87 53 11 5 84 31 5 100 100 100 100 100 100 100 100 100 100 100 100 71 64 6 19 39 5 0 0 0 6 0 0 0 2 36 4 41 5 4 2 5 1 2 0 2 1
100 100 100 31 38 9 8 78 30 100 100 100 100 100 100 100 100 100 100 100 100 76 18 20 5 100 100 2 0 0 3 0 0 0 3 69 91 65 100 17 22 4 32 5 0 5 2
100 100 100 100 95 82 11 7 50 76 100 100 100 100 100 100 100 100 100 100 100 98 63 48 64 100 100 8 0 0 0 0 0 0 4 4 45 99 18 65 37 13 19 18 5 0 12
100 100 100 100 99 100 86 38 53 94 41 99 100 100 93 100 100 100 100 100 100 100 100 100 98 100 81 42 5 0 1 5 5 3 3 3 1 5 5 36 100 68 54 12 4 5 7
100 100 99 98 70 93 100 42 97 50 21 60 100 100 69 4 15 99 100 100 100 100 100 18 96 99 5 71 5 5 4 6 5 21 59 5 14 93 27 9 7 5 5 5 4 4 4
100 100 100 100 100 100 100 100 53 94 99 100 95 100 99 85 21 45 90 82 100 100 100 91 84 100 100 81 100 11 54 32 74 100 20 37 93 75 5 5 5 5 22 6 5 7 4
100 100 96 100 98 100 92 100 100 96 96 100 100 100 100 99 100 100 100 100 66 54 100 100 100 97 100 72 100 100 97 97 51 78 21 7 6 98 5 5 6 5 22 14 18 12 6
100 100 93 100 92 65 97 100 100 81 18 89 100 100 100 6 100 100 100 100 100 96 100 99 100 100 100 100 100 99 100 100 100 46 90 15 27 50 30 5 8 29 49 6 5 82 98
100 100 84 100 100 77 100 100 100 100 22 80 100 100 100 25 42 100 70 42 100 100 86 99 99 100 100 100 100 92 99 100 100 84 92 28 35 100 5 37 96 8 87 11 87 12 98
100 99 44 100 100 100 100 100 100 100 100 51 100 100 100 100 100 92 66 9 42 82 100 64 83 100 91 99 100 100 100 100 100 100 100 88 81 50 100 100 100 47 72 100 100 100 98
100 100 100 100 38 99 92 68 100 100 100 97 100 100 100 100 77 90 89 91 60 100 100 70 100 88 100 100 100 100 100 100 100 100 100 100 100 100 100 100 77 6 70 85 52 100 67
100 100 100 100 100 52 99 98 100 100 100 100 94 100 100 100 100 100 100 99 98 100 99 97 100 100 100 100 97 100 100 100 100 100 100 100 100 100 100 82 91 77 100 97 55 7 100
100 100 100 100 100 100 96 54 100 100 100 100 100 100 100 100 100 100 100 100 100 80 82 100 100 100 100 99 94 100 100 100 81 96 78 100 97 95 52 100 95 10 87 9 100 98 100
100 100 100 100 100 100 96 100 100 100 100 100 100 100 100 100 100 100 100 100 100 95 100 100 100 100 100 41 100 100 84 17 55 90 100 100 98 100 100 100 73 100 19 69 100 100 100
100 100 100 100 100 100 100 100 100 100 100 100 100 100 100 100 100 100 100 100 100 100 100 100 100 100 100 8 46 33 74 39 10 53 100 100 100 100 100 100 45 88 98 98 100 100 100
98 100 100 100 100 100 100 100 100 100 100 100 100 100 100 100 100 100 100 100 100 100 100 100 100 100 100 5 5 5 5 92 100 100 100 98 100 100 100 99 100 100 100 100 100 100 100
100 100 100 100 100 100 100 100 100 100 100 100 100 100 100 100 100 100 100 100 100 100 100 100 100 100 6 88 86 88 100 100 100 100 100 100 100 100 100 100 100 100 100 100 100 100 98
57 66 100 100 100 100 100 100 100 100 100 100 100 100 100 100 100 100 100 100 100 100 100 100 100 100 91 27 100 100 100 100 100 100 100 100 100 100 100 100 100 100 100 100 100 100 100
59 80 33 100 100 100 100 100 100 100 100 100 100 100 100 100 100 100 100 100 100 100 100 100 100 100 100 96 100 100 100 100 100 100 100 100 100 100 100 100 100 100 100 100 100 100 100
79 19 26 93 100 100 100 100 100 100 100 100 85 100 100 100 100 100 100 100 100 100 100 100 100 100 100 100 77 90 100 100 100 100 100 100 100 100 100 100 100 100 100 100 100 100 100
55 73 97 89 100 100 100 100 100 100 100 100 100 100 100 100 100 100 100 100 100 100 100 100 100 100 100 100 100 100 100 100 100 100 100 100 100 100 100 100 100 100 100 100 100 100 100
5 100 87 100 100 100 100 100 100 100 100 100 100 100 100 100 100 100 100 100 100 100 100 100 100 100 100 100 100 100 100 99 100 100 100 100 97 100 100 100 100 100 100 100 98 56 32
7 31 100 100 100 100 100 100 100 100 100 100 100 100 100 100 100 100 100 100 100 100 100 100 100 100 100 100 100 100 100 100 90 97 100 100 48 78 89 100 100 98 86 14 9 5 9
48 57 93 100 100 100 100 100 100 100 100 100 100 100 100 100 100 100 100 100 100 100 100 100 100 100 100 100 100 100 100 99 69 28 66 66 100 96 94 75 75 5 35 89 20 5 19
5 93 100 100 100 100 100 100 100 100 100 100 100 100 100 100 100 100 100 100 100 100 100 100 100 100 100 100 100 100 92 94 100 100 96 96 100 24 26 83 27 5 5 4 5 2 5
5 55 100 100 92 100 100 100 100 100 100 100 100 100 100 100 100 100 100 100 100 100 100 100 100 100 100 100 93 100 57 53 61 22 52 100 100 100 94 95 17 48 46 38 34 5 5
16 16 28 96 79 100 99 97 100 100 100 100 100 100 100 100 100 100 100 100 100 100 100 100 100 100 100 100 99 83 100 77 44 73 42 77 65 41 100 93 50 98 100 90 32 5 5

GFSGBSN_prec_cloud_018.txt.gz
Cloud_Cover
100 100 100 100 100 100 52 94 100 5 89 100 100 100 100 100 100 100 100 100 100 100 100 100 100 99 5 31 23 51 1 0 0 0 7 0 0 1 0 0 0 0 0 0 0 0 0
100 98 100 100 100 100 100 21 100 5 25 92 100 100 100 100 100 100 100 100 100 100 100 100 100 100 100 37 5 12 5 0 0 0 5 1 2 2 3 1 0 0 0 0 0 0 0
100 100 100 100 100 100 100 99 93 96 11 100 100 100 100 100 100 100 100 100 100 100 100 100 100 100 100 85 15 88 43 2 4 0 0 0 0 2 28 5 3 2 0 0 0 0 0
100 100 100 100 100 100 100 100 95 84 98 100 100 96 100 100 100 100 100 100 100 100 100 100 100 100 100 78 27 32 8 1 2 5 3 78 70 55 99 80 6 6 2 1 0 0 0
100 100 100 100 100 100 100 100 100 33 68 100 100 96 93 100 100 100 100 100 100 100 100 100 100 100 100 100 28 35 89 5 5 5 25 100 99 95 100 96 98 36 36 4 5 6 3
81 100 100 100 100 100 100 100 100 99 8 5 97 100 100 100 100 100 100 100 100 100 100 100 100 100 100 100 94 14 5 71 8 11 10 96 100 86 74 95 90 100 5 5 5 4 4
100 100 100 100 100 100 97 100 100 100 100 29 5 68 88 100 100 48 100 100 100 100 100 100 100 100 100 100 100 60 58 75 5 5 5 2 28 40 5 3 5 5 32 6 5 23 4
100 100 100 100 100 100 66 91 100 100 100 100 27 40 100 100 100 58 12 100 100 100 100 100 100 100 100 100 100 100 21 5 5 18 6 67 64 5 5 2 5 5 26 22 5 5 19
80 72 100 100 100 100 96 15 100 84 100 100 84 17 63 100 100 69 29 52 4 17 52 50 31 100 100 100 100 100 98 18 12 82 80 99 24 3 5 5 15 5 12 24 48 32 5
100 91 98 100 100 100 100 100 76 100 100 100 100 48 84 100 97 18 97 13 25 17 92 100 100 86 100 100 100 100 100 100 100 68 100 100 68 50 41 50 7 32 5 5 19 53 73
53 95 100 100 69 86 100 100 100 100 100 100 100 99 76 100 15 18 5 5 17 90 14 100 98 76 100 97 70 100 81 100 100 94 100 51 76 90 47 95 89 15 6 5 5 31 67
21 100 100 100 66 100 100 100 100 100 100 100 100 100 99 100 99 66 94 92 84 64 34 100 88 76 74 100 100 100 100 100 100 100 96 91 83 72 8 97 61 54 18 56 36 89 96
86 100 100 100 60 100 94 24 100 81 99 100 100 100 94 84 36 100 100 100 56 41 95 99 68 16 77 100 100 71 59 100 100 100 100 100 100 100 80 100 100 100 100 100 87 85 38
41 99 100 100 100 100 100 100 90 65 100 100 100 100 100 40 100 100 95 94 61 59 93 69 67 100 100 100 99 97 100 99 100 100 100 100 100 100 100 100 100 100 100 100 98 62 7
97 61 41 70 98 100 100 100 57 44 100 100 100 100 100 100 87 95 100 98 95 100 8 60 100 100 100 100 77 90 94 100 100 97 100 99 91 99 100 100 100 100 100 100 100 100 100
47 40 53 96 100 100 100 100 100 52 100 100 100 100 100 100 100 100 100 57 100 68 14 36 85 100 100 100 85 100 86 4 63 98 100 99 82 72 96 97 95 100 100 100 74 66 41
30 39 83 88 100 100 100 100 100 100 100 100 100 100 100 100 100 100 100 82 64 50 68 94 100 100 100 99 33 91 38 2 4 5 49 91 100 100 87 99 97 95 100 67 5 2 91
6 32 91 100 100 100 100 100 100 100 100 100 100 100 100 100 100 100 100 61 32 96 100 100 100 100 100 99 71 13 9 97 8 78 74 86 100 100 100 100 100 100 18 8 86 99 100
10 24 78 75 100 100 100 100 100 100 100 100 100 100 100 100 100 100 100 85 100 100 100 100 100 100 100 92 50 58 99 100 100 100 100 100 100 100 100 100 100 100 99 100 100 100 100
26 5 46 5 100 100 100 100 100 100 100 100 100 100 100 100 100 100 100 100 100 100 100 100 100 100 99 76 61 39 100 100 100 100 100 100 100 100 100 100 100 100 100 100 100 100 100
70 54 10 96 100 100 100 100 100 100 100 100 100 100 100 100 100 100 100 100 100 100 100 100 100 100 100 99 71 98 100 100 100 100 100 100 100 100 100 100 100 100 100 100 100 100 100
49 6 47 61 100 100 100 100 100 100 100 100 100 100 58 53 100 100 100 100 100 100 100 100 100 100 100 100 100 99 100 100 100 100 100 100 100 100 100 100 100 100 100 100 100 100 100
34 5 64 62 100 100 100 100 100 100 100 100 100 93 46 100 100 100 100 100 100 100 100 100 100 100 100 100 100 100 82 100 100 100 100 100 100 100 100 100 100 100 100 100 100 100 100
14 5 44 16 100 100 97 100 100 100 100 100 100 48 96 100 100 100 100 100 100 100 100 100 100 100 100 100 100 100 78 98 100 100 100 100 100 100 100 100 100 100 100 100 100 100 100
92 27 32 24 83 100 97 100 100 100 100 100 99 98 100 100 100 100 100 100 100 100 100 100 100 100 100 100 100 100 100 99 100 100 100 100 100 100 100 100 100 100 100 100 100 100 84
5 44 5 5 39 100 69 100 100 100 100 100 100 100 100 100 100 100 100 100 100 100 100 100 100 100 100 100 100 100 100 100 85 100 100 100 100 100 99 100 100 100 57 13 99 95 87
72 8 5 5 49 76 100 77 100 100 100 100 100 100 100 100 100 100 100 100 100 100 100 100 100 100 100 100 100 100 100 100 96 69 99 64 100 98 57 95 68 69 40 5 5 5 5
5 96 5 5 62 80 100 100 100 100 100 100 100 100 100 100 100 100 100 100 100 100 100 100 100 100 100 100 100 100 82 48 46 47 90 70 99 100 99 48 48 5 5 5 4 5 3
5 58 4 5 5 91 100 100 97 100 100 100 100 100 100 100 100 100 100 100 100 100 100 100 100 100 100 100 100 100 100 76 22 100 89 62 52 100 17 18 5 5 38 31 40 52 36

GFSGBSN_prec_cloud_021.txt.gz
Cloud_Cover
100 100 100 100 100 100 100 100 100 100 100 100 98 85 100 8 12 78 100 100 100 100 100 100 100 100 100 69 100 100 100 3 6 68 37 39 0 0 0 0 0 0 0 0 0 0 0
100 100 100 100 100 100 100 100 100 100 100 100 100 100 100 100 68 100 100 100 100 100 100 100 100 100 100 86 100 100 99 49 6 52 50 16 2 0 3 2 2 0 0 0 0 0 0
100 100 100 100 100 100 100 100 100 100 100 100 100 100 100 100 91 100 100 100 100 100 100 100 100 100 100 100 100 100 100 100 35 5 4 5 0 31 49 5 4 2 0 0 0 0 0
100 100 100 100 100 100 95 100 100 100 100 100 100 100 94 100 91 100 100 100 100 100 100 100 100 100 100 100 100 100 100 100 100 100 12 5 22 2 98 62 77 93 38 14 1 0 0
21 55 91 100 100 100 100 96 100 100 100 100 100 96 99 94 100 100 100 100 100 100 100 100 100 100 100 100 99 100 100 100 100 100 98 68 100 33 80 100 100 100 49 33 9 0 0
0 1 8 100 100 100 100 100 100 100 100 100 100 100 98 79 100 100 100 100 100 100 100 100 100 100 100 100 99 100 100 100 100 100 100 53 98 100 99 96 89 100 87 34 5 3 5
5 42 100 28 100 100 100 100 76 46 100 100 100 100 100 36 98 100 64 100 100 100 100 100 100 100 100 100 100 100 100 100 100 96 99 26 62 88 13 74 18 6 53 100 100 69 4
8 100 100 100 94 100 100 100 100 53 72 100 100 100 100 100 95 99 100 91 99 68 100 100 100 100 100 100 100 100 100 98 100 100 95 20 35 76 60 48 17 5 77 96 63 6 5
98 94 98 85 100 100 100 100 100 87 34 41 100 100 100 100 91 100 100 23 5 7 23 100 97 100 93 99 100 100 49 64 21 35 74 97 97 99 5 5 9 6 52 31 53 5 4
52 92 97 82 100 100 79 26 100 100 24 82 100 100 100 100 100 100 100 70 46 17 14 19 51 60 87 36 55 100 100 100 96 92 54 94 95 5 5 20 15 100 30 5 5 22 31
78 33 21 99 100 100 99 100 100 100 55 88 100 100 100 100 99 100 100 27 15 37 6 4 66 70 100 98 63 19 53 99 99 100 86 92 89 5 6 25 82 97 12 5 5 6 28
93 8 21 32 91 100 100 100 100 100 47 52 100 100 100 100 99 100 78 81 54 76 69 61 99 100 100 100 75 49 20 100 100 100 98 70 35 75 5 16 88 76 100 99 93 67 100
46 44 7 25 12 75 71 100 100 88 12 9 98 100 100 100 99 99 34 67 87 85 100 89 100 100 100 97 100 94 92 100 100 100 100 100 100 100 26 93 100 100 100 100 100 100 99
52 13 41 8 11 92 100 100 100 100 100 70 98 100 100 100 100 100 85 89 78 100 100 100 67 97 100 34 66 100 100 100 100 100 100 100 88 100 69 15 100 100 100 100 100 43 9
11 67 41 5 78 100 100 100 100 100 20 41 96 100 100 100 100 97 97 100 98 100 100 78 100 99 99 100 100 100 100 100 61 92 100 100 84 17 15 100 85 100 100 100 100 100 100
10 39 47 80 63 100 100 100 100 100 95 74 77 100 100 100 100 100 91 36 78 100 100 18 88 88 100 100 91 100 63 4 55 5 42 28 89 5 39 66 100 100 100 100 100 100 99
62 20 26 26 100 100 100 100 100 100 100 100 100 100 100 100 100 100 100 100 100 100 49 72 100 100 99 78 100 100 100 66 15 4 25 100 100 42 90 100 71 100 100 82 86 84 83
88 87 92 43 99 82 94 100 100 100 100 100 100 100 100 100 100 100 100 100 100 100 5 93 100 79 83 95 91 100 100 5 4 68 100 100 100 100 100 100 100 100 100 100 68 8 6
94 96 20 5 5 15 77 48 100 100 100 100 100 100 100 100 100 100 100 80 100 98 52 100 98 80 100 100 96 82 99 66 97 100 100 100 100 100 100 100 100 100 100 100 100 87 36
75 100 33 5 7 89 99 88 100 100 100 100 100 100 100 100 100 82 81 91 60 98 82 100 100 100 100 100 100 100 100 98 100 100 100 100 100 100 100 100 100 100 100 100 85 100 100
100 82 92 5 76 96 100 100 100 100 100 100 100 100 100 100 100 16 82 94 100 100 100 100 100 100 100 100 100 65 46 100 100 100 100 100 100 100 100 100 100 100 100 100 100 100 100
99 52 100 71 5 100 100 100 100 100 100 100 100 100 98 100 96 100 80 100 100 100 100 100 100 100 100 100 98 24 28 100 100 100 100 100 100 100 100 100 100 100 100 100 100 100 100
100 25 100 14 15 97 92 93 100 100 100 100 100 100 100 100 95 86 100 100 94 100 100 100 100 100 100 100 100 43 97 100 100 100 100 100 100 100 100 100 100 100 100 100 100 100 100
66 16 100 14 39 69 98 91 100 100 100 100 100 100 100 100 100 100 100 100 100 100 100 100 100 100 100 100 100 100 100 100 96 100 100 100 100 100 100 100 100 100 100 100 100 100 100
93 90 95 36 5 37 100 90 100 100 100 100 100 100 100 87 100 100 100 100 100 100 100 100 100 100 100 100 100 100 100 81 100 100 100 100 100 100 100 100 100 100 100 100 100 100 100
100 84 31 96 44 97 100 44 100 100 100 100 100 100 100 84 100 100 100 100 100 100 100 100 100 100 100 100 100 100 100 100 100 100 100 100 100 100 100 100 100 100 100 100 100 100 100
100 67 10 81 5 7 49 16 84 100 100 96 100 98 89 100 100 100 100 100 100 100 100 98 100 100 100 100 100 100 100 100 100 100 99 86 100 100 100 100 100 100 99 100 100 100 88
28 28 6 93 5 13 18 17 100 100 100 100 100 100 100 100 100 100 100 100 100 100 100 100 100 100 100 100 100 100 100 100 100 100 100 100 100 100 100 73 53 43 6 57 5 77 43
77 37 5 6 90 5 9 22 100 100 100 100 100 100 100 100 100 100 100 100 100 100 100 100 100 100 100 100 92 100 100 100 100 100 100 100 99 99 100 92 52 97 93 78 44 5 5

GFSGBSN_prec_cloud_024.txt.gz
Cloud_Cover
100 100 13 87 100 100 100 100 100 100 100 100 96 75 81 99 100 97 62 100 100 11 69 100 93 68 95 94 62 100 44 33 50 40 100 80 4 1 0 0 0 0 0 0 0 0 0
100 100 100 100 100 100 100 100 100 93 100 100 99 100 99 100 100 100 100 100 42 8 65 98 30 60 95 100 100 100 100 45 30 91 100 99 19 4 0 0 0 7 0 0 0 0 0
54 11 6 15 100 100 100 100 100 100 100 100 100 100 100 100 100 100 100 90 5 5 80 5 48 99 100 100 100 100 100 100 23 60 86 100 92 43 15 3 1 0 4 0 0 0 0
0 0 0 0 35 99 100 100 100 100 100 100 100 100 100 100 100 100 78 58 6 8 28 98 100 100 100 100 100 100 100 100 100 13 34 100 100 84 70 13 45 42 74 43 1 0 0
0 0 2 67 52 21 83 100 100 96 76 88 100 100 100 100 100 100 100 57 100 100 100 100 100 100 100 100 100 100 100 100 100 60 5 29 97 100 100 95 22 74 54 76 52 5 4
0 2 94 23 66 100 100 100 100 40 17 21 53 100 100 100 100 100 98 100 100 100 100 100 100 100 100 100 100 100 100 100 100 100 85 7 89 100 100 100 100 39 39 40 100 73 5
18 100 100 13 5 5 9 100 100 24 53 27 5 100 100 100 100 100 100 100 92 100 100 100 100 100 100 100 100 100 100 100 100 100 100 100 74 100 100 100 52 5 33 96 100 74 30
96 100 28 85 98 64 96 97 74 24 8 89 1 30 100 100 100 100 98 100 100 100 100 100 100 100 100 100 100 100 100 100 100 97 100 100 100 100 98 61 58 100 100 87 62 4 2
88 33 52 19 13 26 100 100 67 96 50 60 39 42 100 100 100 100 100 93 99 94 100 100 100 100 100 100 100 100 100 100 100 100 100 96 78 61 5 26 84 100 100 77 6 1 1
5 3 10 34 5 5 44 89 10 84 72 38 66 5 100 100 100 100 100 100 100 50 74 100 100 81 84 100 100 100 100 100 100 95 23 49 6 5 7 5 5 45 52 23 12 67 67
5 7 5 15 6 9 14 6 55 100 100 98 68 49 71 100 100 100 100 100 100 63 9 38 62 97 100 37 90 100 51 98 95 73 38 41 13 14 93 7 79 38 5 6 7 71 95
20 5 5 18 80 61 89 92 62 59 98 100 96 2 66 100 100 100 100 100 100 79 65 86 96 100 100 98 100 89 100 87 100 100 100 92 54 82 8 5 96 87 87 100 73 81 95
97 31 5 84 51 89 91 100 100 100 100 55 96 49 96 100 100 100 100 100 100 100 100 100 100 100 100 100 100 100 99 100 78 99 100 100 100 99 90 95 100 100 100 100 100 100 43
100 100 12 88 93 100 99 100 100 100 100 91 62 21 36 100 100 100 100 96 89 100 100 100 100 100 100 100 100 100 100 100 100 100 100 100 54 100 99 21 9 89 100 100 100 46 9
7 5 5 53 65 100 99 91 100 100 100 94 14 96 99 100 100 100 100 91 32 100 100 100 100 100 100 100 100 100 100 97 100 100 100 98 89 8 50 66 51 100 99 60 100 100 100
100 9 10 99 25 86 100 92 100 100 100 97 100 29 85 100 100 100 100 40 40 100 100 100 100 100 100 100 100 100 100 98 42 74 100 88 92 5 6 95 92 100 68 97 100 100 100
94 10 92 74 68 48 78 81 100 100 100 99 100 99 100 100 100 100 98 91 100 100 100 98 100 100 100 100 100 100 100 100 86 62 82 100 100 93 100 90 51 100 100 100 95 100 78
14 54 26 100 72 32 100 39 100 100 100 100 100 100 100 100 100 100 100 100 100 100 100 32 98 100 100 100 100 100 78 97 99 71 98 100 100 100 99 100 100 100 100 100 100 100 100
72 100 32 100 5 12 100 99 81 100 100 100 100 100 100 100 100 100 72 100 100 100 97 92 100 100 100 100 83 62 45 16 96 100 100 100 100 100 100 100 100 100 100 100 100 100 33
17 100 40 93 62 5 96 96 100 100 100 100 100 100 100 100 100 100 100 98 100 95 84 68 100 100 100 100 98 36 17 66 100 96 100 100 100 100 100 100 100 100 100 100 100 100 100
71 100 89 100 65 21 80 100 100 100 100 100 100 100 100 100 100 100 100 88 7 71 44 75 100 100 100 100 100 89 97 100 100 100 100 100 100 100 100 100 100 100 100 100 100 32 25
98 99 5 77 5 5 32 100 100 100 100 100 100 100 100 100 100 100 100 14 26 99 86 98 100 100 100 100 96 100 97 72 78 100 89 100 100 100 100 100 100 100 100 100 100 100 100
96 85 75 14 100 76 45 100 100 100 100 100 100 100 100 100 100 100 89 68 97 54 97 100 98 100 100 100 100 100 100 100 74 59 100 100 100 100 100 100 100 100 100 100 100 100 100
95 68 98 22 84 97 72 100 100 100 100 100 100 100 100 100 100 100 100 100 100 100 100 100 100 100 100 100 100 100 100 96 72 100 100 100 100 100 100 100 100 100 100 100 100 93 97
99 100 100 5 5 5 84 100 100 100 100 100 100 100 100 100 100 90 100 100 94 100 100 100 100 100 100 100 100 100 100 65 37 97 100 100 100 100 100 100 100 100 100 100 100 100 100
59 33 71 14 8 5 91 62 100 100 100 100 100 100 100 92 95 100 96 100 100 100 100 100 100 100 100 100 100 100 100 100 88 100 100 100 100 100 100 100 100 100 100 100 100 100 85
18 5 47 10 5 5 30 99 100 100 100 100 100 100 100 92 28 99 89 100 100 100 100 100 100 100 100 100 100 100 100 100 100 95 91 100 100 100 100 100 100 100 92 100 100 98 100
5 36 93 80 5 79 87 97 100 100 100 100 100 100 100 82 100 100 100 100 100 100 100 100 100 100 100 100 100 100 100 100 100 100 100 91 92 100 100 100 100 100 100 97 100 100 100
2 8 6 5 5 5 81 57 100 100 100 100 99 100 100 93 100 100 100 100 100 100 100 100 100 100 100 100 100 98 100 98 29 80 100 100 97 99 98 97 100 100 100 97 98 84 100

GFSGBSN_prec_cloud_027.txt.gz
Cloud_Cover
0 0 0 6 32 19 97 100 100 100 100 100 100 100 100 100 100 100 100 100 100 90 2 18 97 73 78 87 30 13 14 53 86 100 100 57 27 51 5 5 0 0 0 0 0 0 0
4 6 5 0 3 100 33 93 100 100 100 98 100 100 100 99 100 87 100 95 25 0 1 0 100 100 95 89 94 81 7 17 15 51 100 95 88 85 43 7 0 5 0 0 0 0 0
0 0 0 0 2 41 9 99 100 100 100 100 100 100 100 100 100 100 100 75 5 96 94 18 95 100 100 100 90 96 52 9 50 86 82 68 100 23 83 13 5 7 8 0 0 0 0
0 0 0 3 4 9 58 100 100 100 100 98 100 100 100 100 100 100 100 100 100 100 100 99 96 100 100 100 92 100 72 43 72 91 84 100 100 79 52 34 67 40 15 5 1 0 0
2 19 63 16 12 6 44 5 11 77 77 41 80 7 100 100 100 100 100 100 100 100 100 100 100 100 100 100 75 97 100 86 88 100 100 100 100 99 23 26 55 96 100 60 8 2 0
100 100 100 38 5 5 4 5 5 94 91 93 8 37 24 100 100 100 100 100 100 100 100 100 100 91 98 100 100 89 99 100 100 100 100 100 100 100 96 69 19 23 100 100 100 95 6
100 100 100 16 25 15 90 2 28 100 13 91 5 13 0 100 100 100 100 100 100 100 100 100 66 59 59 95 92 83 91 100 100 100 100 99 100 100 100 63 10 5 32 100 100 100 81
100 100 100 39 77 50 53 5 95 95 47 98 96 22 62 5 100 100 100 100 100 100 100 5 59 68 93 94 100 100 100 100 100 100 100 100 100 100 100 100 100 100 100 38 91 100 5
100 100 90 56 5 3 3 4 5 7 5 23 100 77 73 11 100 100 100 100 100 100 96 47 100 97 99 100 100 100 100 100 100 100 100 100 100 100 97 90 100 100 51 37 72 64 5
48 21 8 40 5 5 1 3 8 28 53 100 100 94 86 38 57 100 100 100 100 100 84 70 71 99 100 100 100 100 100 100 100 100 100 95 75 14 9 36 98 100 100 26 7 51 90
11 100 100 64 5 36 8 5 5 38 99 20 100 99 100 35 94 100 100 100 100 100 66 46 80 95 100 100 100 100 100 100 100 100 100 100 100 100 100 100 67 47 63 48 15 24 100
59 100 100 74 5 5 12 18 42 80 100 100 82 81 84 92 91 100 100 100 100 100 26 88 93 99 100 100 100 90 89 100 100 100 100 77 53 70 29 8 10 78 46 78 68 87 95
100 100 100 5 13 33 19 92 5 96 100 100 100 40 43 100 100 100 100 100 100 74 96 100 100 100 100 100 100 100 100 99 52 98 93 93 75 98 84 88 69 73 100 100 100 100 46
100 100 98 5 87 5 100 100 77 100 100 100 98 36 75 100 15 100 100 100 100 93 100 100 100 100 100 100 100 100 100 99 100 100 99 98 91 60 100 86 10 54 44 96 59 40 9
100 100 35 41 28 6 100 64 100 100 100 100 32 100 97 89 100 100 100 100 99 100 100 100 100 100 100 99 96 100 100 96 100 100 100 99 73 86 46 46 100 100 100 19 90 16 100
24 46 18 61 85 11 86 52 99 100 100 100 89 99 25 100 100 100 100 97 100 100 100 100 100 100 100 100 100 100 100 100 100 100 100 100 92 7 5 61 67 100 100 94 100 100 100
86 70 83 84 69 5 27 24 100 100 100 100 100 99 80 100 100 100 100 82 100 100 100 97 100 100 100 100 100 100 100 100 100 100 82 80 84 30 35 75 89 100 100 100 99 95 92
98 83 75 46 100 5 2 53 97 100 100 100 100 100 100 100 100 100 100 100 100 100 100 100 100 100 100 100 100 100 100 100 100 91 24 86 95 99 94 49 91 100 100 100 100 99 100
94 65 100 10 29 5 5 7 100 100 100 100 100 100 100 100 100 100 100 100 100 100 100 100 100 100 100 100 100 100 100 92 96 26 96 88 99 100 100 100 100 100 100 100 100 100 100
5 9 87 50 42 15 8 91 97 100 100 100 97 100 100 100 100 100 100 100 100 100 100 88 100 100 100 100 100 100 99 39 72 93 97 100 100 99 100 100 100 100 100 100 100 100 100
63 95 78 66 9 24 28 100 100 100 100 100 100 100 100 100 100 100 100 100 100 100 100 100 100 100 100 100 100 100 97 35 100 50 51 88 100 98 100 97 100 100 100 100 100 82 99
33 44 33 100 5 5 75 72 100 100 100 100 100 100 100 100 100 100 100 100 100 100 100 96 87 100 100 100 91 98 24 53 82 96 100 98 100 100 100 100 100 100 100 100 100 100 100
6 5 3 86 5 5 5 95 100 100 100 100 100 100 100 100 100 100 52 50 95 97 100 100 100 100 100 100 94 87 100 100 99 100 99 100 100 100 100 100 100 100 100 100 100 100 100
6 79 8 12 4 5 5 16 81 100 100 100 100 100 100 100 100 100 96 38 98 97 91 100 100 100 100 94 100 100 100 100 100 99 100 100 100 100 100 100 100 100 100 100 100 97 100
28 5 5 5 1 5 5 17 100 97 100 100 100 100 100 100 96 68 73 94 100 100 100 100 100 100 100 100 100 100 87 100 100 92 56 100 99 100 100 100 100 100 100 100 100 100 100
6 5 5 5 5 5 5 5 5 80 100 100 100 100 100 100 80 48 100 93 100 100 100 100 100 100 100 100 100 100 32 100 100 82 67 100 100 100 100 100 98 100 100 100 99 100 100
4 5 5 5 5 5 5 5 93 100 100 100 100 100 100 99 100 78 100 100 100 88 100 100 100 100 100 100 100 100 92 100 100 70 96 100 100 100 100 100 100 100 100 100 100 100 100
5 4 5 5 5 5 5 5 97 94 100 100 100 100 100 86 100 100 100 100 52 94 100 100 100 100 100 100 100 100 100 100 100 17 85 73 100 100 78 100 100 70 100 100 100 100 100
5 5 5 5 5 5 5 5 97 99 100 100 100 100 100 53 36 32 60 60 100 100 100 100 100 100 100 100 100 98 100 100 100 100 100 100 92 100 100 75 24 100 63 100 100 100 100

GFSGBSN_prec_cloud_030.txt.gz
Cloud_Cover
0 4 0 0 0 0 1 1 100 100 100 100 100 99 100 100 94 100 100 100 100 100 100 98 100 100 100 78 80 65 18 54 73 100 100 97 78 86 8 44 96 73 16 5 2 0 0
3 0 0 1 5 5 40 36 100 100 100 93 100 100 97 100 100 100 100 100 100 100 100 100 99 94 100 100 96 100 12 23 48 99 98 100 100 100 100 78 60 63 31 11 5 0 0
0 0 5 4 4 5 5 4 5 5 8 14 36 100 44 100 100 100 100 100 100 100 57 55 100 100 97 100 100 100 99 61 64 76 92 95 100 100 100 95 83 82 43 15 15 5 5
64 100 98 100 8 1 5 5 6 6 24 87 82 9 22 5 100 100 100 100 100 100 100 100 100 68 36 20 36 100 100 97 55 78 75 100 97 94 57 27 33 50 66 47 21 5 7
100 100 18 80 85 5 4 2 3 2 2 100 9 5 5 1 88 100 100 100 99 100 100 100 100 100 60 17 2 40 100 100 100 100 100 77 58 100 100 68 65 49 42 76 27 5 5
100 100 90 45 100 16 62 39 99 87 0 98 65 8 27 5 6 100 100 100 100 100 100 100 100 97 10 4 21 5 14 100 100 100 100 93 41 39 29 18 22 5 20 57 71 5 5
100 85 100 100 100 60 19 5 17 13 3 5 5 44 68 29 1 100 100 100 100 100 100 100 100 100 100 100 100 100 77 100 100 100 100 100 100 100 96 35 12 6 6 27 100 63 5
100 99 100 100 62 62 42 8 4 4 5 5 37 49 100 100 5 85 100 100 100 100 100 100 100 100 100 100 100 100 100 100 100 100 100 100 100 100 100 100 100 100 67 33 99 100 5
100 100 100 100 100 80 6 11 53 62 5 13 5 48 98 88 42 32 100 100 100 100 100 100 100 100 100 100 100 100 100 100 100 100 100 100 100 100 100 100 100 100 100 98 65 40 43
71 98 100 75 67 54 23 35 34 77 14 74 100 34 87 38 24 60 100 100 100 100 100 100 100 100 100 100 85 93 100 100 100 100 100 100 99 100 100 100 99 58 40 29 64 86 84
50 100 100 20 9 89 54 84 98 94 5 45 100 100 24 97 94 5 52 100 100 100 100 100 97 100 99 90 89 100 100 90 94 100 100 100 100 100 100 100 74 90 71 56 69 100 99
97 100 88 63 80 100 46 82 85 5 41 100 100 100 100 64 100 26 100 100 100 100 62 100 88 99 100 89 78 86 93 100 100 100 100 100 100 100 98 43 6 44 66 74 88 100 94
5 37 68 76 100 98 27 31 13 33 100 100 100 97 88 75 76 96 100 100 100 100 75 100 100 100 100 100 96 66 100 100 100 100 100 89 90 63 86 87 80 100 100 100 100 100 32
70 86 92 98 100 20 22 5 98 100 99 100 100 10 59 47 44 100 100 100 100 83 88 100 100 100 100 100 100 100 100 100 100 100 95 83 100 86 72 73 78 100 100 76 23 20 15
89 50 100 100 92 38 14 5 76 89 100 100 100 100 87 64 100 100 100 100 100 100 100 100 100 100 100 100 100 100 100 99 100 95 88 100 100 7 21 12 56 86 97 13 97 76 99
100 25 100 98 90 85 36 5 42 43 100 100 100 99 88 98 93 100 100 100 100 100 100 100 100 100 100 100 100 100 96 53 93 86 99 87 88 21 10 71 50 63 47 90 98 88 100
45 78 73 100 63 15 5 14 27 64 100 100 100 92 62 14 100 100 100 100 100 100 100 100 100 100 100 94 43 47 37 29 96 100 92 100 100 100 100 80 18 100 100 98 100 100 100
11 88 80 87 74 5 23 5 19 67 100 100 100 100 98 45 100 100 100 100 99 100 100 100 100 100 100 100 99 78 88 100 100 100 100 100 100 100 71 0 5 44 93 100 100 100 100
92 90 23 98 61 5 5 5 100 100 100 100 100 100 100 100 100 100 100 100 100 100 100 100 100 100 100 100 100 100 100 100 100 100 100 86 95 96 91 15 69 88 86 100 100 100 95
52 55 7 49 69 5 5 38 98 100 100 100 100 100 100 100 100 100 100 100 98 100 98 100 100 100 100 100 100 100 100 100 100 93 93 100 73 8 47 52 100 99 100 100 100 100 76
39 26 5 5 52 5 40 5 84 100 100 100 100 100 66 100 100 100 100 100 99 100 100 100 100 100 100 100 100 100 100 59 21 85 100 81 100 90 99 38 52 99 99 91 100 95 100
60 19 31 5 3 5 5 9 91 100 100 100 100 100 100 100 100 100 100 100 88 100 100 100 100 100 100 100 100 97 81 65 92 100 100 96 91 73 100 91 97 100 100 100 100 100 100
100 26 5 5 4 5 5 41 58 40 100 100 100 100 100 100 100 100 100 48 71 100 100 100 100 100 100 100 100 100 100 99 100 100 47 100 100 100 99 98 100 100 100 100 100 100 99
5 6 5 5 5 5 5 5 100 100 94 100 100 100 97 100 99 93 38 5 50 100 100 100 100 100 100 100 100 100 100 97 100 100 100 92 100 100 100 100 100 100 100 100 100 100 100
5 5 5 5 5 5 3 33 23 100 93 100 100 100 94 84 98 45 7 5 41 100 100 100 100 100 100 100 100 100 88 86 80 100 90 100 100 100 100 100 100 100 100 100 100 100 100
5 5 5 5 5 5 5 5 6 73 97 100 100 100 100 96 29 21 50 71 24 100 100 100 100 100 100 100 100 100 91 22 100 96 60 100 100 100 100 100 100 100 100 100 100 100 100
5 5 5 5 5 5 5 5 5 24 100 100 100 100 100 53 52 38 54 91 24 100 100 100 100 100 100 100 100 100 95 81 100 100 100 100 100 100 100 100 100 100 100 100 100 100 100
5 5 5 5 5 19 5 5 5 30 100 100 100 100 100 92 22 26 89 5 56 96 100 100 100 100 100 100 100 100 96 100 67 98 100 77 80 96 100 100 96 40 95 100 100 100 100
5 5 5 5 5 5 5 5 5 21 98 100 100 100 100 100 37 92 90 73 33 97 99 93 100 100 96 100 100 100 91 88 100 100 97 74 6 100 49 69 86 100 92 86 90 100 100

GFSGBSN_prec_cloud_033.txt.gz
Cloud_Cover
2 0 0 0 3 5 5 38 5 12 4 5 4 6 100 100 100 100 100 100 100 100 100 100 76 100 100 76 10 37 51 94 100 100 100 100 100 100 100 100 61 24 33 79 100 61 5
4 27 6 24 43 27 4 5 5 5 5 5 2 3 16 97 31 100 100 100 100 100 100 100 100 88 60 100 97 48 83 40 26 100 100 100 100 100 100 100 100 40 5 29 73 100 7
42 33 21 91 100 5 5 2 4 0 4 1 2 5 5 82 65 65 100 100 100 100 100 100 100 100 100 46 100 100 100 95 36 46 81 100 100 100 100 100 90 97 24 5 6 26 95
98 83 7 30 100 55 48 6 5 2 3 1 3 5 5 5 26 96 100 100 100 100 100 100 100 100 100 100 100 100 100 100 100 100 67 77 53 94 100 100 100 59 27 62 32 7 62
100 76 85 40 71 100 53 96 100 14 65 23 0 2 5 4 5 68 100 100 100 100 100 100 100 100 100 100 98 100 100 100 100 100 100 98 45 69 66 100 100 97 100 100 100 100 65
100 100 96 100 95 100 100 50 89 91 73 7 1 3 1 0 52 5 98 100 100 100 100 100 100 99 66 79 99 100 100 94 100 100 100 100 100 100 88 99 94 32 57 76 54 8 34
95 81 92 98 100 100 65 100 100 5 5 20 74 5 1 4 94 24 21 100 100 100 100 90 100 100 100 100 100 98 100 100 100 100 100 100 100 100 98 57 46 43 45 34 12 5 5
97 87 100 100 100 86 92 100 100 73 37 100 99 19 5 54 90 97 44 100 100 100 100 100 100 100 100 100 96 22 75 65 100 100 100 94 100 100 100 100 100 68 29 5 5 5 5
90 13 100 71 70 74 98 91 91 73 100 82 73 8 100 5 55 6 35 100 100 100 100 98 58 100 100 100 100 100 100 60 100 100 100 47 98 100 100 100 100 100 54 30 5 5 5
41 100 6 52 63 100 58 42 25 18 100 93 84 94 100 86 8 31 37 100 100 100 100 100 99 98 100 100 100 100 92 58 95 100 100 94 89 100 100 100 100 100 100 69 23 29 10
67 83 21 72 100 66 88 16 100 100 61 5 36 83 100 100 22 24 15 100 100 100 100 100 100 92 100 100 100 100 100 100 100 100 100 100 100 100 100 100 100 100 100 100 100 92 80
100 75 74 95 70 72 100 100 64 73 52 63 100 100 100 100 79 62 58 100 100 100 100 100 100 94 100 100 100 100 100 100 100 100 100 100 100 100 100 100 100 100 100 100 100 100 76
100 43 61 57 28 86 70 100 5 25 51 86 100 83 86 98 94 81 99 100 100 100 91 100 100 100 100 100 100 100 100 100 100 100 100 100 100 100 100 100 100 100 100 100 83 98 5
100 71 68 92 82 95 90 18 5 11 29 26 100 94 100 11 85 34 100 100 100 100 85 62 100 100 100 100 100 100 99 100 100 100 100 98 100 100 100 100 95 100 95 7 1 2 3
100 16 87 83 99 67 6 5 19 5 30 100 100 93 100 100 100 100 100 100 100 100 100 100 99 100 100 99 100 100 100 100 96 100 97 100 100 99 74 49 54 53 94 15 87 57 54
81 56 86 36 91 5 5 5 5 18 94 100 100 98 100 45 66 100 100 100 100 100 97 87 100 100 100 100 100 100 90 72 100 96 46 100 76 31 69 82 90 48 36 83 100 86 80
92 58 68 44 94 5 5 5 7 99 93 100 100 96 100 100 93 100 100 100 100 100 100 100 100 100 100 100 100 100 89 48 68 94 98 100 92 90 61 35 10 86 89 48 81 89 100
11 66 75 12 20 5 22 39 75 100 100 100 100 100 88 100 100 100 100 100 100 100 100 100 100 100 100 100 100 97 73 54 50 42 99 99 99 58 9 13 70 97 58 95 100 41 100
100 5 16 100 5 5 14 18 91 100 100 76 88 100 84 100 100 100 100 100 100 100 100 100 100 100 100 100 85 97 73 39 23 21 52 96 97 41 52 86 56 61 41 100 100 100 100
83 78 7 5 5 5 5 5 28 100 100 73 100 100 100 100 100 100 100 100 100 100 100 100 100 100 100 100 73 71 34 7 5 46 100 100 99 60 97 44 74 71 52 100 100 100 100
100 8 11 5 5 5 5 5 100 94 79 74 100 100 100 100 100 99 100 100 100 100 98 100 100 100 100 100 74 100 100 100 100 100 99 95 93 87 51 23 74 98 100 100 100 100 100
5 5 5 5 5 5 5 5 5 5 99 100 100 100 100 100 100 100 90 100 98 81 75 100 100 100 100 83 96 100 100 100 100 83 100 100 98 100 98 57 72 97 100 100 100 100 100
5 5 5 5 5 5 5 5 4 6 94 100 100 100 100 100 100 100 98 81 77 74 100 100 100 77 100 100 100 100 100 99 71 98 100 97 100 100 100 100 97 99 100 100 100 100 100
5 5 5 5 5 5 5 5 2 58 100 100 100 100 100 100 97 60 45 10 28 100 100 100 100 92 100 100 100 100 100 100 100 100 100 100 100 100 85 100 91 100 100 90 100 100 100
5 5 5 5 5 5 5 5 5 68 85 100 100 99 100 100 100 98 100 60 34 100 100 100 100 100 100 100 100 100 80 87 100 100 100 100 100 98 100 100 77 81 95 78 99 95 100
5 5 5 5 5 5 6 5 5 24 82 93 100 100 100 100 93 75 49 33 89 100 100 100 100 100 100 100 100 98 100 89 100 100 100 100 100 100 100 100 91 100 67 21 100 79 100
7 5 5 5 5 5 5 5 5 5 98 100 100 100 100 100 61 48 99 100 99 100 100 100 100 100 100 100 100 99 100 98 99 100 99 100 100 100 100 100 100 92 87 92 100 100 100
18 5 5 5 5 5 5 5 5 6 94 100 100 100 100 100 83 24 70 81 54 72 100 100 100 100 100 100 99 96 100 100 98 92 78 56 98 97 100 100 93 77 39 71 71 100 100
36 6 5 5 5 5 5 5 5 7 41 100 100 100 100 100 76 50 63 14 20 94 100 100 100 100 100 100 84 98 100 88 95 99 27 100 47 87 62 96 99 100 100 100 53 87 100

GFSGBSN_prec_cloud_036.txt.gz
Cloud_Cover
0 2 8 70 100 100 6 74 4 6 5 28 15 51 24 5 72 100 100 100 100 100 100 100 100 100 100 100 55 18 91 100 100 100 100 100 100 100 100 100 100 100 100 100 98 11 52
94 100 100 100 18 69 17 5 0 0 0 2 26 34 85 49 27 34 63 100 100 100 100 100 100 100 96 100 100 100 26 58 100 100 100 100 100 100 100 100 100 100 100 100 100 77 7
100 69 100 74 100 100 100 67 5 12 73 9 3 5 28 59 7 13 22 55 100 100 100 100 100 100 100 96 100 100 100 54 28 100 100 100 100 100 100 100 100 100 100 100 100 100 52
100 100 100 100 100 100 100 96 53 91 100 98 68 3 7 8 4 9 4 7 100 100 100 100 100 100 100 100 96 100 100 100 74 100 97 100 100 100 100 100 100 100 100 100 100 100 100
88 92 100 74 100 83 74 94 97 79 57 86 82 85 5 5 1 5 44 5 95 100 100 100 100 100 100 100 100 100 100 100 100 97 100 75 99 77 99 100 100 100 100 100 100 100 100
100 100 82 44 100 98 80 100 98 99 100 39 28 5 97 10 0 0 6 43 62 100 100 100 100 100 100 100 100 100 100 100 100 100 99 70 100 27 35 80 100 100 100 100 100 64 16
89 100 3 76 59 100 100 26 84 96 67 32 65 100 80 5 30 92 31 4 52 99 100 100 100 100 100 100 100 100 100 100 100 100 100 100 100 100 100 44 5 6 92 85 91 77 74
100 96 100 76 43 99 91 95 100 100 100 45 60 73 5 13 73 50 97 87 83 99 100 100 100 87 100 100 100 100 100 100 100 100 100 100 100 100 100 100 100 76 23 8 5 5 5
100 100 75 50 49 88 97 100 98 100 59 5 8 6 70 93 100 51 6 37 100 100 100 100 100 100 100 100 100 100 100 100 100 100 100 100 100 100 100 100 100 100 88 64 9 5 5
100 100 84 27 71 90 78 100 100 60 47 8 5 97 100 100 97 54 11 3 100 100 100 100 100 99 100 41 100 100 100 100 98 100 100 100 100 47 100 100 100 100 100 100 87 6 5
100 98 63 15 24 9 13 71 100 5 5 5 93 96 100 100 100 99 91 27 100 100 100 100 100 100 100 91 99 98 100 100 100 100 70 96 99 98 77 65 86 100 100 100 100 100 84
90 96 73 13 28 10 90 72 27 5 5 88 74 58 96 100 98 71 32 52 100 100 100 100 100 100 82 96 95 98 100 100 100 100 100 78 87 17 20 31 26 14 56 10 26 88 85
94 95 47 62 48 5 4 17 41 13 7 5 76 100 74 97 98 47 58 100 100 100 100 100 100 100 70 100 100 100 100 100 100 100 98 72 73 72 5 30 10 65 98 80 95 99 90
100 95 39 97 30 5 5 21 5 8 10 5 99 82 96 100 18 5 88 100 100 100 100 100 100 100 100 100 100 100 100 100 100 100 100 93 92 42 91 99 100 100 100 100 64 100 98
100 77 96 45 18 5 5 91 58 7 66 100 100 42 97 100 6 8 100 100 100 100 100 100 100 100 100 99 100 100 100 100 100 100 100 100 100 100 100 100 100 100 95 95 71 26 7
100 72 36 79 40 5 5 34 62 100 100 100 100 50 97 100 10 83 100 100 100 100 100 97 100 95 96 100 100 100 100 100 100 100 93 100 100 100 100 100 78 82 100 97 71 56 82
100 90 86 5 5 5 5 5 90 100 100 89 86 41 69 96 99 100 100 100 100 100 86 100 79 84 100 100 100 100 100 85 86 100 98 100 93 73 81 33 7 49 97 90 64 99 30
93 100 56 14 3 5 5 5 100 100 68 64 94 72 19 100 100 100 100 100 100 100 100 100 72 21 82 100 86 96 100 100 98 78 100 100 99 49 5 1 3 84 69 100 94 5 50
82 70 89 5 4 5 5 5 38 100 100 66 100 24 91 100 100 100 100 100 100 100 100 100 100 93 75 100 100 100 100 62 36 12 98 91 65 62 25 64 100 55 5 21 86 80 90
82 14 48 5 5 5 5 5 96 100 70 14 40 70 100 100 100 100 100 100 100 100 98 73 79 87 94 100 98 94 97 59 5 51 83 18 95 6 87 100 68 51 7 100 100 100 68
21 5 11 15 29 5 5 4 5 81 22 98 34 100 100 97 100 100 100 100 100 77 76 75 74 100 100 100 73 98 100 96 36 6 5 6 67 98 65 5 17 6 28 100 100 96 100
88 5 5 5 5 5 5 2 1 27 3 30 76 100 31 100 22 100 100 100 88 94 69 86 79 100 100 100 92 96 71 97 55 60 54 100 100 14 5 5 56 57 100 96 100 100 100
10 5 5 5 32 19 5 5 1 4 69 100 100 100 100 98 100 56 95 77 97 52 99 100 100 100 100 100 98 65 44 78 100 100 100 97 79 45 16 39 66 56 97 77 78 100 100
79 6 6 5 5 5 5 5 5 16 99 100 100 100 100 87 71 80 98 93 68 94 52 100 100 100 100 100 100 100 100 100 99 66 85 97 91 100 44 95 70 99 67 65 100 100 97
100 96 28 14 6 5 5 5 5 5 91 99 100 100 100 65 69 68 93 80 30 100 100 100 100 100 100 100 100 100 100 51 49 94 64 100 100 97 100 91 78 99 88 74 71 100 94
100 100 9 5 5 5 5 5 5 5 5 100 100 100 100 100 60 90 100 95 100 100 100 100 100 100 100 100 100 100 83 81 79 73 100 100 100 92 100 93 94 68 100 100 72 100 100
100 99 81 21 5 5 5 5 8 5 5 99 100 100 100 100 100 98 100 100 100 100 100 100 100 100 100 100 97 100 100 79 74 93 100 100 100 100 100 100 88 90 100 96 92 93 68
100 100 58 36 5 5 31 90 54 6 6 100 100 100 100 100 100 39 98 100 100 98 100 100 100 100 100 100 91 100 100 92 90 96 100 100 68 99 100 100 95 65 91 90 92 81 83
100 83 78 23 5 5 70 100 11 12 53 65 100 100 100 100 73 21 16 24 12 97 100 100 100 100 100 100 99 100 100 94 93 100 100 74 91 93 30 93 50 94 62 74 98 71 24

GFSGBSN_prec_cloud_039.txt.gz
Cloud_Cover
100 98 100 50 100 100 91 63 12 41 21 22 5 50 5 5 100 84 43 100 100 100 100 100 100 100 100 100 100 100 100 100 100 100 100 100 100 100 100 100 96 46 57 73 81 30 79
100 100 100 100 100 99 44 100 9 16 88 96 92 81 78 13 16 79 4 46 100 100 100 100 100 100 100 100 100 100 86 100 100 100 100 100 100 100 100 100 100 100 92 100 100 100 100
100 100 100 100 100 89 6 100 24 95 100 100 100 99 24 5 5 0 56 27 5 96 100 100 100 100 100 100 100 100 100 99 100 100 100 100 100 100 100 100 100 100 100 100 100 100 99
90 100 100 95 65 96 52 72 91 98 100 96 100 96 100 60 5 5 4 5 3 2 100 100 100 100 100 100 100 100 100 100 100 100 100 100 100 100 100 100 100 100 100 100 100 100 100
100 100 100 45 54 67 93 26 87 93 49 100 100 100 92 7 54 5 5 0 3 0 96 100 100 100 100 100 100 100 100 100 100 100 69 100 100 100 100 100 100 100 100 100 100 100 100
100 100 100 100 41 94 94 55 85 74 100 100 99 64 72 91 11 12 5 3 5 3 89 100 100 100 100 100 100 100 100 100 100 100 100 89 100 100 100 100 100 100 100 100 100 91 100
100 100 100 38 100 73 33 43 92 86 94 36 74 9 75 99 81 100 7 83 39 71 42 100 100 100 100 100 100 100 100 100 100 100 100 89 100 100 100 100 100 100 100 100 100 100 100
99 95 99 58 83 6 29 15 18 26 60 5 4 5 10 100 94 13 94 5 38 100 74 100 100 100 100 100 100 100 100 100 100 100 100 100 100 100 100 96 98 100 100 100 100 100 100
100 100 90 49 47 5 23 78 69 17 5 6 9 5 27 39 42 48 68 2 32 92 100 100 100 100 100 100 100 100 100 100 100 100 100 100 100 100 100 92 100 100 97 100 100 100 99
100 100 95 38 40 5 41 14 5 2 5 18 5 13 38 23 66 100 74 4 64 98 100 100 100 100 89 79 100 63 100 100 100 100 100 100 100 100 100 100 44 46 50 78 35 5 4
100 100 69 78 98 5 66 37 75 38 5 8 6 97 100 93 100 100 97 70 100 100 100 100 100 100 98 98 93 100 100 100 100 100 100 100 100 100 100 100 100 100 100 61 5 5 5
100 100 82 89 17 14 37 6 84 27 23 54 100 55 100 100 93 42 71 50 100 100 100 100 100 85 78 72 99 100 100 100 100 100 100 100 100 100 100 100 73 19 52 92 96 37 46
100 100 53 5 11 59 51 9 6 5 6 10 99 100 90 95 78 100 21 40 100 100 100 100 100 96 83 97 98 98 100 100 100 100 100 100 100 100 100 94 69 65 75 42 28 96 91
98 100 61 34 9 12 72 13 22 100 46 100 98 92 24 77 87 7 49 100 100 100 100 100 100 100 100 96 72 100 100 38 73 100 100 100 100 100 100 64 32 27 7 14 27 54 5
98 100 80 82 5 11 5 12 98 100 100 98 80 48 100 58 5 6 100 100 100 100 100 100 100 100 100 96 93 99 77 100 100 100 100 100 100 100 100 100 38 5 19 37 31 5 25
100 100 100 96 5 5 5 77 100 99 89 5 11 85 48 40 58 100 100 100 100 100 100 100 100 81 92 100 55 93 100 100 100 100 99 100 100 83 96 86 84 42 8 51 47 48 76
100 61 100 5 5 5 5 56 100 100 67 6 5 98 95 59 100 100 100 100 100 100 100 100 97 80 98 100 53 98 100 100 99 68 100 100 100 100 88 24 33 75 92 77 52 56 70
100 90 68 5 5 5 5 76 98 100 23 4 5 30 97 100 100 100 100 100 100 100 95 54 80 10 78 98 100 100 32 42 93 97 100 100 100 100 35 71 100 95 34 98 75 76 99
100 98 11 5 5 5 5 9 100 98 99 68 18 100 100 100 100 100 100 100 100 100 100 96 40 48 6 97 65 94 90 68 90 100 100 99 87 46 85 73 46 67 33 99 93 80 5
100 94 77 5 36 5 5 5 6 5 6 29 28 98 98 100 100 100 100 100 100 100 100 49 58 24 98 88 92 90 75 99 100 100 100 63 55 84 15 44 97 100 86 6 84 100 97
97 11 5 44 63 5 5 1 3 5 3 71 75 28 28 77 95 100 84 97 97 92 74 81 100 98 99 100 98 100 100 100 100 78 85 10 5 40 100 100 100 24 5 48 77 86 100
100 100 77 66 5 5 5 5 2 3 5 24 73 82 87 100 100 82 82 40 70 48 62 65 70 82 100 100 100 100 100 98 92 54 25 5 55 100 100 57 5 6 30 90 98 89 74
100 100 38 55 45 77 5 5 5 3 59 100 100 100 100 12 100 92 33 14 8 66 89 54 100 100 100 100 100 100 100 100 96 82 78 56 94 26 68 57 5 81 100 100 99 83 99
100 100 68 100 100 91 5 5 5 5 44 100 100 100 98 22 5 5 78 37 6 12 100 94 92 100 100 100 100 94 100 99 100 100 60 82 72 32 33 13 83 98 100 100 87 73 100
100 100 91 100 100 80 5 5 5 5 14 100 100 100 100 54 78 29 82 29 5 73 100 100 100 100 100 100 100 100 100 100 100 100 100 100 98 58 86 100 100 100 100 87 99 100 100
100 100 100 100 100 91 5 5 0 7 39 100 100 100 100 100 9 33 96 98 57 100 100 100 100 100 100 100 100 100 100 100 100 94 100 100 100 97 100 100 100 98 58 99 100 100 98
100 100 100 100 100 30 5 78 20 2 26 100 100 100 100 100 56 84 97 100 100 96 100 100 100 100 100 100 100 100 100 100 100 80 100 100 100 100 100 100 65 91 100 88 100 83 100
100 100 100 100 100 44 92 98 100 88 13 100 100 100 100 100 100 100 100 100 100 100 98 100 100 100 100 100 100 100 100 100 100 71 97 92 100 100 100 98 88 91 91 98 45 68 58
100 100 99 100 100 57 100 100 100 100 54 100 100 100 100 100 100 100 97 100 62 91 65 100 100 100 100 100 100 100 100 100 91 89 98 100 100 100 65 35 67 86 39 78 41 84 55

GFSGBSN_prec_cloud_042.txt.gz
Cloud_Cover
90 6 79 99 100 100 93 55 21 37 61 99 100 100 100 57 66 53 2 28 7 100 96 100 100 100 100 100 100 100 100 100 100 100 100 100 100 100 100 100 100 100 95 100 100 21 8
73 100 69 100 100 97 100 17 5 11 33 44 68 63 100 100 57 92 17 36 72 91 12 100 100 100 100 100 100 100 100 100 100 100 100 100 100 100 100 100 100 100 100 99 100 100 100
100 100 100 100 80 94 38 13 16 7 76 34 5 85 85 100 68 5 86 4 7 6 3 67 81 100 100 100 100 100 100 100 100 100 100 100 100 100 100 100 100 100 100 100 100 100 91
100 100 90 100 100 97 5 31 5 47 62 7 62 100 68 23 25 36 49 4 0 0 0 46 97 100 100 100 100 100 100 100 100 100 100 100 100 100 100 100 100 100 100 100 100 98 97
100 100 92 88 100 86 6 25 13 12 5 32 19 5 5 75 90 100 20 4 0 0 0 53 100 100 100 100 100 100 100 100 95 100 100 100 100 100 100 100 100 100 100 100 100 100 100
100 100 100 100 100 81 24 5 38 84 4 10 5 0 39 100 20 51 55 2 0 0 0 57 83 100 100 100 100 100 100 100 100 100 100 100 100 100 100 100 100 100 100 100 100 89 100
100 100 77 70 100 92 28 14 70 5 5 4 5 5 10 5 1 5 35 19 2 4 32 19 100 100 100 100 100 100 100 100 100 100 100 100 100 100 100 100 100 100 100 100 100 100 100
87 82 99 99 100 31 22 100 61 5 5 11 10 5 5 5 5 10 16 80 5 90 64 100 100 100 100 100 100 100 100 100 100 100 100 100 100 100 100 100 100 100 100 100 100 100 100
93 22 52 100 90 100 81 58 43 58 46 32 48 96 100 61 64 23 73 60 6 92 81 95 100 100 100 100 100 100 100 100 100 100 100 100 100 100 100 100 100 100 100 100 100 100 100
99 100 100 100 100 20 21 84 51 35 31 95 95 100 100 94 53 100 43 82 18 98 94 100 100 100 100 100 100 100 100 100 100 99 69 91 100 100 100 100 81 90 100 100 100 100 100
94 100 100 100 70 87 100 94 8 5 5 99 100 100 100 100 100 100 99 67 100 96 80 93 100 99 100 95 100 100 82 100 100 100 100 100 100 100 100 100 100 59 6 32 97 100 94
12 100 100 100 61 5 74 44 5 95 63 78 100 100 100 100 80 92 96 48 100 99 84 100 94 100 93 98 100 100 100 100 100 100 98 100 100 100 100 100 100 100 52 11 5 5 17
65 81 99 99 62 8 12 5 44 100 100 100 99 100 98 84 100 100 71 100 86 86 100 100 100 100 99 100 100 100 100 100 100 100 100 100 100 100 100 100 100 96 46 95 91 97 88
87 70 100 100 77 5 5 5 100 100 100 8 14 32 63 81 26 60 60 94 100 100 100 100 98 94 97 100 84 100 100 100 100 100 100 100 100 100 98 100 100 74 100 100 99 58 5
95 87 91 100 34 50 5 91 97 77 80 7 16 65 25 34 5 17 100 100 100 100 100 100 100 100 100 90 100 100 100 100 100 100 96 100 100 100 100 100 100 100 69 100 100 100 58
100 98 92 94 78 61 4 94 70 6 5 5 37 66 93 100 98 53 100 100 100 100 100 82 100 99 97 99 100 100 100 100 100 100 100 100 99 90 100 100 100 99 100 100 94 34 12
100 100 100 100 100 100 3 58 10 60 0 1 2 27 100 100 100 82 100 100 100 100 100 91 100 100 98 100 100 100 100 100 72 37 100 100 100 100 100 100 100 100 100 100 54 5 26
100 100 100 100 100 100 21 46 5 95 2 7 5 69 100 99 100 100 100 100 100 100 97 100 46 40 94 99 100 87 100 98 61 100 100 100 100 100 100 100 80 78 73 16 7 76 41
100 100 100 93 100 100 45 5 5 10 96 96 13 14 76 89 100 100 96 94 100 100 77 25 30 38 31 87 82 47 98 78 100 100 100 100 84 87 100 100 100 93 60 22 67 78 48
100 100 100 100 100 100 57 5 5 3 3 21 4 5 96 100 100 100 100 100 80 83 88 84 27 8 53 100 100 70 95 100 100 100 100 100 100 100 100 100 100 90 87 56 56 96 48
100 100 100 100 100 100 32 5 5 3 0 23 51 27 83 89 53 100 94 94 94 76 68 100 98 100 100 100 100 100 100 100 100 100 100 100 100 100 100 97 13 7 43 6 19 13 58
100 100 100 100 100 100 100 15 5 4 1 24 80 94 95 100 14 25 6 34 88 91 30 89 99 100 100 100 100 100 100 100 100 100 100 100 100 83 10 71 32 62 21 5 42 69 44
100 100 100 100 100 100 100 100 5 24 22 93 100 100 99 24 8 5 11 93 59 53 78 82 100 76 100 100 100 100 100 100 100 100 100 73 11 53 100 100 84 32 14 66 84 63 89
100 100 100 100 100 100 100 10 5 78 52 90 100 100 99 33 11 5 6 5 13 12 98 100 100 100 100 100 100 100 100 100 100 100 82 51 94 100 97 58 60 87 86 95 97 77 100
100 100 100 83 100 100 87 10 5 25 78 100 100 100 100 73 12 65 16 5 5 8 100 100 100 100 100 100 100 100 100 100 100 100 100 100 100 93 54 31 100 100 100 71 81 67 100
100 100 96 91 94 100 13 5 27 4 58 100 100 100 100 100 18 25 12 5 33 5 100 100 100 100 100 100 100 100 100 99 95 100 100 100 100 97 84 100 74 94 93 26 32 99 100
100 100 98 49 100 90 12 18 9 95 58 98 100 100 100 100 72 39 7 50 29 57 90 98 93 100 100 100 100 100 100 100 100 100 100 100 100 100 100 99 89 100 70 51 100 100 98
100 100 100 61 100 34 88 100 100 100 100 96 100 100 100 100 85 98 39 5 75 74 87 44 83 85 100 100 100 100 100 100 100 95 99 100 100 100 79 99 100 100 91 98 100 72 30
100 100 100 97 68 100 100 100 95 100 100 81 100 100 100 100 100 100 86 91 82 91 96 93 72 81 100 100 100 100 100 100 99 100 97 83 6 98 48 99 95 78 100 100 88 13 7

GFSGBSN_prec_cloud_045.txt.gz
Cloud_Cover
100 100 100 99 100 100 97 71 100 96 99 26 16 18 7 44 95 98 77 71 92 5 84 35 100 100 100 100 100 100 100 100 100 100 100 100 100 100 100 100 100 100 100 100 100 100 100
99 100 100 100 100 100 62 63 100 68 40 7 28 5 5 22 23 98 100 99 70 5 4 13 100 100 100 100 100 100 100 100 100 100 100 100 100 100 100 100 86 100 100 100 100 100 100
100 100 100 100 100 95 97 100 67 6 16 24 4 9 3 5 27 99 39 40 51 5 21 0 100 100 100 100 100 100 100 100 100 100 100 100 100 100 100 100 100 100 100 100 100 100 100
100 99 100 100 58 100 100 7 53 22 32 94 46 16 5 0 18 92 96 100 65 1 0 0 100 100 100 100 100 100 100 100 100 100 100 100 100 100 100 100 100 100 100 100 100 100 100
99 100 100 94 65 95 56 71 69 5 94 39 5 2 3 0 5 29 70 98 16 29 4 0 93 100 100 100 100 100 100 100 100 100 100 100 100 100 100 100 100 100 100 100 100 100 100
100 100 100 98 9 73 79 86 93 78 76 80 5 14 5 5 2 4 13 16 95 5 1 2 43 100 74 99 100 100 100 100 100 100 100 100 100 100 100 100 100 100 100 100 100 100 100
92 63 95 74 100 100 77 95 5 59 91 98 37 26 28 99 93 35 73 29 100 34 6 4 36 100 97 99 100 100 100 100 100 100 100 100 100 100 100 100 100 100 100 100 100 100 100
100 39 100 100 77 87 30 100 88 96 29 100 53 100 100 100 100 99 28 55 100 5 44 0 100 58 100 100 100 100 100 100 100 100 100 100 100 100 100 100 100 100 100 100 100 100 100
100 100 100 100 83 74 5 98 100 87 11 99 100 100 100 89 100 30 17 54 10 36 82 6 100 100 100 100 100 100 100 100 100 100 100 100 100 100 100 100 100 100 100 100 100 100 100
100 100 100 100 71 89 21 95 69 33 94 11 30 100 99 99 97 100 98 97 7 93 8 33 100 100 100 100 100 100 100 100 100 100 100 100 100 100 100 100 100 100 100 100 100 94 100
100 100 100 100 45 100 19 27 43 98 35 73 90 100 72 92 100 100 100 100 23 100 0 100 100 100 100 67 92 100 100 100 100 100 100 100 100 99 100 100 100 100 100 100 100 90 80
100 100 95 98 100 88 59 20 98 96 97 6 34 72 95 94 98 99 100 100 54 89 83 79 99 100 99 100 72 100 100 100 100 100 100 93 100 100 100 100 100 100 100 100 96 100 97
100 100 100 64 100 81 100 72 100 100 27 30 5 20 38 87 90 100 94 93 77 90 100 100 100 100 100 100 98 100 100 100 100 100 100 100 100 100 100 100 100 100 100 99 45 8 72
99 100 100 49 100 64 44 100 100 98 26 5 8 1 60 84 70 57 54 100 84 94 100 100 100 100 100 100 100 100 100 100 100 100 100 100 100 100 100 100 100 100 37 49 62 81 85
100 100 100 100 100 100 60 92 100 100 5 5 5 2 71 100 100 100 100 84 93 88 100 100 100 100 100 100 100 100 100 100 100 100 100 100 100 37 69 99 97 100 97 100 100 100 100
100 100 100 100 100 100 100 61 26 87 34 5 1 7 49 100 100 100 95 100 100 100 100 99 100 87 100 100 100 100 100 100 100 100 100 100 100 100 100 97 100 100 100 100 100 82 14
100 100 100 100 100 100 88 6 5 23 79 0 5 4 5 8 99 100 100 100 100 100 80 64 100 100 100 100 100 100 100 100 100 100 100 100 100 100 100 97 100 100 100 95 19 31 74
71 100 100 100 100 100 100 5 5 36 92 57 5 5 100 5 6 100 100 100 100 85 7 81 72 100 100 100 100 100 100 100 100 100 100 100 100 100 100 100 100 99 83 21 7 55 100
81 100 100 70 100 100 100 17 5 12 88 74 2 5 5 7 83 100 97 98 80 17 11 13 74 92 99 89 100 100 100 100 100 100 100 100 100 100 100 100 100 100 100 53 40 100 100
97 100 100 93 100 100 100 92 81 5 4 66 3 12 38 7 67 100 100 68 74 5 11 28 51 100 100 100 100 100 100 100 100 100 100 100 100 100 100 100 100 100 100 87 100 81 29
17 100 100 100 100 100 100 99 96 19 5 7 13 69 95 78 100 91 100 100 55 24 26 49 100 100 96 100 100 100 100 100 100 100 100 100 100 100 100 100 100 100 100 100 79 48 11
95 100 100 100 100 100 100 100 9 45 18 20 89 75 97 43 10 32 64 6 5 5 91 84 84 87 100 94 87 93 100 100 100 97 100 100 100 100 100 100 100 100 100 100 59 72 97
6 20 95 100 100 100 100 100 5 17 9 15 59 80 91 11 5 5 34 92 95 45 90 100 99 100 100 100 100 98 100 100 100 100 100 100 100 100 100 95 93 100 72 54 56 87 89
5 5 98 100 100 100 100 100 7 18 42 58 100 100 93 10 5 5 10 5 5 9 71 92 100 100 100 100 100 100 100 100 100 100 100 100 100 100 99 11 79 91 8 93 90 48 100
62 24 78 98 100 100 100 100 60 79 57 17 100 100 100 100 9 26 5 5 5 5 30 89 100 100 100 100 100 100 100 100 100 100 100 100 95 98 99 79 66 79 99 100 50 99 93
20 74 64 96 100 100 100 100 55 100 26 5 100 100 100 100 60 68 5 5 5 5 25 100 100 100 100 100 100 100 100 99 79 100 100 100 99 63 100 98 42 100 97 84 34 96 99
70 73 86 100 100 100 100 100 45 96 100 20 84 100 100 100 48 53 11 6 5 5 5 80 100 100 100 89 100 100 100 100 93 92 97 100 100 100 100 79 89 100 98 62 84 97 100
77 85 100 100 100 100 99 100 100 100 100 79 70 100 100 100 100 68 40 47 10 5 65 60 99 100 100 100 100 84 98 79 72 92 100 100 97 100 100 100 76 62 99 87 94 100 98
100 99 100 100 100 100 100 100 100 100 100 99 56 100 100 100 100 100 100 88 50 6 67 100 94 100 100 96 84 98 98 100 100 95 63 65 22 79 20 82 65 98 99 93 95 100 19

GFSGBSN_prec_cloud_048.txt.gz
Cloud_Cover
100 99 100 64 98 100 71 58 83 11 100 100 26 16 5 61 4 4 1 5 100 99 91 5 12 94 100 100 100 100 100 100 100 100 100 100 100 100 100 100 100 100 100 100 100 100 100
100 84 84 96 30 33 5 60 100 21 100 43 51 5 56 5 1 4 36 34 100 100 98 71 5 66 100 100 96 100 100 100 100 100 100 100 100 100 100 100 100 100 100 100 100 100 100
94 94 80 100 54 97 37 82 100 99 98 8 100 9 8 5 4 0 30 75 100 89 100 5 5 99 100 97 67 100 100 100 100 100 100 100 100 100 100 100 100 100 100 100 100 100 100
99 87 67 81 89 45 88 100 100 100 100 61 7 46 86 98 63 4 5 70 63 80 87 5 9 100 100 100 100 100 100 100 100 100 100 100 100 100 100 100 100 100 100 100 100 100 100
63 92 93 23 100 74 90 62 100 87 23 88 92 99 100 66 91 47 28 93 72 97 40 28 14 30 61 39 84 100 100 100 100 100 100 100 100 100 100 100 100 100 100 100 100 100 100
61 34 61 85 100 42 100 34 100 99 53 98 97 100 100 100 100 100 100 98 26 99 28 62 4 80 100 74 99 100 100 100 100 100 100 100 100 100 100 100 100 100 100 100 100 100 96
99 100 100 100 100 24 24 12 57 100 97 23 100 100 100 100 100 78 99 100 5 5 55 4 51 76 93 89 76 100 100 100 100 100 100 100 100 100 100 100 100 100 100 100 100 100 100
53 33 100 100 77 54 7 23 76 95 87 51 74 32 23 100 100 48 82 48 29 62 47 4 69 99 100 94 100 100 100 100 100 100 100 100 100 100 100 100 100 100 100 100 100 100 100
18 5 64 100 100 100 6 84 64 65 95 100 92 100 91 100 100 86 33 45 81 30 68 46 57 100 100 72 100 100 100 100 100 100 100 100 100 100 100 100 100 100 100 100 100 100 100
6 31 100 100 100 95 99 96 47 98 49 42 7 100 100 100 27 93 91 100 22 99 23 82 53 100 100 100 99 100 100 100 100 100 100 100 100 100 100 100 100 100 100 100 100 100 100
7 57 100 99 100 94 100 87 93 48 24 5 5 5 14 99 100 100 82 96 100 58 0 10 65 98 100 100 100 99 100 100 100 100 100 100 100 100 100 100 100 100 100 100 100 100 100
7 100 91 94 95 100 100 84 100 70 44 2 5 15 9 49 85 94 6 5 24 46 86 31 100 100 100 100 100 97 100 100 100 100 100 100 100 100 100 100 100 100 100 100 100 100 100
5 67 78 89 71 97 100 92 100 86 76 3 11 32 30 41 80 76 45 40 58 60 56 100 100 100 100 72 96 100 100 100 100 100 100 100 100 100 100 98 100 100 100 100 100 100 100
7 23 100 100 77 100 100 100 100 100 28 0 2 60 82 100 55 99 100 53 66 100 100 100 100 100 100 87 100 100 100 100 100 100 100 100 100 100 100 100 100 100 100 100 100 100 100
24 97 100 100 50 86 99 57 40 100 76 0 0 10 81 100 99 31 42 72 100 100 100 100 100 100 100 94 100 100 100 100 100 100 100 100 100 100 100 100 100 100 100 100 100 100 100
10 65 100 97 100 94 59 98 34 74 100 2 5 4 90 97 100 36 5 54 98 100 100 100 100 76 89 100 100 100 100 98 100 100 100 100 100 100 100 100 100 98 56 100 100 100 100
13 91 100 100 59 100 100 100 51 37 100 1 1 5 5 21 76 86 98 93 100 77 89 92 65 96 100 100 100 100 100 100 100 100 100 100 100 100 100 100 69 100 100 100 100 93 100
5 18 100 100 100 40 100 100 51 69 100 57 0 2 11 5 37 70 100 100 95 52 78 75 100 100 100 100 100 100 100 100 100 100 100 100 100 100 100 94 100 100 100 97 98 100 100
5 5 100 98 100 100 100 100 34 86 100 100 0 5 21 8 97 96 84 73 76 5 8 77 85 29 62 92 100 100 100 100 100 100 100 100 100 100 100 100 100 100 76 51 73 100 98
29 10 5 56 99 100 100 100 98 85 5 96 0 21 6 15 73 100 100 52 5 22 6 71 64 93 100 100 100 100 100 100 100 100 100 100 100 100 100 100 100 100 100 100 99 99 100
94 5 22 86 92 100 100 100 100 100 8 20 13 69 97 92 97 100 77 84 5 5 27 39 100 100 100 100 100 100 100 100 100 100 100 100 100 100 100 100 100 100 100 100 100 8 16
96 6 8 100 95 78 100 100 100 90 63 24 96 91 100 99 100 100 95 40 5 5 5 6 36 37 53 100 100 85 17 24 85 100 100 100 100 100 100 100 100 100 100 100 100 56 5
69 30 53 100 99 93 100 100 100 88 100 68 95 99 100 10 5 18 35 74 54 5 31 100 76 96 99 83 52 100 100 100 98 100 100 100 100 100 100 100 100 100 100 100 75 15 52
77 96 15 75 45 86 100 100 100 100 100 90 98 100 94 6 5 5 5 76 10 9 43 90 98 86 79 66 68 97 99 100 91 100 100 100 100 100 92 89 100 100 100 91 43 52 100
100 63 48 31 49 99 100 100 100 100 100 100 41 100 100 100 10 5 5 5 5 5 5 6 76 100 88 74 84 75 89 93 74 99 98 100 100 100 100 85 74 74 80 77 95 97 100
100 95 79 89 99 100 100 100 100 100 100 100 100 100 100 100 12 36 18 5 5 5 5 5 19 42 51 36 48 90 90 88 97 100 100 95 86 99 95 96 50 64 60 100 82 94 100
100 71 83 40 99 96 100 100 100 100 100 100 100 100 100 100 87 98 77 5 5 5 5 5 5 10 38 57 56 64 54 92 77 100 97 99 99 81 100 98 7 90 100 78 84 84 100
100 82 83 92 100 99 100 100 100 100 100 100 86 66 100 100 100 100 100 38 5 5 90 22 18 7 8 29 18 18 18 96 97 96 100 80 99 90 100 97 76 88 95 98 100 100 100
100 98 93 98 100 98 100 100 94 100 100 100 72 23 100 100 92 100 100 100 47 96 88 100 80 74 60 78 20 40 92 100 99 100 92 82 24 64 8 59 80 100 90 100 99 94 99

GFSGBSN_prec_cloud_051.txt.gz
Cloud_Cover
40 99 99 100 100 92 100 21 25 28 100 76 94 47 69 34 94 77 14 4 0 1 25 100 100 7 71 100 100 100 81 100 100 100 100 100 100 100 100 100 100 100 100 100 100 100 100
39 100 46 100 41 100 29 72 90 86 100 99 93 86 100 68 87 89 100 4 20 90 41 100 94 70 41 100 94 100 98 79 100 100 100 100 100 100 100 100 100 100 100 100 100 100 100
100 29 100 74 70 90 39 100 67 70 86 91 59 100 57 74 99 100 100 90 11 16 98 100 100 99 67 11 45 5 4 77 100 100 100 100 100 100 100 100 100 100 100 100 100 100 100
100 83 100 80 66 83 75 39 92 96 86 68 5 8 50 100 100 100 100 96 44 99 33 51 100 91 70 66 100 100 71 99 100 100 100 100 100 100 100 100 100 100 100 100 100 100 100
85 77 100 100 100 99 75 66 96 8 45 7 5 6 5 93 100 100 100 89 100 80 17 18 79 17 8 16 100 100 100 94 100 100 100 100 100 100 100 100 86 100 100 100 100 100 100
98 40 100 100 100 100 100 68 47 46 90 9 5 66 82 5 5 100 100 99 100 78 54 97 91 55 5 79 98 100 100 100 100 100 100 100 100 100 100 100 100 100 100 100 100 100 100
100 96 100 70 100 92 45 81 97 100 93 89 100 30 100 32 5 6 100 100 59 88 35 52 42 24 6 22 100 100 100 99 100 100 100 100 100 100 100 100 100 100 100 100 100 100 100
10 92 80 98 27 37 53 100 86 100 100 100 80 70 10 100 5 8 92 45 7 62 21 5 2 100 100 100 91 100 100 100 100 100 100 100 82 100 100 100 100 100 100 100 100 100 100
94 37 100 100 35 91 68 100 100 100 100 17 8 14 34 100 5 57 43 55 94 72 70 26 87 100 100 100 91 97 100 100 100 100 100 100 100 92 100 100 100 100 100 100 100 100 100
14 51 100 38 80 81 96 88 100 100 96 36 99 5 5 5 37 66 62 91 98 96 10 41 100 100 100 88 100 100 100 100 100 100 100 100 100 100 100 100 100 100 100 100 100 100 100
5 39 10 50 16 91 100 67 100 100 58 59 83 54 5 9 97 93 80 100 93 70 6 51 100 100 100 100 88 100 100 100 100 100 100 100 100 100 100 100 100 100 100 100 100 100 100
6 100 76 29 94 94 100 100 100 100 94 2 5 97 93 62 18 18 5 11 6 5 80 100 92 100 100 96 97 100 100 100 100 100 100 100 100 100 100 100 100 100 100 100 100 100 100
15 100 100 100 95 98 100 100 66 100 100 38 2 88 88 16 76 56 39 32 39 76 60 100 100 100 100 100 92 94 100 100 100 100 100 100 100 100 100 100 99 100 100 100 100 100 100
3 100 100 100 100 100 100 100 98 100 100 74 0 5 5 7 86 15 100 5 20 93 100 100 99 100 100 100 100 100 100 100 100 100 100 100 100 100 100 100 96 98 100 100 100 100 100
5 100 100 30 100 60 100 100 60 56 100 100 0 0 5 7 8 5 77 35 99 90 100 100 100 100 100 97 67 100 100 100 100 100 100 100 100 100 100 46 88 100 100 100 100 100 100
7 35 100 84 100 80 86 55 29 88 100 76 1 0 41 5 5 5 21 100 100 100 100 90 90 63 94 97 100 100 83 58 88 93 100 100 100 100 100 100 100 100 100 100 100 100 100
8 24 27 87 51 100 78 32 62 78 100 75 0 2 5 5 5 6 96 100 99 71 53 90 90 100 100 100 100 100 100 100 100 100 100 100 100 100 100 100 100 100 99 99 98 100 100
5 5 5 86 89 48 66 100 97 75 100 72 0 2 5 0 6 40 100 80 85 5 17 15 25 71 66 69 86 52 92 84 100 100 100 100 100 100 100 91 65 94 80 100 100 100 100
5 5 5 32 60 8 34 86 96 39 100 100 9 1 5 0 64 100 96 78 80 5 5 5 5 6 96 96 96 78 100 87 92 75 100 100 100 100 100 100 100 100 100 100 100 100 100
6 5 5 65 100 28 32 28 99 100 89 96 4 11 4 5 8 41 99 85 5 5 5 5 5 30 66 100 74 65 73 82 52 99 100 100 100 100 100 100 100 100 100 100 100 71 94
5 5 29 15 98 100 6 78 56 85 98 17 85 70 97 72 46 59 86 35 5 23 5 5 5 5 32 98 94 38 59 94 75 99 100 100 100 100 100 100 100 100 100 100 100 94 97
98 93 65 5 100 40 5 5 98 97 100 97 100 99 100 82 60 49 96 54 5 5 5 5 5 21 99 99 17 90 99 71 56 61 100 100 100 100 100 100 100 100 100 100 99 100 100
100 100 99 30 31 15 13 5 62 62 100 100 100 100 100 18 8 6 40 13 14 5 8 20 32 45 17 54 48 47 82 68 100 100 100 100 100 100 100 100 100 100 100 100 100 100 41
100 100 36 90 6 68 8 25 57 80 83 100 98 100 100 58 40 94 5 10 27 76 59 29 15 31 40 6 9 5 9 43 49 100 100 100 100 100 100 100 97 100 100 92 94 100 98
100 84 30 8 5 49 58 98 88 100 99 100 77 100 100 100 100 94 79 31 5 8 8 6 87 45 58 99 74 78 90 85 68 69 93 100 100 100 100 100 100 90 87 89 85 98 86
97 100 28 5 98 5 99 94 76 100 99 99 100 100 100 100 100 100 100 48 5 49 40 5 24 89 54 83 98 82 86 86 97 100 100 100 100 90 95 68 51 20 91 99 88 99 100
73 100 53 5 100 80 76 46 91 86 100 100 100 100 100 100 100 100 99 11 5 5 33 5 5 41 81 73 87 70 62 91 81 100 97 100 99 78 99 100 31 86 97 98 99 100 100
100 100 100 86 100 78 75 97 100 85 100 100 96 100 100 100 100 100 100 100 6 5 5 5 5 5 41 73 45 71 36 93 96 91 72 93 97 100 99 100 82 46 96 98 100 100 100
90 100 100 63 100 96 100 100 94 91 100 100 90 6 30 100 100 100 100 100 47 83 91 99 49 80 61 82 65 42 90 91 99 100 97 67 54 55 24 48 31 45 100 85 95 100 100

GFSGBSN_prec_cloud_054.txt.gz
Cloud_Cover
19 50 28 79 46 16 91 54 5 54 32 28 84 52 5 5 5 16 100 100 100 100 100 85 20 5 45 58 20 86 27 86 86 90 100 100 100 100 100 100 100 90 89 100 100 100 100
99 98 66 6 34 61 100 100 54 38 2 20 39 20 5 5 5 83 79 100 100 74 44 1 2 5 39 63 3 100 100 78 37 100 100 100 100 100 100 100 100 100 100 100 100 100 100
57 100 5 18 99 99 100 43 5 5 22 24 23 7 46 5 5 84 70 100 100 100 68 17 5 89 68 2 3 16 100 95 79 50 100 100 100 100 100 100 100 100 100 100 100 100 100
90 8 64 100 100 98 100 57 5 10 28 21 87 51 96 100 6 5 34 82 5 36 100 23 36 95 75 36 37 8 100 60 61 16 100 100 100 100 100 100 100 95 100 100 100 100 100
100 67 96 87 100 64 71 64 99 10 28 29 59 32 35 100 56 5 81 23 27 100 71 7 71 8 88 7 80 75 98 82 5 59 100 100 100 100 100 100 100 73 92 100 100 100 100
23 97 99 100 78 99 96 100 98 80 7 9 21 46 5 82 100 21 20 99 40 99 21 39 100 74 5 14 100 79 100 75 61 59 100 100 100 100 96 100 100 96 100 100 100 100 100
98 63 100 88 5 30 42 100 100 13 43 99 64 15 97 89 100 14 5 79 56 34 5 81 9 90 29 62 100 82 100 12 98 38 100 100 100 100 100 100 100 100 100 100 100 100 100
51 20 98 25 7 10 100 95 97 15 100 98 100 41 4 69 96 14 5 78 75 64 65 5 81 52 100 100 100 100 100 100 42 88 100 100 100 100 100 99 100 100 100 100 98 100 100
74 5 13 33 5 66 24 99 89 77 100 65 100 34 12 5 5 0 5 57 100 67 40 16 16 99 100 99 100 100 100 100 43 99 100 100 100 100 82 56 100 100 100 100 100 100 100
81 30 56 83 37 87 12 100 100 100 100 82 76 18 4 5 11 5 67 100 42 5 72 79 100 100 100 100 100 100 100 100 100 100 100 100 100 99 96 98 100 100 100 100 100 100 100
100 96 5 97 100 76 12 84 90 100 100 74 0 1 4 96 17 22 6 24 6 6 100 100 100 100 100 73 56 100 14 100 100 100 100 100 100 99 100 80 100 100 100 100 100 100 100
15 72 61 93 78 81 27 90 81 80 100 100 0 5 3 6 39 57 9 7 69 55 100 100 100 100 100 100 62 100 99 100 100 100 100 100 100 100 100 99 100 100 100 100 100 100 100
67 98 55 88 18 11 5 74 91 41 93 100 21 0 5 5 21 10 43 41 46 52 56 82 100 100 99 100 100 95 100 100 100 100 100 100 100 100 100 100 100 100 100 100 100 100 100
13 87 96 70 100 25 20 24 54 52 79 100 38 0 5 5 5 5 25 25 17 86 100 100 100 100 96 100 100 100 100 100 100 98 100 100 100 100 100 100 100 100 100 100 100 100 100
11 83 71 100 59 82 17 5 6 93 76 100 0 0 5 5 4 5 50 23 92 62 96 100 100 94 100 98 100 100 100 100 100 100 100 100 100 100 100 90 87 100 100 100 100 100 100
48 42 5 25 27 56 33 5 37 93 75 100 0 0 0 2 0 5 36 90 100 95 100 78 43 39 73 99 72 100 95 93 100 100 100 100 100 100 100 76 99 100 100 100 100 100 100
38 5 5 5 90 15 78 5 5 28 78 100 3 0 0 0 0 4 96 100 90 85 37 10 59 15 62 88 95 94 64 100 100 100 100 100 100 100 100 100 82 24 36 58 100 100 100
32 66 24 0 25 9 10 5 5 10 95 58 18 29 0 0 19 29 58 62 79 20 5 5 5 5 82 96 10 5 12 10 85 100 100 100 100 100 100 100 51 10 64 88 99 100 100
91 5 1 3 21 83 6 26 5 82 54 100 94 3 3 0 60 98 87 58 16 5 0 5 5 5 59 7 7 9 5 6 26 94 100 100 100 100 97 95 100 100 100 100 100 100 100
33 14 5 5 5 100 2 5 5 17 74 74 48 47 4 2 25 18 3 25 5 5 0 5 5 28 29 70 42 58 66 47 78 88 96 100 100 96 100 100 100 100 100 100 100 100 100
32 100 13 18 5 25 5 5 5 5 99 27 94 92 96 36 10 5 5 5 5 5 5 2 5 5 5 42 45 8 38 82 73 100 100 100 100 100 100 100 100 100 100 100 100 69 57
29 100 100 100 5 8 8 5 5 5 78 99 99 100 100 100 7 5 40 5 5 5 5 5 5 5 5 5 5 6 5 76 44 66 100 100 100 100 100 100 100 100 100 100 100 100 100
100 100 100 100 15 5 7 5 5 5 79 95 39 98 100 98 8 17 75 5 5 5 5 5 5 5 5 5 5 5 17 61 99 100 92 100 100 100 99 100 100 100 100 100 100 100 100
100 100 36 27 5 5 5 5 81 20 87 98 79 100 100 100 100 49 28 5 5 5 27 5 6 5 5 5 5 5 15 5 46 91 100 100 100 100 100 100 100 100 100 100 100 100 95
7 16 97 6 5 6 5 94 13 5 97 99 98 97 100 100 100 100 96 40 5 22 5 80 27 33 29 70 43 62 88 69 63 79 76 100 55 35 81 64 100 100 100 100 100 100 90
6 12 100 100 5 16 79 5 97 100 35 89 100 87 100 100 97 100 100 100 96 18 7 55 99 92 94 100 91 94 100 75 94 93 100 100 100 92 70 86 68 48 93 65 96 89 83
99 100 98 100 5 84 28 5 68 100 88 56 91 89 100 100 100 100 100 100 100 87 90 5 8 95 100 99 99 91 84 78 94 100 80 96 98 100 99 98 95 91 98 100 100 100 79
100 95 97 100 8 72 12 82 78 97 94 100 74 86 100 100 100 100 100 100 100 71 58 5 5 7 70 95 97 99 94 79 95 97 100 100 100 100 100 92 94 59 52 80 100 99 100
10 92 67 59 5 5 5 50 84 91 28 100 91 100 100 67 66 47 100 100 100 100 90 5 5 5 37 14 70 100 100 98 73 95 90 100 100 100 100 94 85 53 85 86 100 95 99

GFSGBSN_prec_cloud_057.txt.gz
Cloud_Cover
58 62 0 1 0 90 100 72 70 3 3 20 39 10 5 5 5 5 5 5 5 77 100 95 100 12 6 91 13 3 1 4 20 47 6 60 100 100 100 100 100 100 100 96 92 100 100
1 14 0 73 14 60 100 100 5 4 5 10 46 8 7 42 83 94 5 5 19 64 100 100 100 100 24 36 3 3 76 89 52 50 11 27 96 100 100 100 100 100 100 95 100 100 100
52 29 0 70 3 13 100 81 83 31 17 5 48 63 87 96 100 100 16 5 25 100 33 28 100 100 40 5 11 36 100 100 100 98 48 6 94 100 100 100 100 100 99 100 100 100 100
11 33 2 8 1 5 65 100 7 49 29 5 27 98 100 59 80 100 31 1 38 32 13 100 16 90 58 17 4 75 100 100 99 98 100 6 78 100 100 100 100 100 100 100 100 100 100
8 0 2 62 0 5 59 100 100 32 11 5 47 40 96 8 99 100 87 26 11 49 18 45 95 95 81 13 0 54 100 100 100 92 100 18 99 100 100 100 100 100 100 97 100 100 100
5 16 24 43 0 5 14 98 78 55 50 35 7 6 77 5 100 100 97 5 32 12 31 43 100 74 5 94 26 5 94 100 100 100 56 39 27 100 100 100 100 100 100 100 100 100 100
71 5 11 31 0 5 5 90 100 100 100 68 84 6 15 5 5 6 20 5 57 76 37 75 96 49 81 39 64 96 55 100 100 82 100 66 94 100 56 100 100 100 100 100 100 100 100
14 5 98 32 2 6 7 85 100 93 100 76 72 5 9 5 5 0 8 60 50 68 57 10 5 8 76 99 100 100 66 100 100 58 71 100 100 100 100 99 94 100 100 100 100 85 100
13 5 47 56 26 22 8 91 100 99 95 100 98 1 5 5 1 31 29 10 15 19 94 45 26 100 100 100 100 93 70 45 98 71 82 53 100 100 100 100 94 100 100 100 100 100 100
6 43 47 30 8 66 5 92 18 100 100 98 100 5 5 2 92 64 66 5 42 99 100 63 96 100 100 100 95 100 100 95 100 76 95 100 99 100 100 93 100 99 100 100 100 100 100
88 68 5 5 2 5 48 80 5 65 99 100 99 53 5 5 29 78 100 5 100 100 100 100 100 100 100 100 98 100 70 100 97 100 100 97 100 100 100 100 100 100 100 100 100 100 100
20 32 6 2 1 9 13 33 3 5 4 100 100 3 5 52 55 4 7 69 36 99 100 100 100 100 100 100 100 100 100 100 39 100 100 100 100 100 100 100 93 58 41 100 100 100 100
86 63 91 4 5 48 26 5 4 4 4 94 100 22 5 5 63 11 63 91 86 96 91 100 100 100 100 100 100 100 100 100 100 100 100 100 100 100 90 99 100 98 98 100 100 100 100
6 14 4 3 0 9 51 55 5 4 5 98 46 0 3 8 41 77 100 98 15 99 100 100 100 98 100 100 100 100 100 100 100 100 100 100 100 100 100 100 98 87 92 70 100 100 100
16 17 10 0 5 20 1 75 5 5 2 80 0 0 0 42 7 96 100 56 85 83 96 100 76 18 78 63 99 100 100 100 100 95 79 100 100 100 100 100 100 100 93 37 63 100 100
25 5 1 0 2 98 52 15 42 5 5 20 3 0 0 0 4 100 60 92 90 100 85 75 68 42 56 86 64 100 94 100 99 100 100 100 100 100 100 100 100 100 100 65 12 100 100
6 17 2 15 1 4 62 0 0 1 4 5 3 0 0 0 7 75 82 60 78 76 81 98 50 94 82 99 100 64 26 56 83 100 100 100 100 100 100 100 100 100 93 100 92 100 100
11 6 5 64 1 22 97 0 0 0 3 30 46 82 2 0 60 54 75 34 5 52 16 20 53 72 86 70 100 53 52 72 98 100 100 78 100 100 100 100 100 100 100 100 100 99 100
49 59 31 62 66 38 1 2 0 0 9 87 95 5 1 0 73 47 6 13 5 9 15 8 33 8 5 8 36 13 40 6 100 28 100 100 95 100 100 100 48 74 100 100 100 100 100
15 62 100 100 90 3 3 0 0 0 0 91 43 71 16 32 19 71 7 21 5 0 0 0 4 16 30 6 5 8 5 91 86 74 100 100 100 100 100 100 100 100 55 19 33 80 100
34 99 100 100 100 55 18 3 0 0 0 54 39 99 96 94 60 39 4 8 5 5 1 1 2 4 20 31 11 34 7 29 74 100 100 96 92 100 90 100 100 100 54 99 100 75 13
7 100 100 100 74 4 4 5 5 0 5 7 97 100 98 100 34 7 32 62 9 6 21 5 5 5 5 31 8 58 10 25 12 63 100 100 100 95 100 100 100 48 91 100 100 100 100
2 92 91 5 80 14 5 5 5 0 5 5 8 88 100 95 50 41 100 92 78 5 3 15 58 5 5 5 5 5 5 33 11 58 100 100 100 81 28 62 99 54 100 100 100 100 100
50 5 63 51 64 5 19 5 5 5 5 5 19 100 100 93 100 100 23 37 48 44 77 5 7 66 28 5 5 5 5 5 5 5 62 76 100 100 100 100 100 100 100 98 100 100 100
84 5 30 90 100 69 99 6 5 10 5 7 30 39 100 100 100 81 96 98 100 31 34 24 5 5 8 51 74 91 83 80 58 42 31 80 96 100 98 100 100 100 100 100 100 100 100
5 6 5 7 98 5 81 19 8 95 52 23 26 6 67 100 100 100 100 100 100 100 52 66 50 14 71 99 97 100 100 100 99 68 60 89 92 100 88 100 100 100 100 100 100 100 100
10 17 96 62 100 70 42 19 100 100 44 10 22 15 54 72 96 100 100 100 100 97 88 70 75 50 37 100 100 100 100 85 93 100 85 100 98 99 100 100 94 100 100 100 100 100 100
11 34 12 30 78 12 19 5 89 100 94 55 49 38 72 97 95 100 100 100 100 100 100 80 70 59 61 53 86 87 97 100 80 85 85 99 100 100 100 100 82 100 72 79 100 76 99
100 5 5 27 5 5 84 8 10 98 60 61 99 51 79 100 100 100 100 100 100 100 100 93 98 56 75 99 20 76 96 100 100 100 72 100 89 100 60 82 58 80 77 38 41 84 75

GFSGBSN_prec_cloud_060.txt.gz
Cloud_Cover
5 24 23 25 1 100 11 100 100 93 15 5 11 16 46 12 30 96 99 100 63 4 1 3 9 88 41 89 58 100 42 85 86 75 100 100 100 100 100 100 100 100 100 100 100 62 100
6 4 61 4 91 4 47 28 4 40 36 10 5 5 10 11 18 96 100 100 88 2 54 100 100 98 100 39 45 86 99 100 96 81 2 100 100 100 100 100 100 100 100 100 100 98 100
5 5 2 30 10 85 1 92 99 50 5 5 45 22 16 27 6 83 100 9 13 34 96 100 100 100 100 99 59 64 100 100 100 85 13 15 99 100 100 100 100 100 100 100 93 100 100
5 5 2 87 5 0 8 90 98 14 10 63 100 36 6 100 8 83 97 100 9 23 81 21 94 100 100 97 5 5 100 100 100 100 54 18 21 97 100 98 100 100 100 95 100 100 100
5 5 6 14 48 3 3 61 100 100 24 19 62 90 75 4 5 30 76 4 8 33 5 4 99 100 54 13 2 1 84 100 100 100 97 100 65 12 100 100 100 100 99 43 100 100 100
5 5 12 87 37 74 3 6 100 52 93 3 15 20 12 4 5 1 2 5 2 5 5 26 67 97 11 66 41 14 0 100 100 100 100 99 49 5 65 100 100 100 98 99 100 100 100
5 5 5 18 100 100 2 4 4 100 97 45 8 4 4 0 0 0 2 4 53 73 97 33 78 34 94 5 5 13 80 100 100 100 100 92 43 27 0 93 100 100 100 100 100 100 100
5 5 5 78 100 100 50 5 2 95 100 100 67 32 0 0 0 4 5 86 81 45 14 5 4 5 60 3 12 22 100 100 95 100 100 97 59 66 5 4 100 100 100 100 100 100 100
2 3 5 84 100 69 0 2 0 1 83 100 99 90 6 0 4 78 70 64 10 40 100 54 6 8 11 10 100 100 100 100 100 100 66 80 52 93 16 14 98 70 100 100 97 100 100
3 5 7 56 100 100 60 1 3 2 1 49 100 99 10 0 36 7 58 87 100 100 100 100 99 100 92 97 100 100 100 100 100 100 100 91 71 13 86 31 91 98 81 100 100 100 100
1 5 5 0 100 100 100 81 6 0 0 0 100 100 4 5 6 31 3 58 39 96 100 100 100 100 100 100 97 100 100 100 100 77 88 100 81 95 100 99 99 94 25 98 100 100 100
5 0 4 3 94 100 100 100 98 2 0 0 75 100 6 3 92 69 82 43 99 100 100 100 98 100 100 100 100 99 85 98 100 96 57 96 100 100 100 100 84 62 76 12 100 100 100
8 2 2 0 22 100 98 100 93 3 0 0 29 98 16 0 78 15 100 99 93 72 100 100 100 100 100 100 100 100 100 100 78 71 100 100 94 100 100 100 100 100 83 89 77 100 100
9 0 0 0 0 75 40 64 31 35 1 0 0 2 0 0 18 100 74 100 20 99 100 98 100 100 100 100 100 100 100 89 11 97 100 100 100 100 100 100 100 99 99 100 52 99 100
7 5 0 0 0 63 12 5 2 5 4 0 0 0 0 0 2 89 98 88 99 82 86 100 89 100 100 100 100 100 100 98 100 100 100 100 100 100 100 100 100 66 62 70 97 79 100
5 6 0 0 0 6 0 3 6 74 19 0 37 0 0 0 4 52 23 100 93 18 81 100 97 100 100 100 100 100 100 99 100 100 100 100 100 100 100 99 97 97 99 98 89 88 97
3 2 50 64 0 0 0 1 28 75 83 0 1 4 0 0 0 20 54 46 99 98 91 47 100 99 100 100 100 100 100 100 100 100 100 100 100 100 100 100 100 94 100 100 71 45 5
8 0 98 98 10 0 1 0 5 7 4 0 5 98 0 0 31 80 30 5 2 9 10 9 49 99 99 24 84 49 100 95 57 99 100 100 100 100 100 100 94 100 100 98 29 23 44
0 4 23 100 100 0 0 0 0 0 16 88 98 5 0 5 65 61 4 6 2 4 5 5 31 9 6 92 32 74 11 37 8 100 91 100 100 100 55 99 100 100 100 100 100 100 100
0 13 96 100 100 0 4 0 0 8 34 99 41 76 16 92 11 86 22 6 25 0 2 0 3 5 4 5 4 5 33 29 7 100 100 100 100 100 100 100 100 100 100 100 100 100 100
0 1 97 100 65 12 9 0 0 0 1 3 3 99 98 95 100 12 54 63 62 68 3 0 2 5 70 89 53 5 8 9 59 70 100 100 100 100 100 100 100 100 82 100 100 99 100
0 0 3 5 5 5 5 5 2 0 2 3 16 30 91 100 32 24 80 74 5 70 5 8 4 4 5 79 36 62 5 5 19 5 5 100 100 100 100 100 100 99 39 100 85 5 50
5 4 3 5 5 5 7 5 5 4 3 5 5 22 99 70 87 87 80 87 100 15 12 5 28 46 5 5 5 5 5 13 40 5 5 16 27 22 97 100 100 100 100 34 32 90 100
5 5 5 5 7 5 5 5 5 5 5 5 6 77 92 84 98 100 90 60 44 92 91 72 5 7 42 39 7 5 12 39 40 6 8 21 70 76 46 5 43 78 12 42 87 91 100
5 5 5 5 5 81 5 5 5 5 5 6 5 16 93 90 78 68 100 100 51 88 26 83 5 5 5 8 84 91 52 92 75 14 25 56 100 100 100 97 100 100 99 99 95 100 99
5 5 9 92 5 20 5 5 23 47 69 5 17 5 64 52 66 95 89 100 57 99 57 14 81 8 5 5 58 92 100 99 99 87 17 32 69 79 68 100 100 100 100 100 100 100 100
20 5 5 26 16 5 5 5 5 81 92 19 7 5 58 100 46 62 69 100 100 100 100 100 76 70 52 68 60 58 92 100 96 100 40 51 81 91 100 100 76 98 100 100 83 100 100
5 9 93 5 5 5 11 17 5 7 96 85 5 34 69 71 39 5 13 100 97 100 100 100 100 100 94 49 63 99 7 95 79 100 99 93 92 100 99 100 79 93 98 100 100 100 100
7 5 5 5 5 5 5 5 5 5 74 67 40 5 78 98 31 22 100 100 100 100 100 100 100 100 100 99 31 47 7 5 45 99 50 64 62 85 12 98 100 100 100 99 99 100 100

GFSGBSN_prec_cloud_063.txt.gz
Cloud_Cover
0 5 43 85 100 1 0 100 100 96 94 5 71 46 22 5 22 4 44 100 100 100 97 51 0 5 82 35 3 98 100 100 100 100 5 40 100 100 100 100 100 100 100 100 100 100 92
1 5 65 100 20 47 63 42 100 89 14 30 27 100 19 63 100 21 5 100 87 99 79 88 48 13 91 66 94 100 87 100 100 100 30 40 100 100 100 100 100 100 100 100 100 100 100
5 5 6 100 96 24 26 3 100 100 19 63 32 100 51 5 2 0 5 82 5 17 60 100 100 26 99 99 65 100 58 100 100 100 99 90 100 100 100 100 100 100 100 100 100 100 100
5 5 13 100 100 66 74 0 96 100 100 98 87 98 73 1 0 0 0 0 0 4 4 59 100 96 98 99 100 100 100 89 100 100 100 100 100 100 100 100 100 100 100 100 99 85 100
5 5 15 100 100 100 100 1 0 100 100 100 96 50 9 0 1 0 0 0 0 2 0 3 85 99 87 99 99 100 100 95 100 100 100 100 100 100 100 100 100 100 100 35 100 61 100
5 3 0 100 100 100 3 0 0 12 100 97 100 69 0 0 3 2 4 0 0 0 1 17 45 98 36 5 52 100 4 100 100 100 100 100 100 100 100 100 100 100 100 85 100 100 100
5 5 1 84 100 51 16 2 0 47 76 100 100 100 2 0 0 30 20 4 2 4 9 5 4 7 99 34 2 100 2 100 100 100 100 100 92 34 100 100 100 100 100 100 100 100 100
4 5 0 69 100 96 100 100 15 4 4 98 100 100 96 0 2 15 10 37 72 27 29 0 5 7 10 3 0 83 3 68 100 100 100 100 70 100 69 100 100 100 100 100 99 99 98
0 1 2 43 100 100 100 100 100 84 4 10 99 100 100 0 0 0 45 100 100 99 100 100 36 9 11 8 83 54 18 100 100 100 100 100 92 90 57 67 100 100 100 100 100 94 7
0 7 4 30 11 57 100 100 100 100 1 0 1 100 97 4 3 3 4 100 96 98 100 100 100 87 85 97 93 49 6 78 100 100 100 100 100 99 25 26 81 100 100 100 86 100 88
1 0 0 3 0 6 100 100 99 86 0 0 28 100 62 30 19 84 3 5 98 98 100 60 100 100 100 100 100 100 100 75 61 100 100 86 97 29 99 76 36 11 100 100 100 100 100
5 0 1 0 0 12 100 81 15 0 1 0 10 100 96 0 50 100 73 5 62 95 100 100 100 100 100 100 100 100 100 100 100 100 100 100 100 38 86 9 7 91 66 83 100 100 100
0 2 4 1 0 12 100 17 27 0 6 0 0 81 61 0 21 77 97 38 12 43 83 100 100 100 100 100 100 100 100 100 91 95 100 100 100 100 98 78 78 99 80 83 100 99 100
5 5 5 4 0 0 100 20 35 0 0 0 0 0 5 0 0 31 39 52 24 66 90 100 100 100 100 100 100 100 100 100 100 100 100 100 100 100 98 73 100 98 97 88 29 56 32
0 5 4 3 0 0 76 60 1 0 0 0 0 0 2 0 4 9 75 18 80 60 58 98 100 100 100 100 100 100 100 72 64 81 65 100 100 100 100 100 100 97 93 66 68 6 25
0 12 0 0 0 0 63 37 5 0 0 0 5 1 0 5 30 1 9 38 81 10 16 56 59 34 99 99 96 59 77 79 9 28 83 27 97 100 100 100 100 76 100 90 98 84 64
0 1 2 0 1 0 13 0 1 5 0 0 1 3 0 0 5 89 7 11 83 5 14 94 83 100 100 87 93 91 17 21 6 57 78 88 47 100 100 100 100 100 91 39 73 40 79
0 5 3 31 24 0 6 0 0 1 0 1 0 33 0 5 29 69 5 5 12 5 5 27 40 100 100 100 100 70 98 81 100 100 72 100 86 95 100 100 100 100 100 61 89 58 36
0 15 6 23 98 0 0 0 0 0 0 53 39 0 3 5 98 56 5 5 5 5 4 5 5 37 100 100 100 100 14 59 100 99 100 100 100 100 100 100 96 100 100 100 96 95 99
4 0 1 0 0 0 0 0 5 0 0 0 27 17 5 100 74 100 50 24 34 5 1 0 0 3 43 92 100 86 100 59 38 89 100 100 100 100 100 100 82 100 100 100 100 100 100
0 1 0 0 1 4 1 0 1 0 0 0 5 16 89 86 22 12 76 94 66 54 1 4 5 5 28 18 4 6 32 10 89 5 29 99 98 91 72 89 69 76 100 100 100 100 98
1 0 0 0 0 1 4 0 5 0 0 0 18 33 11 92 23 6 80 69 67 63 5 5 5 5 5 24 7 5 3 1 11 50 81 100 100 100 100 100 76 94 100 100 100 100 100
3 1 0 1 5 3 0 0 1 1 0 0 2 5 94 14 100 57 98 73 89 93 9 5 5 5 5 87 58 50 5 6 5 5 5 96 100 100 100 100 100 100 97 93 95 95 100
5 1 0 5 5 5 0 0 3 5 4 4 4 10 14 11 39 75 96 100 100 100 88 99 5 5 5 18 62 100 35 10 5 5 3 5 34 100 100 100 96 96 55 100 24 5 100
5 4 2 5 5 5 0 3 5 5 5 5 5 4 21 31 5 10 100 100 100 100 81 58 8 5 5 5 5 5 79 100 42 10 33 48 5 21 15 61 100 98 100 100 100 96 84
5 5 2 5 5 5 0 5 1 5 5 5 5 5 12 69 44 5 63 38 98 100 100 100 99 99 14 5 5 16 10 53 75 100 63 43 80 20 11 35 75 100 41 61 98 29 18
5 5 5 5 5 5 4 7 0 0 5 8 5 5 8 85 14 10 27 92 93 100 100 100 97 99 100 89 87 19 37 76 66 82 36 82 100 76 92 98 97 93 26 94 100 100 100
39 6 59 5 5 5 3 2 6 5 7 5 5 61 57 28 5 36 34 22 21 97 100 100 100 97 89 98 99 91 64 58 74 55 91 84 99 100 100 100 100 98 100 100 78 100 100
7 5 15 5 5 5 2 3 5 22 24 22 81 36 62 97 34 100 91 98 75 96 100 100 100 100 98 100 93 92 67 46 87 73 73 54 20 82 11 95 100 100 100 100 100 100 100

GFSGBSN_prec_cloud_066.txt.gz
Cloud_Cover
4 5 95 100 100 64 100 11 97 74 100 100 59 100 96 100 18 90 0 4 97 100 33 95 96 11 3 3 19 18 100 100 100 100 70 78 4 40 43 100 100 100 100 100 100 100 100
0 39 100 100 95 70 100 75 10 100 100 100 100 100 89 20 3 0 0 5 13 57 4 29 81 5 5 27 6 23 100 100 100 100 100 86 3 16 13 100 100 100 100 100 100 100 100
0 14 61 100 100 100 100 100 2 89 100 100 100 58 6 11 0 0 3 4 0 0 0 2 100 100 5 5 50 2 100 100 100 100 100 100 62 0 0 100 100 100 100 100 100 100 100
0 39 0 100 100 100 99 80 2 19 100 100 100 92 39 0 0 0 1 5 0 0 0 5 100 99 48 22 5 96 100 100 100 100 100 100 100 9 1 100 100 100 100 100 100 100 100
1 3 6 74 91 70 100 18 1 6 56 100 98 100 96 0 0 5 5 94 97 0 0 2 100 64 78 24 81 100 100 94 100 100 100 100 100 58 0 92 100 100 100 100 100 100 100
5 0 1 79 100 88 100 100 100 92 25 97 100 100 99 0 0 4 13 100 100 21 1 3 3 22 6 86 61 100 100 79 100 100 100 100 100 72 4 88 100 100 100 100 100 100 100
0 3 0 78 88 100 100 100 100 100 94 93 74 100 100 100 0 0 28 82 100 61 99 3 2 5 6 5 14 100 100 100 100 100 100 100 100 93 4 60 100 100 100 100 100 100 100
0 5 0 10 6 94 93 100 100 100 100 32 99 100 100 21 0 0 34 82 100 95 100 43 3 5 5 2 3 47 100 41 100 100 100 100 70 100 5 100 100 100 100 100 100 100 100
12 1 0 0 5 51 99 100 47 100 100 12 1 100 100 10 0 0 2 5 22 74 98 100 55 5 5 5 64 92 98 100 100 100 100 100 94 100 72 33 100 100 100 100 100 100 100
0 3 2 1 2 13 66 11 38 43 66 5 0 58 100 22 2 5 4 5 5 42 99 100 100 90 69 88 99 100 79 66 100 100 100 100 100 100 100 13 94 100 100 100 100 100 100
4 12 6 0 0 92 51 92 73 1 20 0 0 45 99 46 15 91 41 5 36 62 100 100 100 100 100 100 79 93 81 99 79 100 100 100 100 100 100 100 37 100 100 100 100 100 100
5 5 9 0 0 1 6 100 15 0 2 0 1 83 67 0 15 69 100 24 95 69 81 100 100 100 100 98 100 100 100 100 100 100 100 100 100 100 100 100 99 96 100 100 100 83 92
5 5 10 0 0 2 17 100 49 0 0 0 0 18 89 0 2 93 92 65 35 67 81 100 100 100 100 100 100 100 100 100 100 100 100 100 100 97 100 84 97 65 100 100 100 100 34
5 3 3 0 0 0 13 55 1 0 0 0 0 0 0 0 0 67 60 55 14 80 100 100 100 100 100 100 100 100 100 100 100 100 100 100 100 85 98 99 89 80 10 23 75 100 100
5 0 0 0 0 0 4 6 0 0 0 0 0 0 0 0 0 35 68 22 5 5 21 71 100 93 100 100 100 100 100 37 100 100 100 86 88 100 94 90 17 90 33 54 100 70 100
5 0 0 2 0 0 0 0 0 0 0 0 0 0 0 0 0 24 4 55 60 5 5 46 79 89 99 100 100 60 78 41 33 78 100 98 94 100 100 99 96 87 89 78 82 17 60
17 0 6 4 0 0 0 0 0 0 0 0 0 0 0 3 0 1 4 9 5 5 3 5 31 52 7 11 33 95 31 7 9 11 4 5 36 88 96 100 100 100 95 59 16 5 5
5 5 9 3 0 0 0 0 0 0 0 2 0 0 5 5 9 9 2 4 2 5 5 5 15 100 87 54 90 5 5 5 5 5 5 5 54 100 100 100 100 100 66 26 80 5 18
5 5 5 4 3 0 0 0 0 0 1 0 48 2 29 18 100 8 4 2 4 4 5 5 16 96 100 12 100 6 5 43 100 100 99 100 100 100 100 98 100 100 41 5 5 84 5
5 5 5 5 0 0 0 0 0 0 0 0 19 7 40 100 100 100 73 20 4 2 0 5 4 58 100 94 4 36 52 43 98 98 100 95 92 99 100 100 77 94 99 94 100 33 98
4 5 3 5 0 0 0 0 0 0 0 0 3 5 15 33 33 100 88 100 89 17 0 5 5 5 15 89 100 100 92 8 31 6 59 100 100 100 100 74 99 100 100 100 100 100 85
5 5 5 4 5 2 0 0 0 0 0 0 4 5 5 5 6 18 76 100 98 60 6 5 5 5 5 5 32 5 64 72 7 49 99 100 100 49 100 100 100 100 100 100 100 100 100
37 5 5 5 4 2 1 0 0 0 0 0 0 5 51 5 18 70 98 84 99 100 34 45 5 5 5 5 5 5 5 7 2 4 5 21 87 100 89 92 92 97 100 100 100 100 100
5 5 5 5 0 5 0 0 0 0 0 0 2 5 5 5 5 14 76 100 100 100 74 52 29 5 5 5 5 5 5 39 55 22 6 4 5 5 9 85 58 44 87 100 100 85 100
5 5 5 5 0 4 0 3 10 5 5 3 1 0 5 5 5 5 5 77 100 100 99 100 98 8 5 6 17 24 33 33 73 100 82 20 5 5 10 29 92 100 77 9 29 22 58
14 96 23 4 5 5 3 5 0 0 5 5 5 4 4 25 40 5 5 24 67 100 100 100 100 100 88 88 68 37 53 22 37 31 50 60 52 5 9 9 20 11 5 5 16 63 5
83 100 23 5 5 5 5 48 6 16 5 5 5 5 5 5 4 5 6 14 58 100 100 100 100 100 100 100 90 36 17 26 92 91 100 96 99 63 38 54 65 89 7 18 21 63 33
100 86 5 5 5 5 5 5 5 5 46 14 5 32 35 60 33 2 3 7 95 78 100 100 100 100 100 100 100 100 100 64 5 23 93 100 83 87 53 87 96 67 8 51 32 14 84
100 14 5 5 17 5 5 5 16 9 48 81 100 100 100 100 28 5 5 5 81 81 96 100 100 100 100 100 100 100 100 100 99 64 64 60 100 100 65 36 89 98 90 52 68 100 100

GFSGBSN_prec_cloud_069.txt.gz
Cloud_Cover
97 68 62 1 100 100 100 100 9 79 58 100 100 100 99 100 73 2 0 2 5 12 59 27 5 96 100 7 1 20 100 100 100 100 100 100 100 4 83 45 85 100 100 100 100 100 100
47 96 33 72 100 100 64 4 42 3 89 14 100 100 91 26 15 0 4 5 61 0 0 46 36 4 20 30 0 4 100 100 100 100 100 100 100 1 2 6 13 100 100 100 100 100 100
38 13 6 89 2 100 100 98 20 9 20 100 100 100 98 10 0 0 3 56 97 2 0 4 5 10 11 21 5 1 73 100 100 100 100 100 100 25 0 5 3 14 100 100 100 100 100
7 24 3 2 100 21 66 100 100 92 23 31 100 100 100 22 0 0 5 69 10 5 0 5 78 55 35 18 0 5 26 100 100 100 100 100 100 62 5 5 2 87 100 100 100 100 100
9 40 14 3 3 100 87 100 100 91 100 11 84 100 100 21 0 0 5 66 6 5 3 0 2 23 66 5 4 5 99 100 100 100 100 100 100 71 6 4 1 81 100 100 100 100 100
5 66 7 8 10 54 100 100 100 100 95 100 16 100 100 100 2 0 8 16 5 61 28 2 5 12 5 8 6 61 99 100 100 100 100 100 100 100 51 4 32 1 90 100 100 100 100
5 44 5 10 3 2 100 100 100 100 100 100 0 6 100 100 16 0 4 15 31 40 6 11 4 4 5 23 70 100 100 100 100 100 100 100 100 40 37 4 1 0 74 100 100 100 100
6 100 15 86 5 33 16 19 42 100 100 100 49 2 100 100 13 1 2 7 68 35 59 84 4 5 4 4 100 99 98 94 99 100 100 100 100 99 100 100 43 5 100 100 100 100 100
63 100 90 40 19 8 48 78 37 100 100 100 63 14 100 100 9 0 0 5 5 82 81 77 77 5 5 4 89 100 38 72 97 100 100 100 100 100 21 64 71 5 100 100 100 100 100
95 100 92 35 5 8 84 1 100 100 100 100 1 18 100 100 12 5 5 5 5 5 92 100 87 25 42 6 20 96 100 94 99 100 100 100 100 100 7 5 100 8 73 100 100 100 100
100 100 98 59 5 27 36 0 100 100 100 96 0 56 100 88 7 92 56 5 10 18 87 100 99 96 64 85 14 91 54 100 100 100 100 100 100 92 46 28 64 73 6 100 100 100 100
100 100 100 100 47 5 8 33 8 30 93 6 0 100 93 11 23 82 100 86 91 51 69 100 100 100 100 92 81 14 100 86 93 100 100 100 100 100 78 6 39 97 93 100 100 100 100
58 100 47 100 5 5 5 54 29 11 23 0 1 28 96 0 4 95 100 85 17 62 69 100 100 96 100 100 100 100 93 100 100 100 100 100 100 55 12 48 90 100 96 98 100 100 100
11 100 25 100 19 5 10 6 0 0 0 0 0 0 9 0 18 98 100 54 7 97 45 83 100 100 100 100 100 100 100 100 100 100 100 100 100 100 72 5 47 89 83 15 66 100 100
78 100 57 100 26 5 75 14 0 0 0 0 0 0 2 0 44 95 72 10 4 5 16 52 68 99 100 100 100 100 100 100 26 98 100 100 100 100 92 15 88 29 70 82 5 100 100
6 100 7 100 41 5 19 6 0 0 0 0 0 0 6 4 21 97 11 27 5 5 5 60 8 61 95 96 100 97 94 96 100 87 100 100 100 100 100 100 14 23 43 58 5 18 90
8 100 10 96 52 6 16 18 2 0 0 0 0 0 10 71 52 68 5 18 4 5 5 5 5 88 61 17 32 20 68 19 100 44 100 100 100 100 100 79 20 80 38 48 58 6 17
25 100 45 100 18 5 23 14 0 0 0 4 0 0 5 33 32 13 2 5 5 5 5 16 78 5 44 21 18 17 19 19 54 24 100 100 100 100 100 100 82 100 75 83 10 5 11
100 98 100 100 13 7 5 5 5 0 0 0 25 3 5 5 7 5 5 2 1 5 5 5 15 5 81 68 99 30 5 6 96 94 5 50 56 91 100 92 99 100 100 95 92 61 5
100 99 86 100 9 5 5 5 3 0 0 0 0 6 4 5 4 4 5 5 5 2 5 4 3 5 22 9 100 95 38 63 60 13 78 23 37 20 17 5 42 99 100 100 100 85 15
100 100 100 100 67 5 6 4 3 0 0 0 7 30 18 17 37 35 5 5 5 5 5 5 5 5 5 86 69 8 5 37 88 100 100 100 100 100 100 59 64 100 93 100 99 98 53
100 100 100 63 5 5 5 3 5 1 0 3 4 2 4 5 5 93 74 32 5 27 5 5 5 5 5 16 65 100 72 5 5 20 73 100 100 94 100 100 100 100 98 31 100 96 100
100 100 95 61 5 5 5 5 5 0 1 0 0 4 5 5 12 75 68 90 10 5 50 5 5 5 5 5 26 60 13 3 38 4 5 45 68 99 100 56 100 100 100 100 79 99 100
77 100 59 5 5 5 2 5 7 4 5 4 3 2 5 1 5 11 5 34 96 86 29 5 5 5 5 65 42 5 30 51 5 5 5 4 10 6 48 72 99 100 100 100 100 89 100
93 100 90 5 5 5 6 5 58 5 5 5 3 2 5 4 5 4 5 7 95 57 48 93 96 41 45 49 43 46 10 16 5 5 15 5 5 5 5 7 8 24 100 100 98 100 100
100 60 45 22 5 1 88 8 66 19 5 5 5 4 4 5 3 0 5 5 43 100 82 97 100 100 36 100 99 78 61 68 53 38 33 60 8 21 15 14 16 4 5 8 97 100 100
100 92 21 32 5 5 10 100 99 28 7 5 5 12 14 5 5 1 2 0 4 52 100 100 100 100 100 100 100 98 34 5 33 64 66 100 100 75 52 50 6 5 3 5 5 26 28
100 89 97 55 85 22 43 100 84 38 5 16 24 100 100 50 5 4 3 0 3 35 97 100 100 99 100 100 100 100 71 10 41 5 15 64 83 96 100 99 41 24 5 4 5 5 5
100 100 100 77 6 100 68 100 62 10 10 5 5 50 99 100 49 5 5 5 5 5 67 69 96 100 100 100 100 100 100 100 100 94 28 13 6 11 24 14 44 5 29 15 5 5 83

GFSGBSN_prec_cloud_072.txt.gz
Cloud_Cover
100 100 75 6 100 100 79 67 1 0 6 100 95 31 40 85 47 0 27 0 0 0 0 0 78 70 5 5 5 27 99 100 100 100 100 100 100 100 7 77 1 0 100 100 100 100 100
92 100 90 20 99 96 100 25 100 60 1 28 100 98 100 100 15 8 0 0 0 0 0 0 0 10 12 4 2 38 99 100 100 100 100 100 100 99 29 3 5 4 7 100 100 100 100
100 100 94 5 7 100 49 40 50 100 50 30 6 100 100 60 18 3 0 3 11 5 0 0 0 0 28 3 0 4 69 100 100 100 100 100 100 100 16 23 18 89 46 100 100 100 100
100 100 100 5 13 23 100 33 100 99 33 100 76 89 100 70 5 0 2 11 3 2 5 1 4 2 5 5 3 5 32 100 100 100 100 100 100 100 100 44 3 8 31 82 100 100 100
100 100 100 5 29 18 53 100 100 39 100 100 100 69 100 100 46 2 1 5 7 5 5 8 0 0 2 6 46 5 1 60 100 100 100 100 100 90 100 100 28 38 38 8 89 100 100
100 100 100 6 37 18 17 100 94 100 100 100 100 100 100 100 100 4 2 5 24 5 40 12 3 0 5 5 5 5 5 82 100 100 100 100 100 100 95 100 36 13 62 15 100 100 100
100 100 100 53 16 5 7 100 100 100 100 100 100 100 100 100 100 8 1 5 14 50 46 10 4 4 4 5 4 5 96 100 99 100 100 100 100 78 75 100 29 5 5 7 99 100 100
100 100 100 95 100 11 32 82 97 100 100 100 100 100 100 100 100 11 2 5 7 21 43 50 4 5 4 10 43 70 100 100 100 100 100 100 100 100 100 100 100 7 5 4 5 99 100
100 100 100 100 97 5 17 58 100 100 100 100 100 100 100 100 86 2 4 2 5 79 43 25 11 5 5 63 64 100 100 100 100 100 100 100 100 99 100 72 100 11 1 0 4 99 100
100 100 100 100 20 37 55 39 100 100 100 100 100 60 100 100 24 5 5 4 5 29 88 95 81 36 30 7 99 64 98 100 96 83 100 100 100 100 100 98 100 86 1 3 5 5 100
100 100 100 100 89 14 100 22 100 100 100 100 99 100 100 100 4 79 60 6 8 7 96 100 80 99 32 65 7 82 46 46 38 100 100 100 100 100 99 100 100 100 10 5 5 77 100
100 100 100 100 79 18 100 32 100 100 100 29 40 100 97 10 26 70 100 100 85 22 57 100 100 99 75 52 67 5 47 74 99 92 100 100 100 100 100 89 100 100 93 31 98 99 100
100 100 100 100 95 5 100 90 99 100 50 5 35 8 62 0 53 100 100 93 14 32 56 100 100 100 87 100 91 98 43 8 66 100 100 100 100 100 100 100 64 73 73 91 99 98 100
100 100 100 100 100 17 100 100 29 65 13 5 0 0 5 0 100 100 100 54 36 30 82 100 100 100 100 100 100 100 100 100 100 100 100 100 100 100 100 100 96 75 92 21 13 59 20
100 100 78 100 100 11 97 84 70 46 5 5 0 0 34 5 100 100 71 10 5 5 5 48 93 98 100 100 100 100 100 100 100 100 100 100 100 100 100 100 70 54 69 46 5 5 5
100 100 100 100 96 50 29 98 100 77 5 5 0 0 5 100 100 100 50 27 5 5 5 56 39 54 86 100 93 100 99 97 100 100 100 100 100 100 100 100 99 33 92 50 69 12 5
100 100 100 100 68 100 96 100 100 31 5 5 0 2 12 100 97 77 5 24 5 5 5 5 15 61 15 70 11 5 12 63 13 100 100 100 100 100 97 95 100 96 24 6 41 5 5
100 100 100 100 100 100 88 100 100 73 7 5 0 0 4 91 78 31 5 5 5 5 5 38 5 5 33 5 5 5 5 5 5 80 99 93 100 100 100 100 68 52 15 5 5 7 12
100 100 100 100 100 54 52 100 46 93 18 5 0 2 4 76 5 5 5 5 5 5 5 44 15 5 44 92 34 5 5 85 49 19 85 100 100 100 100 100 94 28 48 42 41 5 6
100 100 100 100 100 30 36 99 99 58 5 5 0 3 4 5 5 4 5 5 5 5 5 5 5 5 5 5 90 94 12 26 100 100 100 99 99 100 100 100 100 100 100 96 69 82 80
100 100 100 100 100 88 58 76 75 73 9 5 8 13 14 5 5 5 5 5 5 5 5 5 5 5 5 5 1 17 5 27 81 76 75 100 92 41 35 35 64 96 100 100 100 91 65
100 100 100 100 98 93 25 21 100 57 15 6 5 5 4 5 5 5 5 13 5 5 5 5 5 5 5 5 5 5 5 5 5 53 100 100 100 99 100 95 91 92 62 10 69 100 98
100 100 100 100 100 82 5 14 68 73 41 44 26 5 5 5 5 37 34 7 75 5 21 5 5 5 5 5 5 10 76 14 5 5 55 22 97 100 100 100 100 74 100 95 100 100 100
100 100 100 100 100 66 5 5 77 95 66 57 6 5 5 2 5 30 6 5 8 21 30 5 5 17 5 5 50 31 37 46 5 3 2 34 49 79 100 100 64 100 100 99 81 64 50
100 100 100 100 100 97 5 5 20 93 68 44 5 4 5 1 5 1 4 5 50 59 75 5 96 48 49 5 10 58 75 77 5 38 5 5 5 6 31 50 100 100 100 100 100 100 98
100 100 100 100 100 100 68 35 35 89 48 100 4 5 4 5 1 5 5 5 5 18 46 50 80 100 53 70 98 97 6 45 61 47 50 78 78 47 43 9 12 1 58 6 96 100 99
100 100 100 100 100 95 79 100 11 93 63 98 9 16 5 5 4 0 4 1 1 31 51 79 95 66 100 100 78 100 100 13 5 34 14 68 78 99 100 93 59 4 3 0 4 52 97
100 100 100 100 100 5 7 73 14 70 100 100 38 9 10 5 5 5 0 2 4 5 5 78 87 100 100 100 100 100 86 12 8 5 5 20 68 64 94 100 65 90 58 8 4 4 5
100 100 100 100 22 70 6 10 46 52 100 100 80 5 14 54 5 5 5 5 25 48 5 5 68 100 100 100 100 100 100 100 100 90 5 5 5 11 61 51 49 56 96 31 38 52 5

GFSGBSN_prec_cloud_075.txt.gz
Cloud_Cover
100 100 100 67 11 100 5 100 100 100 100 66 9 100 14 0 20 3 0 0 0 0 0 1 0 3 96 100 16 41 78 100 100 100 100 100 100 100 93 4 21 100 70 100 94 82 99
100 100 100 99 47 32 70 23 100 100 100 100 99 88 100 19 12 0 4 0 4 0 0 0 0 0 15 93 5 4 100 100 100 100 100 100 100 100 97 4 5 22 100 100 100 100 100
100 100 100 91 97 92 2 85 40 6 100 100 100 94 60 100 45 9 0 26 2 5 2 2 0 0 2 68 2 3 89 100 100 100 100 100 100 100 8 5 57 57 4 66 100 99 100
100 100 100 74 91 69 73 61 95 100 100 100 100 100 100 93 100 0 4 2 14 5 0 1 0 0 3 66 4 5 91 100 100 100 100 100 100 100 100 5 46 82 31 19 78 100 100
95 100 100 100 99 95 79 44 100 98 100 100 100 100 100 100 100 15 4 1 5 5 2 0 0 0 2 5 4 2 5 88 100 100 100 100 100 100 100 28 66 96 12 52 95 48 100
100 100 100 100 100 100 70 10 100 10 100 100 100 100 100 81 97 31 5 0 5 5 4 0 0 0 4 5 4 0 3 100 100 100 100 100 100 100 100 6 45 56 87 89 83 100 94
100 100 100 100 100 100 84 82 52 100 29 100 100 100 100 100 100 70 3 0 5 5 5 4 4 0 3 5 5 0 5 57 80 100 100 100 100 100 100 15 80 19 31 56 100 31 94
100 100 100 100 100 100 50 48 99 99 79 100 100 100 100 100 100 39 0 1 5 15 8 35 10 5 2 4 5 21 73 59 85 100 96 100 100 100 100 100 100 100 93 33 27 5 88
100 100 100 100 100 100 21 92 97 74 100 100 100 100 100 100 100 1 5 5 5 34 7 49 9 5 5 5 26 100 100 67 100 100 100 100 100 100 21 79 95 100 100 100 31 4 67
100 100 100 100 100 100 44 77 99 100 92 100 100 100 100 100 34 5 5 5 5 5 42 69 79 34 3 15 99 100 100 62 100 100 100 100 100 100 100 80 86 100 100 96 5 4 65
100 100 100 100 100 100 100 11 74 100 77 100 100 100 100 100 5 12 37 5 5 5 52 100 99 36 5 55 67 100 54 41 100 100 100 100 100 100 97 92 100 100 100 100 21 11 5
100 100 100 100 100 100 100 23 85 100 100 100 100 100 98 19 23 66 100 100 12 15 75 100 100 58 41 6 38 86 100 56 57 100 100 100 100 100 95 100 100 100 100 91 77 100 50
100 100 100 100 97 96 100 99 93 100 100 58 73 25 38 0 48 100 100 63 26 33 74 99 100 100 64 77 44 95 100 56 71 100 100 100 100 100 100 89 100 100 99 81 65 87 60
100 100 100 100 73 100 100 100 44 100 93 5 5 28 4 0 100 100 84 41 7 44 95 100 100 100 100 100 91 100 46 62 96 97 100 100 100 100 100 100 100 100 97 100 44 45 5
100 100 100 94 98 100 100 100 98 100 46 18 5 24 10 69 100 100 57 10 4 5 11 99 96 100 100 100 100 100 98 50 98 100 100 100 100 100 100 100 11 95 79 96 74 62 5
100 100 100 100 100 100 100 100 100 88 49 5 5 3 36 100 100 100 57 27 5 5 5 63 100 100 100 72 98 100 100 99 100 100 100 100 100 100 100 74 80 8 91 87 74 98 18
100 100 100 100 100 100 100 100 100 85 22 6 5 5 47 100 100 100 12 50 5 5 5 41 97 100 100 100 77 67 100 98 100 100 100 100 100 100 100 100 100 100 15 65 17 59 28
100 100 100 100 100 100 100 100 92 100 79 10 5 5 50 100 98 86 5 5 5 5 5 40 6 78 76 51 86 5 21 9 55 100 100 100 100 100 100 100 100 99 99 7 6 5 68
100 100 100 100 100 100 100 100 98 100 5 49 13 22 45 100 13 5 5 5 5 5 6 69 5 5 5 33 10 24 15 5 5 56 86 100 100 100 100 100 100 94 100 96 98 100 34
100 100 100 100 100 100 100 100 100 97 5 16 5 5 4 13 5 5 5 5 5 5 5 26 5 5 5 8 64 5 5 5 6 6 60 100 98 91 92 100 100 99 96 15 11 47 50
100 100 100 100 100 100 100 100 100 87 5 5 5 5 5 4 5 5 5 5 5 5 5 5 5 5 5 5 6 38 5 27 31 39 29 57 100 100 100 100 100 94 88 83 26 95 49
100 100 100 100 100 100 100 99 100 40 5 14 54 5 5 5 5 5 5 6 5 5 5 5 5 5 5 5 5 5 5 5 27 70 100 61 34 63 91 47 89 73 98 100 100 100 56
100 100 100 100 100 100 100 100 100 54 6 78 43 5 5 5 5 5 5 16 91 34 39 5 5 5 5 5 5 5 5 5 5 5 12 91 95 98 50 58 28 55 98 72 11 8 6
100 100 100 100 100 100 100 100 100 42 87 100 5 5 4 5 5 5 5 5 64 53 81 25 5 38 5 5 5 5 5 5 6 41 5 5 20 7 89 92 61 100 100 36 99 64 92
100 100 100 100 100 100 100 100 100 91 100 26 8 5 4 100 4 5 6 5 5 8 50 94 50 5 38 5 6 13 5 5 5 13 66 63 5 7 5 8 92 100 84 92 99 100 5
100 100 100 100 100 100 100 100 100 100 100 52 5 3 62 3 5 5 5 4 5 5 5 42 80 5 22 79 86 97 6 5 5 99 80 5 53 72 6 12 5 14 77 100 90 32 100
100 100 100 100 100 100 100 100 96 100 90 45 5 84 4 5 8 42 3 1 1 30 7 15 12 33 21 80 46 93 88 8 27 27 56 84 97 100 100 100 98 7 18 5 5 5 40
100 100 100 100 100 100 100 100 100 100 86 67 98 5 5 5 38 6 1 5 5 5 3 8 25 100 85 95 88 74 79 6 30 39 40 44 56 22 76 98 100 41 57 52 79 50 5
100 100 100 100 100 100 100 100 100 100 85 5 68 5 22 5 58 5 5 5 10 6 9 5 78 100 100 100 99 86 84 98 97 100 68 75 97 74 7 23 58 72 100 100 100 100 98

GFSGBSN_prec_cloud_078.txt.gz
Cloud_Cover
100 100 100 93 100 42 87 84 100 98 66 6 100 100 41 100 85 62 4 0 2 3 0 0 0 0 0 23 97 47 93 5 77 100 100 100 100 100 100 99 100 98 82 65 83 56 61
100 100 100 100 100 100 100 8 99 80 26 89 100 100 100 16 99 35 0 54 4 0 4 0 0 0 0 37 91 22 36 6 98 100 100 100 100 100 87 100 100 100 81 50 11 29 16
95 100 100 100 100 100 71 90 100 73 100 100 100 100 100 98 88 35 5 3 18 3 5 0 0 0 0 0 83 62 5 6 100 100 100 100 100 100 68 51 100 98 100 42 7 75 91
100 100 100 100 100 100 100 100 100 38 94 100 100 100 100 100 93 92 0 16 11 5 28 1 0 0 0 0 68 5 5 76 100 100 100 100 100 90 100 100 100 100 100 98 32 38 90
100 100 100 100 100 100 100 100 94 68 25 79 100 100 100 100 96 100 0 0 4 5 44 5 0 0 4 2 43 4 5 100 100 100 84 99 100 100 100 100 100 100 100 5 86 46 100
100 73 100 100 100 100 100 100 98 55 100 24 100 78 100 100 100 100 2 4 18 5 87 5 0 1 3 3 0 5 64 100 100 100 81 100 100 100 100 81 74 100 98 87 49 89 100
100 100 100 100 100 100 100 100 97 89 77 100 100 100 98 100 100 100 6 2 1 13 70 5 19 1 3 1 0 0 68 100 100 100 100 100 100 71 70 91 100 100 87 100 100 19 100
100 100 100 87 98 100 100 100 88 75 100 100 100 100 100 100 100 75 0 0 5 5 38 55 77 2 0 4 3 22 46 100 100 100 100 100 100 100 95 100 100 59 96 85 100 9 26
100 100 100 99 100 100 100 96 70 100 100 100 100 94 100 100 100 13 4 2 4 5 32 22 71 4 43 6 100 58 57 100 100 100 100 100 100 100 100 98 100 32 57 97 100 100 95
100 100 100 100 100 100 100 100 72 99 100 100 100 100 100 100 40 5 5 5 0 5 36 42 57 17 94 33 72 100 97 100 100 100 100 100 100 100 100 95 100 100 97 100 100 67 15
100 100 100 100 100 100 100 100 18 100 100 100 100 100 100 100 4 14 8 5 0 6 92 100 69 8 5 96 79 100 100 94 100 100 91 100 100 100 50 100 100 100 100 100 100 38 31
100 100 100 100 100 100 100 88 46 100 100 100 100 100 99 16 5 48 31 5 5 32 76 100 100 60 34 32 75 100 100 100 100 100 100 100 100 100 100 100 98 100 100 100 100 99 76
100 100 100 100 100 100 100 79 31 100 100 91 99 36 23 10 19 100 95 10 68 61 54 100 100 92 35 55 79 100 100 94 100 100 100 100 100 100 100 100 99 86 100 100 97 99 38
100 100 100 100 100 100 100 78 17 100 100 35 97 5 5 53 100 100 31 21 46 29 73 99 100 100 97 64 100 100 100 57 100 100 100 100 100 100 77 94 100 74 85 46 42 69 100
100 100 100 100 100 100 100 49 100 100 100 73 66 5 80 96 100 91 28 15 23 5 10 84 100 100 99 100 75 87 95 86 100 100 100 99 96 100 58 81 91 97 62 31 32 83 100
100 100 100 100 100 100 100 90 100 100 100 100 23 10 77 100 100 90 36 27 5 5 63 89 93 53 71 94 100 89 22 19 100 100 100 89 98 100 97 100 78 40 65 79 100 100 94
100 100 100 100 100 100 100 100 100 100 100 100 21 52 96 100 99 79 61 24 5 5 5 100 100 77 30 72 81 68 98 52 100 100 100 100 99 100 73 96 62 42 100 100 94 74 59
100 100 100 100 100 100 100 100 100 100 100 98 21 72 100 100 98 100 5 5 5 5 52 87 100 88 99 71 20 61 91 100 100 100 100 100 100 100 100 61 58 94 17 22 32 74 85
100 100 100 100 100 100 100 100 100 100 98 100 30 94 100 100 86 10 5 5 5 5 56 87 57 73 52 69 47 10 5 30 37 84 100 100 100 100 99 99 89 86 100 79 5 10 34
100 100 100 100 100 100 100 100 100 100 100 100 6 33 97 96 8 19 5 5 5 5 37 6 5 5 5 5 5 13 5 26 5 50 100 100 100 100 45 27 22 20 11 8 5 32 47
100 100 100 100 100 100 100 100 100 100 100 90 60 68 50 42 5 5 5 5 5 5 5 5 5 5 5 5 4 5 5 12 5 48 73 99 100 98 100 100 100 100 100 99 65 96 64
100 100 100 100 100 100 100 100 100 100 100 100 79 94 46 5 48 5 5 5 5 5 5 5 5 5 5 1 0 5 5 5 5 16 28 5 5 63 34 100 100 100 86 100 100 99 54
100 100 100 100 100 100 100 100 100 100 100 97 100 90 83 5 51 5 5 7 74 7 18 5 5 5 5 5 2 4 5 5 5 5 5 6 15 33 31 5 10 46 44 5 5 10 5
100 100 100 100 100 100 100 100 100 100 100 100 100 93 5 8 23 5 5 5 54 49 60 6 5 5 7 5 5 5 5 5 5 9 20 5 37 71 90 12 35 100 85 5 9 60 36
100 100 100 100 100 100 100 100 100 100 100 100 100 35 13 47 5 5 5 5 5 5 12 98 49 9 5 5 47 19 5 9 5 10 20 41 59 42 43 14 48 99 10 40 55 30 66
100 100 100 100 100 100 100 100 100 100 100 100 100 95 75 6 10 0 0 3 5 5 5 13 83 5 5 74 82 61 51 5 5 5 28 56 100 100 87 6 10 64 56 92 81 51 98
100 100 100 100 100 100 100 100 100 100 100 100 100 100 91 32 5 0 0 0 0 5 5 5 12 87 28 39 56 76 87 28 5 5 10 48 71 62 99 100 100 76 71 57 10 40 36
100 100 100 100 100 100 100 100 100 100 100 100 100 91 10 50 4 2 4 0 5 4 87 56 5 70 91 26 28 78 35 67 95 11 5 7 20 29 77 94 100 100 100 96 100 85 28
100 100 100 100 100 100 100 100 100 100 100 100 97 33 37 5 3 5 5 5 5 5 22 8 65 94 100 100 78 85 33 5 5 35 60 50 25 24 5 5 66 100 90 100 100 100 100

GFSGBSN_prec_cloud_081.txt.gz
Cloud_Cover
98 100 54 31 59 52 74 100 100 98 64 100 100 100 100 93 20 69 14 20 4 0 0 5 4 0 2 15 57 100 100 81 27 95 100 100 100 98 100 100 100 100 100 100 100 94 96
100 100 85 100 96 85 76 100 100 100 85 87 100 99 94 100 14 89 1 6 18 0 0 6 5 2 4 58 3 100 98 58 86 100 100 100 95 100 100 100 100 78 100 100 85 98 100
100 100 100 100 100 76 48 100 100 100 88 54 100 100 90 100 84 32 32 22 4 0 5 83 40 5 4 8 1 100 77 94 77 100 100 100 100 100 100 100 100 100 100 100 90 100 100
100 100 100 100 100 73 99 100 100 100 100 63 100 100 100 100 100 15 94 3 59 1 20 98 18 5 5 0 2 100 100 54 71 100 100 100 100 98 100 100 100 100 100 100 100 100 100
100 100 100 100 100 100 100 100 100 100 100 77 100 100 100 100 100 99 75 2 0 5 67 42 3 4 78 1 29 100 15 73 100 100 100 100 100 100 100 100 100 100 100 100 100 100 71
100 100 100 100 99 100 100 100 100 100 100 99 100 100 100 100 100 99 64 10 0 8 41 5 2 21 18 68 6 1 0 100 100 100 100 100 100 100 100 100 53 96 100 100 100 100 100
100 100 100 100 100 100 100 100 100 100 100 100 94 100 100 100 71 100 35 70 70 86 16 7 33 11 5 6 0 5 76 100 92 100 100 100 100 100 12 100 100 100 100 100 100 98 96
100 100 100 100 100 100 100 100 100 100 100 100 91 56 100 100 100 97 57 46 10 5 41 5 5 5 3 5 10 61 100 100 99 100 100 100 100 100 100 100 100 100 96 74 95 93 100
100 100 100 100 100 100 100 100 100 100 100 100 68 66 100 100 100 60 54 4 5 5 94 45 8 47 14 27 60 34 100 84 100 100 100 100 100 100 98 97 86 87 90 100 100 100 100
100 100 100 100 100 100 100 100 100 100 100 100 78 85 76 100 49 46 86 5 1 4 96 93 93 74 80 17 100 85 99 96 91 100 100 100 100 100 100 100 97 100 100 100 100 100 100
100 100 100 100 100 100 100 100 100 100 100 100 100 93 89 61 85 88 64 3 1 8 100 84 92 4 7 49 95 100 100 100 100 100 100 100 100 64 97 100 100 100 96 100 100 100 99
100 100 100 100 100 100 100 100 100 100 100 100 99 94 79 12 48 39 5 1 42 98 86 91 41 46 84 93 82 100 100 100 100 100 100 96 100 100 100 100 100 100 100 100 100 93 86
100 100 100 100 100 100 100 100 100 100 100 100 100 52 96 8 99 54 6 93 93 90 36 88 79 99 51 45 87 100 100 100 96 100 100 100 100 100 100 100 100 99 100 100 95 89 35
100 100 100 100 100 100 100 100 100 100 100 100 100 70 100 24 95 5 69 92 81 38 97 97 100 99 96 54 84 28 87 86 100 100 100 100 100 100 100 100 100 100 100 100 92 36 100
100 100 100 100 100 100 100 100 100 100 100 100 100 100 100 94 100 20 95 100 55 58 55 99 80 93 88 76 52 72 54 99 100 100 100 100 97 71 98 100 100 99 100 82 62 65 56
100 100 100 100 100 100 100 100 100 100 100 100 100 100 100 96 95 43 99 62 32 5 8 55 96 70 62 78 12 68 40 100 97 75 84 100 100 100 99 88 100 100 94 96 96 100 100
100 100 100 100 100 100 100 100 100 100 100 100 100 100 99 100 46 84 100 63 14 5 69 20 93 9 14 27 30 5 78 100 72 71 94 92 98 100 90 100 77 100 100 66 74 100 100
100 100 100 100 100 100 100 100 100 100 100 100 100 100 98 100 96 98 99 30 17 8 5 5 16 65 66 34 68 89 98 100 75 100 96 5 100 100 96 89 66 98 100 94 80 97 100
100 100 100 100 100 100 100 100 100 100 100 100 100 99 100 100 99 86 8 17 44 13 5 42 5 5 5 41 79 41 59 5 100 100 74 100 95 100 84 84 64 24 24 7 100 69 22
100 100 100 100 100 100 100 100 100 100 100 100 100 92 96 100 88 92 52 61 16 5 5 5 5 5 4 5 6 66 23 6 40 99 100 100 92 100 92 66 10 10 5 12 52 63 89
100 100 100 100 100 100 100 100 100 100 100 100 100 82 9 100 78 25 12 26 58 6 5 5 25 17 50 54 5 16 29 6 5 5 63 100 100 100 98 52 44 98 94 27 84 77 72
100 100 100 100 100 100 100 100 100 100 100 100 100 65 19 100 100 18 5 33 100 6 8 6 31 5 5 81 24 71 25 92 50 7 61 52 98 99 100 100 100 98 56 58 87 100 37
100 100 100 100 100 100 100 100 100 100 100 100 100 98 68 67 86 41 9 78 69 22 13 4 2 5 7 5 5 1 5 5 25 67 46 61 64 63 81 94 100 100 100 100 100 100 100
100 100 100 100 100 100 100 100 100 100 100 100 100 100 92 19 93 100 7 5 5 5 72 7 5 16 5 5 5 2 3 2 2 4 14 34 13 33 47 5 4 36 100 89 80 100 66
100 100 100 100 100 100 100 100 100 99 100 92 100 100 97 70 100 91 5 5 5 8 10 6 21 5 5 5 35 35 29 6 4 0 0 5 48 88 31 80 8 5 5 5 5 4 0
100 100 100 100 100 100 100 100 100 100 100 100 100 100 100 100 84 70 5 5 5 35 44 5 5 5 5 15 49 87 84 97 85 13 3 5 5 62 96 91 52 64 5 5 5 6 7
100 100 100 100 100 100 100 100 100 100 100 100 100 100 100 75 52 8 5 2 0 4 47 6 5 8 5 35 100 85 98 16 47 51 60 51 99 96 98 100 98 100 31 5 5 9 99
100 100 100 100 100 100 100 100 100 100 100 100 100 100 81 100 51 5 5 3 0 0 4 4 28 48 12 66 96 92 91 97 9 14 92 82 84 88 90 100 96 100 98 89 74 54 57
100 100 100 100 100 100 100 100 100 100 100 100 100 21 100 100 75 7 5 3 0 1 3 4 63 99 98 58 17 43 56 20 5 90 5 43 100 52 51 92 22 67 100 100 85 100 100

GFSGBSN_prec_cloud_084.txt.gz
Cloud_Cover
100 100 100 100 79 91 100 100 100 100 100 64 100 100 93 70 97 5 60 67 3 0 0 0 5 5 3 21 88 22 99 100 100 98 72 100 100 100 100 84 100 98 100 100 100 100 98
100 100 100 100 81 100 92 100 100 100 100 100 100 99 98 91 100 18 9 3 9 0 0 4 21 5 4 70 5 3 99 100 100 60 100 100 100 100 100 100 100 94 100 96 100 100 100
100 100 100 100 88 89 79 100 100 100 100 100 100 96 99 100 100 100 5 11 8 5 1 5 5 0 2 53 3 5 100 100 85 96 99 100 100 100 100 100 100 100 100 91 100 100 99
100 100 100 100 100 100 100 100 100 100 100 100 100 89 97 100 100 100 1 0 5 4 5 5 0 0 5 2 0 47 100 100 100 100 100 100 100 100 100 100 100 100 100 100 100 100 100
100 100 100 100 100 96 100 100 100 100 100 100 100 48 100 100 98 100 16 0 1 2 5 4 0 17 75 4 45 16 100 47 100 100 100 100 100 100 100 95 100 100 100 97 100 100 100
100 100 100 100 100 100 100 100 100 100 100 100 100 82 100 100 100 100 98 0 0 5 0 3 8 30 21 81 4 96 37 13 100 100 100 100 100 100 100 95 100 96 100 98 100 100 100
100 100 100 100 100 100 100 100 100 100 100 100 100 100 100 100 85 95 14 32 27 59 4 26 29 6 88 17 2 9 8 86 100 100 100 100 100 100 95 3 100 100 100 100 100 100 100
100 100 100 100 100 100 100 100 100 100 100 100 100 100 100 100 100 81 74 66 86 5 74 5 5 13 3 70 14 29 2 100 100 100 100 100 100 100 98 91 100 100 100 100 100 100 100
100 100 100 100 100 100 100 100 100 100 100 100 100 100 100 100 93 12 45 60 2 1 94 99 31 13 3 56 90 35 46 100 100 100 100 100 100 100 65 40 100 100 100 100 100 100 100
100 100 100 100 100 100 100 100 100 100 100 100 100 100 100 100 62 52 84 3 0 2 86 75 100 35 48 72 96 42 54 100 100 100 100 100 100 100 96 66 94 100 100 100 100 100 100
100 100 100 100 100 100 100 100 100 100 100 100 100 100 100 100 97 100 86 0 0 8 49 99 69 2 11 72 85 97 84 100 100 100 100 100 100 100 100 100 99 100 100 100 100 100 100
100 100 100 100 100 100 100 100 100 100 100 100 100 100 100 100 89 64 4 0 30 98 75 60 45 77 99 30 99 100 100 100 100 100 96 100 98 28 7 91 92 100 100 86 100 100 62
100 100 100 100 100 100 100 100 100 100 100 100 100 100 100 100 88 5 36 93 100 67 16 88 52 98 35 82 99 100 100 100 100 100 100 83 99 20 9 32 81 92 99 75 96 17 42
100 100 100 100 100 100 100 100 100 100 100 100 100 100 100 100 6 5 35 85 63 47 72 46 45 51 59 40 87 9 9 100 18 100 100 72 99 54 15 93 100 100 92 97 92 100 98
100 100 100 100 100 100 100 100 100 100 100 100 100 100 100 100 6 5 49 87 92 40 24 50 48 54 41 4 5 38 6 63 21 53 53 71 84 100 93 85 100 100 100 100 100 100 100
100 100 100 100 100 100 100 100 100 100 100 100 100 100 100 100 40 83 63 56 38 5 48 19 86 53 5 2 4 5 5 93 78 97 6 85 100 100 80 100 100 100 100 100 100 94 80
100 100 100 100 100 100 100 100 100 100 100 100 100 100 100 100 56 96 65 94 5 5 15 63 26 5 4 5 2 5 53 5 5 5 5 76 9 70 100 100 100 100 100 100 100 100 85
100 100 100 100 100 100 100 100 100 100 100 100 100 100 100 100 86 75 58 5 5 5 5 5 5 5 29 4 5 95 98 11 17 6 5 5 58 100 100 35 70 100 100 100 100 100 99
100 100 100 100 100 100 100 100 100 100 100 100 100 100 100 99 74 59 10 5 92 5 8 5 12 6 8 12 79 6 5 5 6 9 12 39 85 71 90 100 34 90 95 100 100 100 100
100 100 100 100 100 100 100 100 100 100 100 100 100 100 100 100 61 64 15 5 5 5 9 5 7 5 5 5 5 60 6 6 68 98 22 29 43 6 41 16 57 53 61 62 84 100 100
100 100 100 100 100 100 100 100 100 100 100 100 100 100 100 91 100 26 33 14 6 5 5 5 5 5 5 5 9 91 57 5 5 11 100 95 79 59 50 17 32 9 31 7 31 100 32
100 100 100 100 100 100 100 100 100 100 100 100 100 100 100 99 100 17 11 5 84 5 5 21 37 2 4 63 14 81 16 6 10 5 5 52 100 100 100 84 14 5 49 25 13 66 68
100 100 100 100 100 100 100 100 100 100 100 100 100 100 100 100 100 5 6 97 100 51 5 86 15 5 5 0 4 3 5 15 66 38 5 5 5 5 9 76 100 100 100 96 14 72 99
100 100 100 100 100 100 100 100 100 100 100 100 100 100 100 100 91 12 70 6 17 5 20 5 5 51 7 1 0 0 4 5 5 28 80 6 20 46 5 5 5 19 78 99 100 100 100
100 100 100 100 100 100 100 100 100 100 100 100 100 100 100 100 100 53 69 5 5 5 5 70 6 4 5 5 4 5 5 5 1 2 3 12 69 100 72 80 4 5 79 92 54 8 1
100 100 100 100 100 100 100 100 100 100 100 100 100 100 100 100 100 57 100 5 5 5 5 5 5 5 5 5 5 28 14 87 24 4 0 2 5 21 40 54 59 92 25 5 5 5 5
100 100 100 100 100 100 100 100 100 100 100 100 100 100 100 100 100 100 100 26 5 6 6 28 5 5 5 10 77 62 69 17 5 5 5 5 5 62 8 78 80 100 100 100 84 56 24
100 100 100 100 100 100 100 100 100 100 100 100 100 100 100 100 100 100 100 37 16 0 5 5 34 46 5 74 100 68 47 11 5 0 8 12 82 100 95 55 34 98 75 100 100 100 100
100 100 100 100 100 100 100 100 100 100 100 100 100 100 100 96 100 100 100 72 5 2 0 5 30 82 84 8 35 16 5 5 2 5 30 69 64 11 34 69 91 65 98 78 88 98 100

GFSGBSN_prec_cloud_087.txt.gz
Cloud_Cover
100 100 100 100 100 100 100 100 100 90 99 91 100 78 100 100 94 100 12 7 4 3 0 1 0 5 2 3 14 6 5 78 100 100 100 100 100 100 100 9 100 100 100 88 100 100 100
100 100 100 100 100 100 100 100 100 100 100 97 100 87 100 100 44 100 59 6 3 49 0 0 3 2 0 19 5 5 0 99 100 100 100 100 100 100 100 100 100 100 81 100 100 100 100
100 100 100 100 100 100 100 100 100 100 100 100 100 100 82 100 100 100 57 5 4 10 2 0 0 0 0 0 5 5 74 98 100 100 100 100 100 100 100 100 95 100 100 100 100 100 100
100 100 100 100 100 100 100 100 100 100 89 100 100 100 98 99 100 98 40 5 1 0 2 0 0 0 0 7 5 1 49 100 100 98 97 100 100 100 100 100 99 100 100 100 100 100 100
100 100 100 100 100 100 100 100 100 100 100 100 96 100 100 100 100 100 20 5 0 0 0 0 0 6 12 34 80 2 5 93 100 80 100 100 100 100 100 99 100 100 100 100 100 100 100
100 100 100 100 100 100 100 100 100 100 100 100 99 100 100 100 100 93 7 5 0 0 0 5 4 44 24 60 5 0 85 70 100 100 100 100 100 98 100 100 100 82 100 100 100 100 100
100 100 100 100 100 100 100 100 100 100 100 100 100 100 100 100 100 100 82 5 3 8 3 5 4 5 5 38 87 5 4 100 100 100 100 100 100 100 100 100 100 100 100 100 100 100 100
100 100 100 100 100 100 100 100 100 100 100 100 100 100 100 100 100 100 69 16 34 4 44 14 0 6 5 100 68 8 6 100 100 100 100 100 100 100 100 100 100 100 100 100 100 100 100
99 100 100 100 100 100 100 100 100 100 100 100 100 100 100 100 100 98 33 58 4 0 56 55 26 5 5 95 68 5 99 100 100 100 100 100 100 100 100 85 100 100 100 100 100 100 100
22 100 100 100 100 100 100 100 100 100 100 100 100 100 100 100 100 92 86 7 0 0 63 92 20 35 67 100 36 92 100 100 100 100 100 100 100 100 94 99 100 100 100 100 100 100 100
97 100 100 100 100 100 100 100 100 100 100 100 100 100 100 100 100 98 39 0 0 5 9 53 5 5 50 34 54 67 78 100 100 100 100 100 96 47 70 22 100 100 100 100 100 100 100
93 100 100 100 100 100 100 100 100 100 100 100 100 100 100 100 100 93 6 0 1 8 66 30 5 58 97 92 100 91 99 100 100 97 100 100 100 85 98 66 43 100 96 100 100 100 100
99 100 100 100 100 100 100 100 100 100 100 100 100 100 100 100 100 56 5 4 33 21 39 11 6 97 75 93 93 97 82 84 100 100 100 100 100 100 77 30 94 100 100 100 100 100 100
100 100 100 100 100 100 100 100 100 100 100 100 100 100 100 100 100 56 17 18 13 21 62 8 3 5 5 16 16 7 66 79 100 62 63 100 59 38 62 19 85 100 84 100 11 61 100
100 98 100 100 100 100 100 100 100 100 100 100 100 100 100 100 100 18 86 39 5 5 5 9 5 5 5 3 5 44 97 16 29 97 92 70 96 100 51 5 98 96 22 46 64 31 100
100 100 100 100 100 100 100 100 100 100 100 100 100 100 100 100 100 26 42 57 16 5 14 92 31 3 0 0 4 5 1 27 91 100 30 16 93 72 5 4 74 54 6 4 5 89 14
100 100 100 100 100 100 100 100 100 100 100 100 100 100 100 100 100 74 73 9 5 5 5 98 5 2 0 1 5 5 5 0 5 5 38 100 100 98 46 46 100 100 100 57 85 7 5
100 100 100 100 100 100 100 100 100 100 100 100 100 100 100 100 92 85 95 5 5 5 5 5 5 5 5 0 5 8 5 11 5 5 24 48 95 95 94 76 88 100 100 100 100 100 100
100 100 100 100 100 100 100 100 100 100 100 100 100 100 100 100 67 92 100 5 5 5 5 5 5 5 77 53 93 74 5 3 5 5 5 5 6 67 100 100 29 59 92 100 100 100 100
100 100 100 100 100 100 100 100 100 100 100 100 100 100 100 100 84 100 72 5 5 5 5 5 5 5 5 5 5 26 5 16 5 5 27 26 4 4 5 49 100 84 29 100 100 100 100
100 100 100 100 100 100 100 100 100 100 100 100 100 100 100 92 58 100 15 50 5 5 5 4 0 5 11 7 6 83 43 5 5 5 47 30 44 5 5 29 11 63 84 100 100 100 100
100 100 100 100 100 100 100 100 100 100 100 100 100 100 100 100 97 100 36 86 5 5 5 0 0 3 5 5 5 5 5 5 22 18 5 48 80 66 59 83 62 11 45 99 100 100 100
100 100 100 100 100 100 100 100 100 100 100 100 100 100 100 100 100 96 37 100 6 5 5 3 5 5 5 5 5 5 5 8 55 29 56 62 51 28 5 5 94 100 100 88 17 58 21
100 100 100 100 100 100 100 100 100 100 100 100 100 100 100 100 88 100 73 100 82 53 4 5 5 3 4 0 4 4 4 5 5 5 84 44 5 16 5 5 5 0 23 72 100 100 100
100 100 100 100 100 100 100 100 100 100 100 100 100 100 100 100 100 100 87 93 92 13 5 5 3 5 2 4 3 5 2 1 0 1 5 5 5 5 5 39 3 5 6 26 88 94 81
100 100 100 100 100 100 100 100 100 100 100 100 100 100 100 100 100 100 100 100 93 6 5 5 5 5 5 5 5 5 5 5 5 5 0 0 4 15 5 62 5 5 17 72 21 84 100
100 100 100 100 100 100 100 100 100 100 100 100 100 100 100 100 100 100 100 99 83 29 5 5 5 5 5 5 5 5 86 5 5 4 5 3 5 5 5 71 28 46 3 11 40 59 100
100 100 100 100 100 100 100 100 100 100 100 100 100 100 100 100 100 100 100 100 78 28 5 4 5 6 5 5 5 5 5 5 5 5 5 3 5 5 5 10 68 99 98 53 38 100 100
100 100 100 100 100 100 100 100 100 100 100 100 100 100 100 100 100 100 100 100 50 27 5 4 5 48 58 6 5 5 5 5 5 0 4 5 5 5 27 5 91 81 62 100 74 100 100

GFSGBSN_prec_cloud_090.txt.gz
Cloud_Cover
99 95 100 100 100 100 100 100 100 100 100 100 70 100 100 100 100 92 100 5 18 5 35 0 0 0 0 0 0 2 4 0 1 39 100 100 78 12 98 5 84 84 100 99 100 100 100
100 100 100 100 100 100 100 100 100 100 100 93 71 100 100 100 100 100 98 41 5 26 100 0 2 0 0 0 0 5 3 2 41 100 100 96 76 28 96 17 22 15 41 100 100 100 100
100 100 91 100 100 100 100 100 100 100 100 100 85 100 100 100 89 98 100 53 5 12 47 0 0 0 0 0 5 5 0 41 98 100 100 98 80 100 100 9 3 15 93 100 100 100 100
100 100 100 92 100 100 100 100 100 100 100 100 93 100 100 100 85 100 73 98 5 5 1 0 0 0 9 5 5 3 3 100 100 100 100 100 100 100 100 47 9 75 100 100 100 100 100
79 100 100 100 100 100 100 100 100 100 100 100 100 100 100 100 100 100 68 100 12 8 4 0 0 3 1 4 54 20 27 100 71 96 100 100 100 100 100 100 36 97 100 100 100 100 100
100 61 100 100 100 100 100 100 100 100 100 100 100 100 100 100 100 100 60 65 5 5 2 5 4 3 1 19 63 37 17 96 99 54 100 100 100 100 100 100 88 97 100 100 100 100 100
0 31 64 100 100 100 100 100 100 100 100 100 100 100 100 100 100 100 92 45 5 11 5 5 0 2 4 36 14 1 5 12 84 98 100 100 100 95 100 100 78 100 100 100 91 73 100
0 0 6 73 95 100 100 100 100 100 100 100 100 100 100 100 100 100 75 77 33 5 18 3 1 2 5 10 40 21 30 67 100 99 100 100 100 100 100 100 93 100 100 100 100 100 100
5 2 9 12 100 84 100 100 100 100 100 100 100 100 100 100 100 100 92 72 38 5 4 5 3 6 54 46 41 77 99 99 100 100 100 99 100 100 100 100 67 100 100 100 100 100 100
6 63 8 5 100 98 100 100 100 100 100 100 100 100 100 100 100 100 99 90 8 5 5 4 3 42 69 92 6 99 100 100 100 100 100 100 100 100 100 58 74 100 70 100 100 100 100
34 34 19 26 100 100 100 100 100 100 100 100 100 100 100 100 100 100 98 100 5 6 0 1 4 5 46 49 5 100 100 100 100 100 100 100 72 92 100 100 59 100 100 100 100 100 100
22 100 100 34 100 100 100 100 100 100 100 100 100 100 100 100 100 100 100 93 5 5 29 4 5 5 18 79 42 100 100 100 100 100 100 100 96 85 35 28 100 100 100 100 100 100 100
100 100 100 93 100 100 100 100 100 100 100 100 100 100 100 100 100 97 100 67 5 7 4 2 6 63 39 19 25 100 93 100 99 86 82 73 99 87 29 38 100 100 100 100 100 100 91
55 100 95 100 99 100 100 100 100 100 100 100 100 100 100 100 100 100 97 17 15 5 5 5 2 5 5 5 8 30 21 99 84 72 87 100 100 100 100 79 100 100 100 100 100 100 100
100 100 100 100 100 100 100 100 100 100 100 100 100 100 100 100 100 100 56 27 5 5 2 3 5 5 0 3 5 5 91 87 41 11 92 76 57 98 100 95 100 100 100 100 100 58 100
100 100 100 100 100 100 100 100 100 100 100 100 100 100 100 100 100 100 24 5 5 0 0 0 10 4 0 0 4 5 0 6 37 26 40 25 69 5 56 98 87 100 100 100 100 100 62
100 100 100 100 100 100 100 100 100 100 100 100 100 100 100 100 100 100 38 7 5 5 0 3 6 1 3 5 5 5 5 2 4 5 22 37 48 45 75 6 14 63 96 85 90 100 94
100 100 100 100 100 100 100 100 100 100 100 100 100 100 100 100 100 67 9 5 5 5 5 5 4 0 0 5 5 5 4 5 4 1 5 5 5 33 78 27 99 100 66 12 5 34 5
100 100 100 100 100 100 100 100 100 100 100 100 100 100 100 100 100 54 20 5 5 4 0 5 5 5 5 5 5 5 5 4 5 1 5 4 5 59 67 31 66 100 100 91 61 6 5
100 100 100 100 100 100 100 100 100 100 100 100 100 100 100 100 95 100 37 5 5 5 4 0 0 5 5 5 5 5 5 5 5 4 5 2 5 4 5 5 6 5 96 100 100 100 100
100 100 100 100 100 100 100 100 100 100 100 100 100 100 100 100 96 100 98 5 5 5 5 4 0 4 5 5 5 5 5 5 5 5 5 5 4 5 5 5 5 5 5 45 100 100 100
100 100 100 100 100 100 100 100 100 100 100 100 100 100 100 99 99 100 100 5 8 5 4 5 3 5 5 2 3 5 4 2 5 5 5 5 5 3 4 0 0 2 5 7 54 26 100
100 100 100 100 100 100 100 100 100 100 100 100 100 100 100 99 100 100 100 54 64 5 5 0 5 1 5 5 5 4 5 5 5 5 5 5 5 5 5 5 4 45 37 6 5 98 99
100 100 100 100 100 100 100 100 100 100 100 100 100 100 100 93 100 100 100 100 98 13 5 5 5 0 0 0 4 5 5 5 5 5 5 5 5 5 5 5 5 0 0 11 63 10 5
100 100 100 100 100 100 100 100 100 100 100 100 100 100 98 100 100 100 100 100 100 45 5 5 5 5 0 0 2 5 5 5 5 5 5 5 5 5 5 5 0 0 0 0 0 1 1
100 100 100 100 100 100 100 100 100 100 100 100 100 100 100 100 97 100 100 100 100 76 44 5 5 5 3 5 0 5 5 3 5 5 1 5 7 64 5 5 4 0 0 0 5 5 5
100 100 100 100 100 100 100 100 100 100 100 100 100 100 100 100 100 100 98 100 100 88 38 5 5 5 5 5 5 5 5 5 4 3 5 4 5 5 6 82 4 0 0 0 3 4 5
100 100 100 100 100 100 100 100 100 100 100 100 100 100 100 97 81 98 100 100 100 99 75 5 5 5 5 5 5 5 5 5 5 4 2 2 5 5 5 5 44 5 5 19 5 5 5
100 100 100 100 100 100 100 100 100 100 100 100 100 100 100 100 98 100 100 100 100 99 90 6 3 5 5 4 3 4 5 5 0 0 0 3 4 4 4 5 5 5 5 5 5 5 5

GFSGBSN_prec_cloud_093.txt.gz
Cloud_Cover
100 99 95 78 100 52 87 100 100 100 100 100 100 100 100 100 100 100 100 91 75 62 100 99 0 0 0 0 0 0 0 0 1 2 5 12 14 95 62 5 5 5 5 100 100 100 100
100 97 100 100 100 100 100 78 100 100 100 100 100 100 100 100 100 100 100 87 68 100 92 100 0 0 0 0 0 0 0 0 4 38 21 64 10 95 91 7 5 5 5 100 81 100 100
100 100 100 100 100 100 100 98 99 100 100 100 100 100 100 100 100 100 98 61 97 72 45 50 0 0 0 5 0 0 5 0 7 99 100 100 97 98 7 20 5 7 12 100 100 100 100
99 97 98 94 14 100 100 100 100 100 100 100 100 100 100 100 100 100 84 99 100 93 11 8 0 0 29 3 0 7 46 11 100 83 100 100 100 100 86 19 6 5 95 100 100 100 100
3 0 6 99 99 60 51 89 100 100 100 100 100 100 100 100 100 100 67 100 100 100 11 0 0 5 10 3 14 61 35 49 90 99 98 94 100 100 82 100 56 8 84 91 100 100 100
24 1 2 1 25 22 71 31 92 100 100 100 100 100 100 100 100 100 100 100 100 98 0 5 5 28 3 4 6 46 5 57 44 97 100 100 100 100 100 100 100 8 97 100 100 100 100
0 0 10 21 4 57 27 97 41 100 100 100 100 100 100 100 100 100 100 100 100 9 0 0 0 0 1 5 0 1 2 4 24 98 100 100 100 100 100 100 64 3 86 100 100 100 100
0 0 0 1 95 6 14 90 100 100 100 100 100 100 100 100 100 100 100 100 99 5 1 3 4 5 5 8 2 23 100 19 99 100 100 100 100 100 100 100 27 5 97 100 100 100 100
20 0 0 1 31 3 1 86 100 100 100 100 100 100 100 100 100 100 100 100 65 2 3 5 3 5 5 5 34 100 100 100 100 100 100 100 100 77 34 98 100 5 26 95 100 100 100
5 5 2 5 0 99 34 90 96 100 100 100 100 100 100 100 100 100 100 100 13 5 5 0 0 5 5 5 32 96 100 100 100 100 100 99 100 100 100 100 12 0 61 100 100 100 100
5 5 2 40 100 24 50 94 100 100 100 100 100 100 100 100 100 100 100 96 5 5 0 0 1 5 5 37 75 100 100 100 100 100 100 100 100 100 100 14 58 40 76 92 100 97 100
100 97 32 83 40 89 91 95 100 100 100 100 100 100 100 100 100 100 100 64 5 5 0 4 1 5 46 76 100 100 100 100 100 100 100 100 100 100 97 100 95 100 100 100 100 100 100
100 100 98 100 100 100 100 89 100 100 100 100 100 100 100 100 100 100 98 10 13 9 3 0 3 5 5 24 16 98 100 100 100 87 100 94 95 100 82 63 71 100 100 100 100 100 82
100 100 100 100 100 100 100 58 100 100 100 100 100 100 100 100 100 100 34 61 5 5 5 0 0 5 5 5 17 65 54 94 86 89 46 100 95 99 100 99 100 100 100 100 100 99 100
100 100 100 100 100 100 100 100 100 100 100 100 100 100 100 100 100 100 100 17 4 5 3 2 1 5 0 2 4 5 5 9 29 75 59 62 94 99 80 33 100 96 98 100 100 100 96
100 100 100 100 100 100 100 100 100 100 100 100 100 100 100 100 100 100 81 5 5 5 2 0 2 1 0 0 3 0 0 14 67 43 10 6 66 67 73 98 89 94 100 100 100 100 100
100 100 100 100 100 100 100 100 100 100 100 100 100 100 100 100 100 97 69 5 5 5 2 0 3 0 5 5 5 5 4 15 5 5 15 6 4 65 35 34 28 25 81 22 36 87 63
100 100 100 100 100 100 100 100 100 100 100 100 100 100 100 100 100 68 77 5 5 5 2 3 0 0 4 5 5 5 3 5 0 1 1 0 5 22 14 89 100 97 95 64 100 83 52
100 99 94 100 100 100 100 100 100 100 100 100 100 100 100 100 100 76 38 5 5 5 5 2 0 0 0 5 3 4 5 5 1 0 0 0 4 5 5 3 12 71 6 5 5 8 5
100 100 100 100 100 100 100 100 100 100 100 100 100 100 100 100 100 75 30 22 5 5 5 5 0 0 2 5 4 3 5 5 5 0 0 0 3 0 5 1 1 4 8 5 9 30 98
100 100 100 100 100 100 100 100 100 100 100 100 100 100 100 100 100 81 27 5 5 5 5 4 0 0 0 5 5 2 4 5 5 0 2 3 4 5 5 5 5 2 5 4 5 6 5
100 100 100 100 100 100 100 100 100 100 100 100 100 100 100 100 100 96 17 5 5 5 4 0 0 3 0 0 0 0 0 0 0 5 5 5 5 2 4 0 0 0 0 0 1 5 64
100 100 100 100 100 100 100 100 100 100 100 100 100 100 100 100 100 70 26 5 5 4 4 0 0 0 0 0 0 0 0 4 2 5 1 5 5 5 5 4 0 1 0 0 0 0 4
100 100 100 100 100 100 100 100 100 100 100 100 100 100 100 100 100 75 43 5 5 5 2 0 4 4 2 0 2 2 5 5 5 5 5 5 4 4 5 2 2 0 0 0 0 0 0
100 100 100 100 100 100 100 100 100 100 100 100 100 100 100 100 100 67 51 5 5 5 5 3 4 2 3 5 3 5 5 5 5 5 5 5 5 5 5 5 4 0 2 0 0 0 0
100 100 100 100 100 100 100 100 100 100 100 100 100 100 100 100 100 99 74 45 6 7 6 5 5 5 5 5 1 5 5 2 5 5 5 5 5 27 5 5 4 0 0 3 0 0 0
99 100 100 100 100 100 100 100 100 100 100 100 100 100 100 100 100 100 69 52 19 49 89 11 5 5 5 1 0 5 5 3 4 5 5 5 5 5 79 77 2 0 0 14 5 0 0
100 100 100 100 100 100 100 100 100 100 100 100 100 100 100 100 100 100 85 43 85 100 100 59 5 5 5 5 5 5 5 5 5 5 5 3 12 6 5 5 46 5 5 5 17 5 4
100 100 100 100 100 100 100 100 100 100 100 100 100 100 100 100 100 100 80 51 54 84 100 100 59 4 5 3 1 5 5 5 5 5 6 5 5 5 3 2 5 5 5 33 8 5 5

GFSGBSN_prec_cloud_096.txt.gz
Cloud_Cover
100 100 100 100 100 100 100 81 100 100 96 100 100 100 100 100 100 100 92 100 100 100 100 93 100 5 1 0 0 0 0 0 0 0 4 5 5 10 20 5 5 5 4 4 1 85 100
4 100 55 89 76 100 100 100 100 100 85 100 100 100 100 100 100 100 96 100 100 100 100 100 40 5 0 0 0 0 0 1 5 4 5 44 32 22 73 17 27 3 2 4 31 100 100
76 100 5 1 0 13 96 78 39 100 99 100 100 100 100 100 100 100 100 100 100 100 100 84 38 0 0 0 0 0 3 48 4 34 17 99 100 96 16 16 5 5 54 0 100 100 100
16 30 0 69 72 1 8 0 26 7 79 100 100 97 100 100 100 100 100 100 100 100 100 100 13 0 7 0 0 0 40 91 3 94 89 100 100 100 100 60 30 79 100 47 99 100 100
100 100 92 65 46 2 10 9 4 81 71 44 100 100 100 100 100 100 100 100 100 100 100 73 0 0 13 0 0 5 50 18 42 100 100 100 100 100 88 100 100 98 24 32 100 100 100
44 61 7 22 6 18 60 2 4 5 3 48 100 100 100 100 100 100 100 100 100 100 100 6 0 12 0 1 0 5 1 1 38 83 95 99 100 100 100 100 58 73 5 8 100 100 100
60 82 4 5 5 0 6 36 5 16 36 100 100 100 100 100 100 100 100 100 100 100 90 4 0 0 5 5 5 5 4 3 5 97 91 100 100 100 100 82 72 87 5 14 100 100 100
100 100 90 5 3 2 0 2 26 59 12 100 100 100 100 100 100 100 100 100 100 100 12 0 1 5 5 9 50 52 51 5 11 99 86 100 100 100 100 100 93 49 10 86 100 100 100
6 82 5 40 62 5 2 0 97 12 96 68 100 100 100 100 100 100 100 100 100 86 4 1 5 5 5 5 48 94 50 18 60 100 100 100 100 94 100 100 100 14 56 91 100 100 100
100 67 36 98 100 100 35 2 59 28 100 28 100 100 100 100 100 100 100 100 100 49 5 0 0 3 26 9 78 38 98 100 100 100 100 100 97 100 100 100 93 9 26 100 100 100 100
77 100 100 89 94 35 28 100 100 100 100 49 100 100 100 100 100 100 100 100 100 4 0 0 0 5 22 94 100 100 100 100 100 100 100 100 100 100 100 73 16 100 100 100 100 100 100
100 100 100 100 100 52 42 72 100 100 75 85 100 100 100 100 100 100 100 100 84 4 0 0 0 4 5 69 100 100 100 100 100 100 100 100 100 100 98 51 26 100 100 100 100 100 100
100 100 100 100 100 100 98 32 100 100 100 100 100 100 100 100 100 100 100 99 88 3 1 0 0 5 5 68 100 98 100 94 98 91 89 97 98 92 73 21 38 98 100 97 100 100 100
100 100 100 100 100 100 100 47 51 74 100 100 100 100 100 100 100 100 100 100 48 1 4 0 0 3 5 5 17 80 84 12 8 10 46 26 100 98 98 64 100 71 10 9 100 100 100
100 100 100 95 100 100 100 100 100 100 100 100 100 100 100 100 100 100 100 100 5 4 2 3 0 0 0 5 7 5 5 60 39 6 5 79 100 100 100 64 100 100 86 100 100 100 100
74 100 100 97 100 100 100 100 100 100 100 100 100 100 100 100 100 100 100 64 5 0 0 0 0 0 0 0 1 2 2 16 73 14 5 18 100 100 97 98 98 100 86 94 100 100 100
72 90 100 100 100 100 100 100 100 100 100 100 100 100 100 100 100 100 79 42 5 5 0 0 0 3 1 5 5 5 7 3 5 5 5 0 8 88 11 100 98 96 100 5 92 98 100
82 100 100 100 100 100 100 100 100 100 100 100 100 100 100 100 100 100 92 14 5 5 0 0 0 0 1 4 1 5 5 5 5 5 1 4 5 77 74 52 100 5 7 87 6 100 98
5 22 100 100 100 100 100 100 100 100 100 100 100 100 100 100 100 98 50 7 5 3 0 0 0 0 0 0 1 2 5 5 0 1 5 0 5 5 12 5 4 2 12 20 23 5 8
50 100 100 100 100 100 100 100 100 100 100 100 100 100 100 100 100 47 55 6 8 5 3 3 1 0 0 4 0 2 5 4 4 0 1 0 3 0 5 2 1 0 0 1 2 5 5
100 100 100 100 100 100 100 100 100 100 100 100 100 100 100 100 100 47 32 36 36 5 4 4 2 0 0 3 0 3 5 3 0 0 0 0 5 5 4 5 4 1 2 0 0 0 5
100 100 100 100 100 100 100 100 100 100 100 100 100 100 100 100 100 99 65 23 28 5 5 3 0 0 0 0 0 0 0 0 0 3 0 0 5 2 4 0 0 1 1 0 0 0 0
100 100 100 100 100 100 100 100 100 100 100 100 100 100 100 100 67 98 46 29 9 5 5 0 0 0 0 0 0 0 0 0 3 2 0 0 4 5 5 4 4 0 5 0 0 0 0
100 100 100 100 100 100 100 100 100 100 100 100 100 100 100 100 100 71 5 17 5 16 5 0 0 0 0 0 0 1 0 4 5 2 4 0 2 5 5 1 0 5 1 3 5 3 0
97 97 100 100 100 100 100 100 100 100 100 100 100 100 100 100 94 38 19 42 10 5 24 0 2 0 0 5 4 2 4 4 5 5 5 5 0 5 5 5 5 5 5 2 0 0 4
85 100 92 99 100 100 100 100 100 100 100 100 100 100 100 100 100 79 61 70 12 5 5 5 5 4 0 5 2 0 5 5 5 19 5 5 5 4 5 5 5 5 2 0 3 5 5
18 52 100 97 99 100 100 100 100 92 100 100 100 100 100 100 100 86 53 90 30 6 5 11 6 5 4 2 5 5 4 5 5 5 15 13 5 5 5 29 6 5 4 0 2 5 2
74 25 95 100 100 100 100 100 100 100 100 100 100 100 100 100 100 100 97 91 53 16 5 13 5 5 5 5 4 5 5 1 5 4 2 5 13 6 5 23 36 2 5 3 5 5 25
100 100 100 100 100 100 100 100 100 100 100 100 100 100 100 100 100 100 100 95 64 46 5 9 14 5 5 3 5 1 0 0 2 0 3 3 1 4 2 4 0 5 5 4 5 17 5

GFSGBSN_prec_cloud_099.txt.gz
Cloud_Cover
100 100 100 100 3 26 96 100 100 100 100 85 36 85 100 100 100 100 100 100 100 85 100 100 100 100 81 80 20 5 0 0 0 0 0 2 4 5 5 5 5 3 0 5 1 5 100
100 100 100 39 1 10 6 3 91 100 71 95 94 93 100 100 100 100 100 100 100 100 100 100 100 100 68 14 4 0 0 0 0 2 4 3 2 5 25 5 7 5 16 0 8 2 100
100 100 100 100 100 97 52 5 31 1 11 100 20 50 100 100 100 100 100 100 100 100 100 100 100 44 16 2 0 0 0 0 5 3 0 5 5 21 41 26 1 2 74 5 2 7 40
100 100 100 100 100 100 100 33 5 0 12 53 6 99 100 100 100 100 100 100 100 100 100 100 99 5 5 0 0 0 0 0 0 1 4 5 60 94 100 80 11 5 74 70 2 32 42
100 100 100 100 100 100 59 87 17 20 4 25 9 94 100 100 100 100 100 100 100 100 100 100 42 4 0 0 0 0 0 3 5 4 15 17 90 100 100 100 91 99 42 93 4 2 73
58 77 46 67 100 54 88 43 100 20 2 5 37 94 92 100 100 100 100 100 100 100 100 98 1 2 0 0 2 2 0 0 3 5 5 64 100 100 100 100 42 98 31 5 59 28 10
100 94 100 100 66 24 46 36 53 100 77 5 27 99 100 100 100 100 100 100 100 100 78 5 4 0 4 5 5 1 2 5 0 5 80 99 100 100 100 90 98 100 5 5 3 5 100
58 94 96 89 66 98 37 97 42 66 78 5 61 98 100 100 100 100 100 100 100 100 48 4 0 5 5 5 6 9 8 5 18 100 99 100 100 99 100 8 81 100 26 13 38 100 100
84 99 94 100 100 94 94 100 100 19 100 61 100 76 100 100 100 100 100 100 100 100 7 0 0 5 5 4 8 23 66 92 57 100 94 100 100 100 100 96 100 100 69 100 100 100 100
78 100 100 100 100 100 85 55 38 37 9 66 100 100 100 100 100 100 100 100 100 5 5 0 0 5 5 5 52 100 100 100 100 100 100 100 100 100 100 68 94 97 100 100 100 100 100
99 100 100 100 100 100 100 100 5 99 5 33 100 96 100 100 100 100 100 100 88 4 0 0 1 3 5 65 100 100 100 100 100 100 100 100 100 100 100 81 63 100 100 100 100 100 100
100 100 100 100 100 100 100 100 28 5 5 45 84 100 100 100 100 100 100 100 64 3 0 0 0 5 20 93 100 97 91 100 100 100 100 100 100 99 98 17 25 99 100 100 100 100 100
100 100 100 100 100 100 100 100 44 6 100 100 100 100 100 100 100 100 100 89 5 0 0 0 0 5 5 52 84 77 54 98 92 100 100 100 100 100 99 99 78 100 100 100 100 100 100
100 100 100 100 100 100 100 100 100 50 100 60 100 100 100 100 100 100 100 34 2 0 3 0 0 5 68 76 12 14 7 41 28 84 100 100 100 100 80 64 88 100 89 100 100 100 100
100 100 100 100 100 99 94 100 100 99 67 100 100 100 100 100 100 100 100 5 3 2 0 3 0 4 5 5 28 5 22 25 12 7 70 99 100 100 100 90 22 64 5 99 100 100 100
99 11 94 100 100 100 100 100 100 100 100 100 100 100 100 100 100 100 53 7 5 0 0 0 0 0 0 1 0 2 5 5 5 5 6 61 100 100 100 100 32 90 63 93 100 83 17
2 37 80 100 100 100 100 100 100 100 100 100 100 100 100 100 100 71 44 19 5 0 0 0 0 2 0 1 1 5 15 5 5 5 3 6 81 99 98 100 80 100 58 95 100 93 16
5 100 100 100 100 100 100 100 100 100 100 100 100 100 100 100 100 37 56 5 3 0 0 0 0 0 0 0 3 5 6 5 3 4 2 5 5 90 70 100 100 42 6 6 10 61 5
100 100 100 100 100 100 100 100 100 100 100 100 100 100 100 100 92 79 67 5 3 0 0 0 0 0 0 0 3 5 5 5 0 0 0 0 5 21 24 5 5 73 5 5 25 27 97
100 100 100 100 100 100 100 100 100 100 100 100 100 100 100 100 96 74 66 10 5 0 0 0 0 0 0 0 0 3 5 3 0 0 0 0 4 0 4 3 4 1 0 0 0 5 20
100 100 100 100 58 67 100 100 100 100 100 100 100 100 100 100 100 43 16 5 5 2 0 0 0 0 0 0 0 3 5 1 0 0 0 0 5 4 5 0 0 5 4 0 2 0 4
100 100 100 90 98 100 100 100 100 100 100 100 100 100 100 99 97 85 69 5 5 2 0 0 0 0 0 0 0 0 0 0 0 0 0 0 4 2 5 0 0 0 0 0 0 0 0
100 100 100 100 100 100 100 100 100 100 100 100 100 100 46 95 100 75 79 51 22 3 1 0 0 0 0 0 0 0 0 0 0 0 0 0 4 5 5 3 0 0 0 0 0 0 0
100 100 100 100 100 100 100 100 100 100 100 100 92 98 82 84 100 96 69 57 27 6 1 0 0 0 2 0 0 2 0 1 1 0 0 0 5 5 5 2 1 5 0 0 0 0 0
100 100 100 100 75 100 100 100 100 100 100 86 94 100 100 100 100 96 84 83 38 46 16 0 0 1 0 0 2 1 4 2 0 2 0 0 5 5 5 4 4 5 1 0 0 0 0
30 100 100 100 100 96 100 100 100 100 100 100 100 100 100 100 100 98 96 94 62 39 53 3 4 0 3 4 1 5 4 0 2 4 5 3 1 2 5 4 0 5 2 4 0 0 0
99 92 100 100 100 99 100 100 78 100 100 100 100 100 100 100 97 88 95 66 40 56 41 5 5 5 2 0 5 4 4 0 4 3 5 5 5 5 5 5 3 2 0 0 1 0 0
69 97 99 100 100 100 100 100 79 53 100 100 100 100 100 100 100 100 99 61 36 35 41 28 7 5 5 5 2 5 5 1 3 1 2 4 12 5 5 16 14 0 0 0 2 4 0
98 100 100 100 100 100 100 91 93 7 100 100 100 100 100 100 100 100 100 65 59 38 27 36 49 13 5 5 4 3 5 2 0 0 1 4 1 4 2 2 2 2 0 0 4 5 5

GFSGBSN_prec_cloud_102.txt.gz
Cloud_Cover
100 100 100 96 100 99 78 45 21 56 40 6 70 100 64 92 100 100 100 100 100 100 100 99 100 100 100 100 99 69 4 19 4 0 0 1 2 3 0 1 5 5 1 4 47 5 1
100 100 98 100 100 100 100 100 100 100 31 3 9 100 99 2 100 100 100 100 100 100 100 100 100 100 100 100 26 4 3 0 0 0 0 0 0 5 9 4 5 4 5 3 24 5 5
100 100 99 94 66 100 100 100 100 35 76 2 99 82 100 56 100 100 100 100 100 100 100 100 100 100 99 92 5 0 0 0 0 0 2 2 4 39 63 66 63 5 5 35 5 0 5
100 100 100 93 100 95 60 99 100 100 49 1 10 12 83 100 100 100 100 100 100 100 100 100 100 96 93 4 0 0 0 0 0 0 0 0 4 61 100 52 48 26 25 5 61 5 6
100 100 100 100 100 100 88 76 100 100 100 26 0 8 10 93 100 100 100 100 100 100 100 100 100 82 79 0 0 0 0 1 5 5 3 4 33 35 94 100 100 81 38 5 41 6 5
100 100 100 100 100 100 100 62 13 53 100 83 0 3 8 98 100 100 100 100 100 100 100 100 85 84 20 2 0 0 1 0 3 5 13 80 84 100 100 100 100 94 100 67 48 18 5
100 100 100 100 100 100 100 31 21 6 5 100 0 3 100 100 100 100 100 100 100 100 100 100 100 99 0 2 3 5 0 1 5 3 16 97 100 100 93 89 100 100 99 96 92 45 5
100 100 100 100 94 16 51 83 78 70 57 77 27 90 93 100 100 100 100 100 100 100 100 100 100 0 5 5 5 5 5 18 58 65 100 100 100 100 98 100 100 100 99 99 100 35 23
100 100 100 100 81 89 100 85 23 4 8 8 2 30 46 100 100 100 100 100 100 100 100 100 12 5 9 5 9 38 70 100 100 100 100 100 100 100 100 100 100 59 90 98 100 74 81
100 100 100 100 100 100 100 100 53 38 5 5 3 16 100 100 100 100 100 100 100 100 100 18 3 5 43 62 39 74 100 93 100 100 100 100 99 100 100 100 47 100 57 100 100 7 100
100 100 100 100 100 100 100 100 100 20 13 5 12 95 100 100 100 100 100 100 100 100 92 0 3 5 5 28 27 40 76 100 100 100 100 100 100 100 98 99 52 100 71 98 99 96 91
100 100 100 100 100 100 100 100 100 30 5 30 61 99 100 100 100 100 100 100 100 68 0 4 3 5 5 8 92 30 82 100 100 100 100 100 100 100 86 94 100 100 100 100 100 100 100
100 100 100 100 100 100 100 100 100 87 74 100 42 11 100 100 100 100 100 100 34 2 0 2 4 5 5 27 96 89 42 93 100 100 100 100 100 99 63 100 100 100 100 100 100 100 100
100 100 92 21 98 100 100 100 96 94 95 9 7 99 100 100 100 100 100 94 5 0 0 0 3 4 4 5 42 5 10 71 75 100 100 94 96 100 100 95 100 100 100 100 100 100 100
40 8 3 66 100 100 100 100 100 99 77 54 100 100 100 100 100 100 86 8 4 0 0 0 4 0 5 5 5 5 5 36 23 7 64 98 100 100 74 28 99 99 100 100 100 100 100
100 100 100 100 83 99 100 100 100 66 68 90 100 100 100 100 100 100 66 9 5 0 0 0 0 0 0 0 4 4 5 5 70 92 79 78 100 100 100 13 41 100 100 100 99 100 100
100 100 100 100 100 100 100 96 100 88 38 100 100 100 100 100 100 98 5 5 5 0 0 0 0 0 0 1 3 5 5 4 5 96 88 97 100 100 37 47 98 100 100 97 39 26 100
100 100 100 100 100 100 100 100 100 99 100 100 100 100 100 100 93 49 5 5 3 0 0 0 0 0 0 0 5 5 5 7 0 6 51 8 79 98 100 90 87 93 31 99 5 4 68
100 100 100 87 100 100 100 100 99 100 100 100 100 100 100 96 88 11 11 14 3 0 0 0 0 0 0 0 4 5 5 4 4 0 4 4 52 36 83 88 95 100 100 6 2 9 0
100 100 40 5 8 81 27 21 41 50 100 95 100 100 100 100 26 17 96 48 3 0 0 0 0 0 0 3 0 5 5 0 0 0 0 0 4 3 0 5 4 74 51 4 4 4 70
100 91 67 64 97 64 97 100 100 100 100 100 98 96 79 98 70 28 92 14 4 2 0 0 0 0 0 0 0 5 0 0 0 0 0 1 5 5 5 2 3 5 5 4 77 52 15
100 100 100 100 48 63 6 5 26 92 100 100 97 66 5 94 30 84 76 14 5 2 0 0 0 0 0 0 0 0 0 0 0 0 0 0 4 1 4 0 0 0 0 0 0 2 2
100 100 100 78 30 39 20 58 77 60 71 83 12 44 30 95 66 96 54 6 3 0 0 0 0 0 0 0 0 0 0 0 0 0 0 0 0 0 4 0 0 0 0 0 0 0 0
100 100 100 100 87 86 100 86 90 93 93 89 77 94 24 47 92 90 5 5 0 0 0 0 0 0 0 0 0 0 0 0 0 0 0 0 0 2 0 0 0 0 0 0 0 0 0
100 100 100 100 100 100 99 93 78 66 100 100 99 99 97 60 58 61 12 7 5 0 0 0 0 0 0 0 0 0 0 0 0 0 0 0 0 0 0 0 0 0 0 0 0 0 0
5 98 100 100 100 100 100 100 75 98 100 100 55 54 89 96 45 26 44 18 25 5 4 0 0 0 0 0 0 0 0 0 0 0 0 0 0 5 0 3 0 0 0 0 0 1 2
5 70 100 100 100 100 100 100 94 100 100 100 100 84 72 100 100 100 89 50 54 60 8 5 5 4 1 0 0 0 1 2 1 0 1 4 2 1 2 0 2 0 0 0 4 4 0
2 5 88 100 100 100 100 100 100 100 96 100 100 100 100 98 100 100 95 86 68 54 72 14 5 5 6 4 0 4 5 5 5 5 5 3 4 5 4 3 4 4 1 4 0 0 2
5 12 33 100 100 100 100 100 100 100 86 100 100 100 100 100 100 99 82 63 63 73 74 57 36 5 5 5 5 5 5 5 5 5 5 5 0 5 5 5 5 5 13 5 4 0 2

GFSGBSN_prec_cloud_105.txt.gz
Cloud_Cover
100 100 100 100 100 100 100 100 100 100 100 14 4 97 100 100 76 100 100 100 100 100 100 52 47 34 13 100 98 17 5 91 46 5 5 5 5 5 0 1 4 44 48 38 89 67 81
100 100 100 100 100 100 100 100 100 100 100 93 29 61 31 100 91 100 100 100 100 100 100 72 48 95 98 100 37 32 91 22 5 3 5 4 4 5 4 5 5 2 5 5 32 92 99
100 100 100 100 100 100 100 100 100 100 100 100 100 80 100 100 55 100 100 100 100 100 32 23 97 100 100 40 98 100 22 4 5 5 5 6 5 27 16 34 54 64 61 4 4 37 69
100 100 100 100 100 100 100 100 100 100 100 100 100 88 99 67 97 100 100 100 100 100 74 89 97 100 100 100 100 95 5 5 8 10 5 66 60 59 75 51 57 99 75 99 0 15 81
100 100 100 100 100 100 100 100 100 100 92 100 100 100 81 1 58 100 100 100 98 98 93 100 100 100 100 100 98 32 5 17 100 100 17 56 16 52 93 76 97 84 45 87 90 6 100
100 100 100 100 100 100 100 100 100 100 100 100 75 18 69 5 97 100 100 100 98 100 96 100 100 95 100 99 87 90 4 5 5 95 97 35 82 97 97 100 74 100 100 94 100 44 100
100 100 96 96 100 100 100 100 100 92 76 5 0 3 93 100 100 100 100 100 100 92 100 100 92 100 100 100 77 16 36 24 17 79 87 100 96 77 99 99 94 94 66 99 100 27 99
100 100 98 100 100 100 100 100 100 100 100 100 100 30 100 100 100 100 100 86 100 100 100 100 100 100 100 100 82 8 64 99 100 100 100 100 100 90 98 72 97 94 10 9 74 100 99
99 100 100 100 100 100 100 100 100 100 65 4 17 5 14 100 100 100 100 100 100 100 100 100 100 100 100 41 87 100 89 98 98 100 100 100 99 72 100 38 66 22 78 100 100 100 100
97 100 99 100 100 100 100 99 100 100 100 3 0 27 15 98 100 100 100 100 100 100 100 98 100 98 6 98 86 54 100 97 100 100 100 100 99 100 100 49 70 100 100 100 100 96 81
13 98 100 100 100 100 100 100 100 100 20 0 0 72 100 100 100 100 100 100 100 100 100 100 94 5 5 96 57 92 99 100 100 100 100 98 100 100 100 76 85 57 99 100 100 100 60
100 81 88 100 100 100 100 100 100 78 75 4 5 48 100 89 100 100 100 100 100 98 100 27 8 7 50 54 53 80 87 100 100 100 100 100 98 100 100 98 100 100 100 100 100 100 100
100 98 6 4 46 95 100 100 90 81 14 3 2 51 100 100 100 100 100 100 88 69 1 3 5 6 89 5 5 32 100 100 95 100 100 100 100 100 100 100 100 100 100 100 100 100 100
100 100 100 13 31 60 100 100 86 77 11 5 0 43 100 100 100 100 100 100 37 1 2 2 5 5 28 84 5 10 100 100 98 30 98 100 93 100 100 100 100 100 99 100 100 100 100
100 100 92 100 37 100 100 96 91 7 5 7 100 100 100 100 100 100 94 67 5 2 0 5 2 5 5 5 4 61 83 80 83 100 100 100 98 96 72 100 100 100 100 100 100 100 100
100 100 100 100 19 62 94 76 50 47 12 97 100 100 100 100 100 100 40 52 5 0 3 2 5 2 5 3 4 5 72 100 82 100 100 65 92 44 100 100 100 100 100 100 100 100 100
100 65 100 100 16 14 100 91 44 92 100 100 100 100 100 100 100 95 46 36 5 0 2 4 0 0 0 1 4 12 86 91 100 100 100 100 38 30 94 100 100 100 100 100 100 51 100
100 77 14 100 12 5 100 100 100 100 100 100 100 100 100 100 87 55 12 5 4 2 1 2 2 0 0 2 5 5 86 31 86 100 94 89 92 54 100 100 100 13 13 19 7 10 100
100 80 13 28 19 2 22 100 100 100 100 100 100 100 100 84 100 65 4 13 5 4 5 5 4 0 0 3 4 5 4 5 57 62 100 100 21 99 98 67 17 4 5 5 5 68 54
100 100 96 21 57 63 98 100 100 71 100 100 59 100 100 54 29 59 8 10 1 0 2 0 1 0 0 1 2 5 5 1 0 2 3 14 39 17 100 44 16 5 5 68 84 100 100
100 82 100 100 98 99 86 98 98 99 100 75 23 88 33 80 57 5 91 15 5 3 0 0 0 3 0 0 0 0 4 4 0 0 0 5 5 5 5 5 15 5 14 26 23 48 21
100 100 100 100 100 96 47 96 51 14 8 16 6 5 38 85 7 5 12 28 5 2 3 0 1 0 0 0 1 5 2 3 4 1 0 0 4 0 0 0 0 0 0 0 0 3 4
100 100 100 100 100 90 77 45 92 33 22 6 5 3 5 60 5 5 9 7 4 3 0 0 2 4 0 0 0 0 0 0 0 2 0 0 0 4 3 0 0 1 0 0 0 0 1
100 100 100 100 100 100 100 100 100 61 12 0 0 3 4 15 3 5 6 7 5 2 4 0 0 4 0 0 0 0 0 1 0 0 0 0 0 0 0 0 0 0 0 0 0 0 0
100 100 100 100 100 100 100 100 78 5 4 5 5 5 5 5 49 6 7 16 2 0 0 0 0 0 0 0 3 3 0 0 0 0 0 0 0 0 0 4 1 0 0 0 0 0 0
100 100 100 97 100 100 100 100 100 66 5 5 5 5 5 8 33 44 16 8 5 5 5 4 3 0 0 0 1 0 0 0 0 0 0 0 4 2 2 0 0 0 0 0 0 0 0
100 100 100 95 96 100 100 100 100 100 85 55 37 11 5 5 13 43 43 21 8 5 5 5 5 5 5 5 5 5 5 5 5 5 5 5 5 4 5 5 5 5 1 0 4 0 0
67 100 100 100 57 92 100 100 100 100 100 98 66 79 56 9 21 18 94 95 60 27 28 11 18 42 9 5 5 5 5 5 5 5 5 5 5 5 5 4 0 1 0 5 4 0 0
98 100 100 100 100 49 100 100 100 100 100 100 99 93 85 85 58 7 40 94 98 74 38 71 54 42 36 10 8 5 5 5 5 5 5 5 5 5 5 5 0 4 5 5 4 0 5

GFSGBSN_prec_cloud_108.txt.gz
Cloud_Cover
100 100 100 100 100 100 100 100 100 100 100 100 100 100 100 100 100 100 100 100 89 100 86 100 5 5 4 5 2 0 0 32 21 7 3 1 1 50 100 94 16 5 18 5 5 5 5
100 100 100 100 100 100 100 100 100 100 100 100 100 100 100 100 100 100 100 100 95 100 71 9 5 5 5 4 0 3 34 30 8 5 5 4 5 12 10 0 0 0 4 4 2 2 34
100 100 100 100 100 100 100 100 100 100 100 100 100 100 100 100 100 100 100 100 96 100 33 6 8 5 4 3 5 2 11 18 11 5 5 2 5 5 12 5 17 7 5 5 0 0 0
9 19 38 66 100 100 100 100 100 100 100 100 100 100 100 100 100 100 100 100 100 95 85 5 5 19 32 2 16 31 50 59 5 4 0 4 6 5 5 5 5 77 33 15 0 0 0
9 100 100 100 100 100 100 100 100 100 100 100 100 100 100 100 100 100 100 100 100 61 6 80 35 52 5 13 77 25 56 46 22 5 60 60 93 49 78 6 60 10 35 5 2 17 1
100 100 26 94 100 100 100 100 100 100 100 100 100 100 100 100 100 100 100 100 98 52 28 48 86 3 82 99 75 100 46 93 7 43 95 100 55 100 100 100 27 5 99 94 6 14 96
100 100 92 85 100 100 100 100 100 100 94 100 100 100 100 100 100 100 100 100 100 100 99 37 36 99 100 99 98 100 84 5 5 16 98 100 96 81 95 37 72 98 100 94 5 68 100
100 100 90 100 100 100 100 100 100 100 100 96 60 3 97 100 100 95 100 100 99 98 100 88 100 100 100 100 99 80 6 33 90 95 100 100 90 83 78 100 100 74 56 39 78 11 53
100 100 70 54 100 100 100 100 92 95 100 96 6 100 69 100 100 100 100 100 100 100 100 100 100 100 100 98 97 65 45 95 100 100 100 100 94 60 79 77 91 100 94 16 22 84 68
100 100 98 90 99 88 98 98 100 100 86 21 3 47 99 85 100 100 100 100 100 100 100 100 100 100 100 73 26 65 98 100 100 100 100 100 90 95 100 100 65 98 100 100 90 100 97
100 100 99 4 100 55 83 84 82 13 4 0 2 100 100 89 100 100 100 100 100 100 100 100 100 100 74 8 68 100 100 100 100 100 100 100 100 99 100 51 95 98 100 100 88 100 100
100 100 97 3 4 5 5 6 5 3 0 3 94 79 100 100 100 100 100 100 100 100 100 100 55 8 16 5 97 75 100 100 100 100 100 100 100 100 100 92 100 100 100 100 100 100 100
100 100 20 15 12 5 14 6 5 6 2 0 71 8 100 100 100 100 100 100 100 100 34 13 4 5 53 36 86 90 100 95 100 100 100 100 98 100 99 100 100 100 100 100 100 100 100
100 100 2 21 5 5 1 47 8 15 48 92 98 91 100 100 100 100 100 100 89 0 5 3 2 5 75 13 5 91 60 92 94 47 78 92 89 32 91 100 100 100 100 100 100 100 100
100 99 40 5 5 5 5 6 8 6 5 97 71 100 100 100 100 97 24 86 29 2 1 4 5 82 9 5 74 87 24 52 12 19 87 100 74 47 100 100 100 100 100 100 100 100 99
100 76 100 11 5 100 94 18 100 100 100 100 100 100 100 100 59 5 23 42 3 1 2 5 10 48 61 5 79 100 65 75 5 5 70 100 100 100 100 100 100 100 97 100 100 100 100
100 100 51 100 100 100 100 100 100 100 100 100 100 100 100 100 69 5 52 5 5 0 0 3 5 5 81 17 83 96 10 9 5 58 99 100 100 100 100 100 100 100 100 97 100 100 100
100 100 100 74 31 99 100 100 100 100 100 94 100 100 98 6 66 5 5 3 0 0 2 4 2 0 5 76 89 100 18 5 5 98 100 98 90 33 100 100 100 5 83 100 100 99 99
100 98 100 100 100 7 71 84 48 7 15 22 100 100 31 92 15 5 2 3 4 5 4 4 3 0 0 0 27 100 17 96 4 5 84 44 37 35 26 70 47 77 81 94 100 100 100
11 100 100 100 100 100 11 4 5 2 4 5 58 100 68 60 5 5 4 1 0 0 2 2 0 2 4 0 0 3 4 4 4 5 3 33 100 87 31 36 64 98 96 96 100 98 100
100 23 89 99 100 100 100 16 5 5 4 71 82 44 12 12 4 5 4 4 0 1 0 0 0 0 0 0 0 2 0 2 0 4 4 5 10 6 5 5 4 19 50 10 13 0 2
100 100 47 77 16 100 100 100 12 5 5 100 91 5 5 5 1 4 1 3 0 0 0 0 0 0 0 0 4 1 0 0 0 0 2 0 0 0 0 0 0 0 0 0 0 5 3
95 100 100 100 100 100 100 100 100 69 45 100 44 5 5 4 5 4 1 5 2 0 0 0 0 3 0 0 0 0 0 0 0 0 0 0 0 2 2 0 0 1 0 0 0 0 1
88 15 100 100 88 89 100 100 100 100 99 100 30 3 2 1 3 1 3 4 4 0 3 0 0 0 0 0 0 0 0 0 0 0 0 0 0 0 3 0 0 0 0 0 0 0 0
46 73 100 100 99 11 46 100 100 100 100 93 50 30 5 2 0 2 2 4 2 0 0 0 0 0 0 0 0 0 0 0 0 0 0 0 0 0 2 0 0 0 0 0 0 0 0
100 99 100 27 95 100 53 27 94 100 100 100 100 37 10 5 5 5 5 5 5 5 5 5 2 2 2 0 0 0 0 0 0 0 0 0 0 0 0 0 0 0 0 0 0 0 0
100 100 100 100 9 100 100 83 5 44 100 100 100 98 32 5 6 5 5 5 5 5 5 5 5 5 5 5 5 5 3 4 1 0 0 0 0 1 0 1 0 0 0 0 0 2 0
100 81 100 100 100 67 99 95 100 18 15 100 100 100 98 65 38 9 5 5 5 5 5 5 5 5 5 5 5 5 5 5 5 5 5 5 5 5 4 1 0 0 4 4 0 0 6
83 94 97 100 100 100 83 12 24 99 2 25 100 100 100 100 96 71 21 59 31 5 11 40 11 19 14 8 6 5 5 5 5 5 5 5 5 5 5 8 5 5 5 5 5 27 5

GFSGBSN_prec_cloud_111.txt.gz
Cloud_Cover
100 91 32 99 100 100 100 100 100 100 100 100 100 100 100 100 100 100 100 100 100 100 100 100 100 79 5 2 0 0 0 0 0 0 0 0 0 5 5 0 0 0 0 2 5 5 17
89 45 44 100 12 82 80 100 100 100 100 100 100 100 100 100 100 100 100 100 100 90 100 100 100 100 98 15 0 0 0 0 3 0 0 0 0 0 1 0 0 0 0 2 5 4 0
94 100 98 99 100 55 35 100 100 100 100 100 100 100 100 100 100 100 100 100 100 100 100 99 41 5 85 2 0 0 2 0 0 0 0 0 0 0 0 0 0 0 1 0 2 0 0
17 85 99 100 68 74 98 91 100 100 100 100 100 100 100 100 100 100 100 100 100 100 100 100 74 5 5 3 2 0 0 0 1 5 5 0 4 0 0 0 0 0 0 5 0 0 0
76 100 100 100 100 100 87 100 100 100 100 100 56 100 100 100 100 100 100 100 100 100 100 100 42 5 1 0 0 0 0 3 11 5 5 5 2 0 1 5 5 6 7 5 9 0 3
100 100 100 85 54 100 100 100 100 100 100 100 91 100 100 100 100 100 100 100 100 100 100 48 10 4 3 1 2 0 4 34 42 5 5 1 5 5 6 38 31 6 90 77 32 1 5
100 100 100 13 21 90 92 100 100 100 100 44 100 100 100 100 100 100 100 100 100 100 56 5 5 5 10 3 3 100 100 84 5 5 5 5 69 66 16 76 74 89 87 27 5 3 5
100 96 21 95 42 40 88 98 100 86 100 100 70 100 100 100 100 100 100 100 84 99 80 39 38 96 90 99 100 100 17 5 5 5 9 60 99 9 72 76 98 93 95 54 4 0 62
73 58 70 38 59 5 31 88 95 76 100 100 98 100 100 100 100 100 100 100 94 57 90 100 100 100 100 100 100 76 21 6 18 96 87 86 54 80 99 98 95 43 25 11 5 4 5
100 11 52 3 1 5 5 5 5 5 5 48 100 5 100 100 100 100 100 99 99 100 100 100 100 99 100 98 87 30 83 46 99 100 98 100 85 73 100 78 78 64 15 95 93 97 47
100 24 0 0 0 1 5 4 4 0 0 2 100 99 68 96 93 100 100 57 100 100 100 100 100 100 100 55 70 88 83 56 100 100 100 84 94 72 100 99 99 99 100 97 100 100 94
81 8 0 0 3 5 33 7 0 0 0 1 100 100 86 27 69 100 100 100 100 100 100 100 94 48 8 31 76 100 100 100 100 100 100 94 87 75 98 98 100 100 100 99 100 100 100
100 5 5 4 5 15 50 46 30 75 100 100 100 100 100 100 100 100 100 100 100 100 35 17 5 5 5 38 40 100 100 100 100 88 48 83 52 68 100 100 100 100 100 100 100 100 100
100 99 7 12 5 6 25 40 48 96 100 100 100 100 100 100 100 100 93 52 53 6 15 5 5 5 5 5 75 100 66 97 92 100 94 98 83 48 100 100 100 100 100 100 100 100 100
100 100 40 10 5 5 56 12 5 48 100 100 100 99 88 95 27 5 1 10 5 5 5 5 5 5 5 5 30 55 82 5 85 73 53 84 99 100 100 100 100 100 100 100 100 100 97
100 100 100 72 16 27 0 0 4 25 100 100 56 89 71 4 4 0 0 8 1 5 5 21 26 5 4 5 5 99 22 92 100 100 66 44 90 100 100 100 100 100 100 100 100 100 100
5 100 100 100 84 19 30 0 0 2 5 5 5 45 41 0 0 0 5 5 1 0 0 29 4 3 5 5 5 5 60 56 70 7 6 19 95 100 100 100 88 81 100 100 100 100 100
83 5 60 100 100 100 5 0 0 0 5 4 28 39 5 0 7 2 1 0 0 0 0 0 5 2 4 5 0 5 5 3 82 78 42 44 85 100 100 94 100 100 98 86 100 95 100
9 11 5 66 68 100 100 5 3 5 1 0 37 52 5 9 0 5 1 0 0 0 0 0 0 0 0 1 2 5 5 36 92 83 94 100 100 92 33 5 35 100 100 100 100 93 99
56 10 3 0 5 40 76 100 9 4 15 38 4 31 8 0 0 4 0 0 0 0 0 0 1 0 0 0 0 1 3 6 34 46 15 5 6 16 11 5 84 100 100 95 40 63 5
75 98 5 4 0 15 97 5 36 77 100 52 11 5 6 4 0 0 0 0 0 0 0 0 0 0 0 0 0 0 0 1 3 5 4 0 0 0 1 0 0 1 0 0 0 0 2
87 78 63 5 0 4 4 95 5 5 100 94 96 44 5 5 0 0 0 0 0 0 0 0 0 0 0 0 0 0 0 0 0 0 0 0 2 0 0 0 0 0 0 0 0 0 0
77 92 50 10 85 5 5 2 40 21 48 96 54 66 13 2 0 1 1 0 0 0 0 0 0 0 0 0 0 0 0 0 0 0 0 0 0 1 2 0 0 1 0 0 0 0 0
90 89 96 88 100 99 14 44 33 40 48 22 66 96 35 4 0 1 0 1 0 0 0 0 0 0 0 0 0 0 0 0 0 0 0 0 0 0 0 0 0 0 0 0 0 0 0
100 98 93 66 71 100 84 5 5 3 0 8 7 5 29 60 29 4 3 0 0 0 0 0 0 0 0 0 0 0 0 0 0 0 0 0 0 0 2 1 0 0 0 0 0 0 1
48 100 33 100 68 43 51 60 55 4 0 0 3 6 46 11 13 55 25 6 1 0 0 0 0 0 0 0 0 0 0 0 0 0 0 0 0 0 0 0 0 0 0 0 0 0 0
37 100 100 100 100 53 100 37 93 100 86 27 4 4 30 96 55 9 35 32 26 11 5 5 2 0 0 0 5 2 0 0 0 0 0 0 0 0 0 3 0 0 0 0 0 0 0
100 29 89 99 100 98 10 100 89 27 51 33 14 0 4 18 94 10 14 25 91 24 28 50 18 5 5 5 2 5 5 5 4 0 4 2 3 4 4 1 0 0 0 0 0 0 0
100 94 100 100 100 100 90 73 59 100 89 98 96 26 0 4 7 100 35 5 6 50 37 21 80 64 58 5 5 5 5 5 1 4 5 5 5 5 4 4 3 0 0 0 0 0 0

GFSGBSN_prec_cloud_114.txt.gz
Cloud_Cover
100 93 100 100 89 100 93 78 75 100 100 100 100 100 100 100 100 100 100 100 100 100 91 100 100 100 17 5 5 8 5 1 0 0 0 0 0 0 0 0 0 0 0 0 0 0 0
100 100 98 99 90 100 100 100 100 100 100 100 100 100 100 100 100 100 100 100 100 100 80 100 96 48 5 39 43 61 27 5 0 1 0 0 0 0 0 0 0 0 0 0 0 0 0
92 100 100 100 100 100 100 100 57 100 84 100 100 68 100 100 100 100 100 100 100 100 100 100 87 25 73 74 49 6 8 5 5 5 0 0 0 0 0 0 0 0 0 0 0 0 0
100 99 100 100 92 86 99 100 99 12 64 100 99 31 100 100 100 100 100 100 100 100 100 100 100 92 72 5 4 4 5 10 5 4 0 0 0 0 0 0 0 0 0 5 0 0 0
100 80 41 90 5 84 83 100 100 100 100 100 100 88 94 100 100 100 100 100 100 100 100 100 100 74 6 5 5 5 5 4 0 1 0 2 2 2 2 2 5 5 5 5 1 0 0
13 84 64 4 7 12 34 99 100 100 87 100 6 100 100 100 100 100 100 100 100 100 100 100 74 39 5 5 5 5 1 5 5 8 5 5 5 9 5 10 5 5 19 5 5 0 0
100 6 91 5 5 5 27 52 100 87 24 56 100 100 100 100 100 100 100 100 100 100 100 38 45 88 42 5 5 2 3 5 5 5 14 5 22 89 10 5 5 5 23 21 5 3 14
100 0 79 1 30 5 5 5 5 36 43 6 100 100 100 100 100 100 100 75 55 88 42 59 100 100 96 5 55 28 5 5 6 49 5 19 95 22 6 5 7 74 71 78 7 3 27
60 0 63 56 0 5 5 21 76 63 80 56 100 100 100 100 100 100 100 92 97 78 98 97 90 81 7 59 18 28 44 94 63 87 100 100 11 63 69 99 98 95 100 97 58 66 13
28 0 61 5 0 0 1 5 3 15 2 99 63 100 100 100 97 94 96 98 7 62 40 24 5 60 49 95 95 71 100 51 97 96 100 87 40 98 27 53 75 100 100 100 93 100 92
32 0 44 0 0 0 0 0 0 0 9 83 5 68 90 94 61 100 32 4 4 3 7 26 100 98 100 90 28 91 51 91 100 98 83 74 5 97 61 79 92 100 100 100 100 100 100
0 13 12 100 5 1 0 0 2 4 38 2 5 5 5 16 22 77 97 97 82 100 100 90 100 99 95 87 94 96 100 100 98 100 100 99 69 24 32 76 100 100 100 100 100 97 100
23 23 66 96 57 28 2 0 5 5 26 72 100 100 100 100 100 100 100 100 100 100 81 74 33 26 20 70 96 100 100 100 97 79 64 91 44 5 18 74 98 100 100 94 100 100 100
6 85 16 1 65 2 0 0 0 4 32 99 87 65 23 49 14 34 16 21 5 5 5 5 5 5 5 5 84 100 91 100 100 100 88 98 79 47 98 100 100 100 100 100 100 100 100
0 5 10 8 5 3 1 0 0 3 0 0 5 4 0 1 5 1 2 8 5 5 5 5 5 5 5 10 81 93 84 84 15 7 25 57 74 31 74 100 99 100 100 100 100 100 100
0 22 8 7 4 0 2 0 3 0 0 2 5 4 0 2 0 0 2 5 5 4 4 3 5 4 5 5 17 43 48 36 96 83 44 51 99 99 100 100 100 100 100 100 100 99 91
70 2 0 16 14 5 2 0 2 0 0 5 4 0 0 0 0 0 0 1 5 4 4 3 0 1 0 5 3 5 7 6 100 100 52 100 100 54 100 100 62 100 56 100 100 100 100
19 96 0 0 36 56 5 5 0 0 3 0 0 31 0 0 0 0 0 0 0 0 0 0 0 0 3 5 5 19 5 5 5 6 28 21 99 88 5 5 83 9 40 95 59 100 100
69 96 29 1 0 6 96 77 4 4 8 8 0 2 0 0 0 0 0 0 0 0 0 0 0 0 3 12 56 14 98 100 96 95 100 50 5 5 86 89 68 23 50 100 100 100 100
40 38 100 14 5 4 0 5 76 10 5 3 0 4 0 0 0 0 0 0 0 0 0 0 0 0 2 2 1 4 6 2 1 0 0 0 1 3 1 0 0 0 8 7 8 41 17
34 99 100 33 5 6 11 2 5 8 71 2 5 4 6 1 0 0 0 0 0 0 0 0 0 0 0 0 0 0 0 0 0 0 0 0 0 0 0 0 0 0 0 0 0 1 2
8 71 94 80 46 8 6 5 0 5 5 84 9 12 5 1 1 5 0 0 0 0 0 0 0 0 0 0 0 0 0 0 0 0 0 0 0 0 0 0 0 0 0 0 0 0 0
100 27 60 97 68 5 5 5 3 5 1 0 6 5 5 3 1 0 2 0 0 0 0 0 0 0 0 0 0 0 0 0 0 0 0 0 0 0 4 0 0 0 0 0 0 0 0
65 100 87 100 19 97 93 5 5 5 2 0 0 5 6 4 3 5 1 5 2 0 0 0 0 0 0 0 0 0 0 0 0 0 0 0 0 0 4 0 0 0 0 0 0 0 0
100 70 91 25 30 13 98 5 5 5 5 8 5 5 2 51 5 5 5 3 0 5 4 0 0 0 0 0 0 0 0 0 0 0 0 0 0 0 0 0 0 0 0 0 0 0 1
98 100 49 5 98 5 64 40 5 5 5 5 5 5 2 19 100 21 5 3 5 3 5 5 5 1 0 0 0 0 0 0 0 0 0 0 0 0 3 0 0 0 5 5 5 4 5
100 100 100 84 74 98 23 83 59 6 11 14 5 16 6 6 5 89 100 42 5 4 5 5 5 5 5 5 4 5 5 4 5 1 2 1 2 3 2 3 0 0 0 0 0 0 0
100 98 97 100 100 100 100 61 98 79 60 19 22 5 25 5 5 4 46 100 95 14 4 3 4 5 5 5 5 8 10 15 5 4 1 4 4 4 3 1 1 0 0 0 0 0 0
100 97 100 100 100 98 100 62 100 11 99 35 8 80 5 65 61 10 4 21 100 100 56 4 5 4 4 5 5 5 5 5 4 5 5 5 4 0 0 0 0 0 0 0 0 0 0

GFSGBSN_prec_cloud_117.txt.gz
Cloud_Cover
88 66 73 100 100 100 100 100 100 100 100 99 100 100 100 100 100 100 100 100 100 100 100 100 100 97 100 79 92 49 1 2 0 0 0 0 0 0 0 0 0 0 0 0 0 0 0
6 100 60 100 100 100 100 100 100 100 100 100 100 100 100 100 100 100 100 100 100 100 100 100 100 100 100 100 68 52 5 5 0 0 0 0 0 0 0 0 0 0 0 0 0 0 0
97 14 100 100 5 9 20 94 100 100 100 100 100 89 18 100 100 100 100 100 100 100 100 100 100 100 95 97 12 5 5 5 0 0 0 0 0 0 0 0 0 0 0 0 0 0 0
73 77 38 94 78 74 36 93 38 82 100 98 89 44 50 99 100 100 100 100 100 100 100 100 100 99 92 38 72 16 5 0 0 0 0 0 0 0 0 0 0 0 0 5 0 0 0
100 26 5 36 45 30 100 100 100 100 100 95 32 5 0 99 100 100 100 100 100 100 100 100 100 100 100 91 31 79 5 3 1 0 0 0 0 0 0 2 3 4 4 4 2 0 0
57 0 5 60 52 23 71 94 98 97 98 97 5 5 52 100 100 100 100 100 100 100 91 97 100 100 78 100 22 5 5 5 5 5 3 1 2 5 5 5 5 5 5 5 5 0 0
0 0 77 10 5 0 0 5 5 5 93 100 100 100 100 100 100 100 100 100 100 100 100 100 100 100 100 63 30 5 3 5 5 5 5 5 32 72 5 5 5 5 5 71 5 1 28
0 0 96 94 87 9 0 0 7 9 26 100 100 100 100 100 100 100 100 100 98 100 100 100 100 94 8 8 17 5 5 5 5 5 16 58 59 4 5 5 7 41 100 88 9 2 5
0 0 1 13 67 35 12 4 4 9 76 99 100 100 100 100 100 100 100 97 26 40 95 79 42 6 100 60 5 68 71 96 68 98 100 99 5 6 10 33 80 58 72 97 74 100 92
2 0 0 12 1 0 1 0 5 7 97 50 100 100 100 100 100 100 100 59 26 5 5 6 5 28 6 5 6 10 96 50 38 87 90 69 5 22 5 69 33 99 97 99 100 100 96
71 100 24 0 0 0 0 1 34 5 2 5 13 69 82 95 97 99 98 87 68 5 43 5 5 5 5 5 10 17 70 6 11 54 100 7 6 81 94 26 93 38 100 76 100 100 100
0 100 82 0 0 0 0 89 14 74 94 26 22 3 5 9 14 36 0 0 0 4 5 5 9 43 73 84 96 24 92 97 68 84 95 95 37 98 60 35 100 100 100 100 90 100 99
0 0 5 0 0 0 0 3 36 92 86 94 9 5 11 32 67 100 100 100 82 96 47 92 100 99 58 94 100 99 86 97 99 88 100 100 94 100 99 85 85 100 100 100 100 100 100
0 0 0 6 0 0 0 0 7 8 100 11 59 0 0 0 0 2 1 25 58 32 6 7 5 5 5 33 74 100 100 100 100 100 100 100 100 100 100 81 100 100 100 100 100 100 100
0 0 0 0 5 5 0 0 0 0 0 0 4 0 0 0 0 2 4 5 5 5 4 5 5 5 5 5 30 78 100 100 28 100 100 100 90 100 100 100 98 100 100 100 100 100 100
5 1 0 0 0 2 5 0 0 8 2 0 0 0 0 0 0 1 5 2 5 3 5 0 0 12 73 28 52 90 100 100 100 94 96 100 98 25 100 60 79 71 99 100 100 100 100
96 8 6 0 0 0 1 5 1 0 1 0 0 0 0 0 0 0 2 12 0 0 0 0 1 3 5 30 68 94 100 100 83 28 56 61 44 97 54 51 6 95 100 91 99 100 100
47 91 7 54 1 0 0 0 0 5 0 0 0 0 0 0 0 0 0 0 0 0 0 2 0 5 4 0 5 43 99 86 7 5 5 5 5 9 5 89 92 11 100 67 64 100 100
98 82 76 17 94 0 1 0 0 0 0 0 0 0 0 0 0 0 0 0 0 0 0 3 4 4 5 26 29 5 4 1 0 0 2 2 4 5 1 60 93 60 5 57 95 97 100
5 39 64 100 5 92 12 5 0 0 3 2 0 1 0 2 0 0 0 0 0 0 0 0 0 0 0 0 0 0 0 0 0 0 0 0 0 0 3 0 2 2 0 0 2 8 40
28 10 8 47 75 2 64 8 5 0 0 1 0 4 1 0 0 4 0 0 0 0 0 0 0 0 0 0 0 0 0 0 0 0 0 0 0 0 0 0 0 0 0 0 3 0 2
44 44 62 5 5 12 26 9 51 6 4 4 0 0 0 0 0 0 5 5 0 0 0 0 0 0 0 0 0 0 0 0 0 0 0 0 0 0 0 0 0 0 0 0 0 0 0
100 78 100 60 5 10 73 38 13 58 45 8 5 2 5 0 5 4 0 0 4 0 0 2 1 0 0 0 0 0 0 0 0 0 0 0 0 2 2 0 0 0 0 0 0 0 0
49 52 76 100 62 100 8 52 88 22 47 46 4 5 3 4 5 4 4 4 4 0 0 0 0 0 0 0 0 0 0 0 0 0 3 5 4 0 5 2 0 0 0 0 0 0 0
100 100 96 100 100 100 81 5 6 92 9 5 65 26 55 5 5 5 5 5 3 0 4 5 1 0 0 0 0 0 0 0 1 5 5 5 5 5 5 5 3 5 5 0 0 0 0
100 100 100 100 100 100 100 89 36 5 70 99 17 92 29 19 5 8 12 5 6 5 3 0 0 0 0 0 0 1 2 0 1 4 3 3 0 0 5 5 1 1 5 5 5 5 5
100 100 100 100 100 100 100 82 18 5 5 66 98 59 57 15 60 31 53 2 17 42 68 5 2 0 0 0 0 1 0 0 0 0 0 0 0 3 2 3 0 0 0 2 4 5 5
100 76 100 98 99 100 100 100 78 54 18 72 94 66 15 53 85 76 40 5 1 1 35 69 60 4 0 0 0 0 0 0 0 3 0 0 0 3 3 1 1 0 0 0 0 0 0
98 98 100 100 90 100 100 100 96 90 25 35 6 15 68 29 7 52 48 89 89 15 0 5 58 100 15 5 3 5 5 2 0 0 0 0 0 0 0 0 0 0 4 0 0 0 0

GFSGBSN_prec_cloud_120.txt.gz
Cloud_Cover
50 58 2 5 28 98 100 100 100 100 97 99 100 100 100 100 100 100 100 100 100 100 100 100 100 100 100 77 100 100 96 100 30 8 65 2 0 0 0 0 0 0 0 0 0 0 0
40 26 6 5 29 66 17 100 100 100 83 98 78 100 100 100 100 100 100 100 100 100 100 100 100 100 100 100 100 100 97 76 62 64 2 0 0 0 0 0 0 0 0 0 0 0 0
6 38 44 25 97 81 32 62 100 100 80 100 100 100 92 90 100 100 100 100 100 100 100 100 100 100 100 100 100 100 100 100 97 5 0 0 0 0 0 0 0 0 0 0 0 0 0
1 81 98 97 7 99 96 26 99 96 96 100 100 100 96 93 100 100 100 100 100 100 100 100 100 100 100 100 99 100 99 91 4 0 5 4 0 0 0 0 0 1 0 0 0 0 0
15 100 49 4 63 14 77 72 91 94 68 80 93 39 14 100 100 100 100 100 100 100 100 100 100 100 100 100 99 91 6 4 1 3 0 0 0 0 0 2 1 0 4 4 1 0 0
58 29 49 28 5 4 11 41 38 89 96 6 5 3 36 100 100 100 100 100 100 100 100 100 100 100 95 77 26 10 30 5 5 5 1 0 0 4 5 5 5 5 4 5 5 0 0
0 4 75 81 4 0 0 44 82 100 100 100 3 84 100 100 100 100 100 100 100 100 100 100 100 100 100 99 11 26 11 5 5 5 4 5 32 48 5 5 5 5 26 38 5 1 5
0 0 16 93 100 41 85 2 4 100 99 98 100 100 100 100 100 100 100 98 100 98 100 100 100 56 11 5 5 5 5 5 5 6 58 10 9 5 5 5 6 29 99 42 2 3 5
0 0 0 11 0 0 0 5 46 89 100 76 64 60 70 100 100 100 100 99 100 100 100 99 54 45 12 67 54 5 5 6 9 41 74 28 4 5 5 45 100 43 61 5 39 45 5
0 0 0 0 0 1 19 0 2 99 100 89 100 100 59 100 100 100 100 100 100 96 43 13 19 44 12 5 5 5 11 24 8 37 5 11 4 5 5 70 83 94 32 98 100 100 100
0 0 0 0 0 1 76 54 8 52 85 99 39 100 88 98 100 100 100 100 100 43 56 5 7 21 5 5 5 5 59 8 5 49 38 4 5 37 76 99 100 98 99 100 100 100 100
2 0 0 0 0 0 4 92 72 2 5 2 10 5 4 73 94 81 55 5 0 4 57 5 5 5 5 5 5 5 90 98 98 86 99 100 81 75 100 93 100 100 100 100 100 100 100
8 7 0 0 0 0 0 5 0 5 4 4 4 4 5 0 2 1 3 3 5 5 5 5 5 5 5 5 5 5 50 97 79 98 100 100 56 6 68 95 100 100 100 100 100 100 100
8 6 2 0 0 0 0 0 0 0 0 0 0 0 0 0 0 0 0 3 12 5 25 5 5 5 10 9 22 37 100 100 100 100 100 100 100 100 100 100 100 100 100 100 100 100 100
5 4 0 0 0 0 0 0 0 0 0 0 0 0 0 0 0 0 0 5 4 5 4 5 5 5 5 5 100 100 100 100 100 100 100 99 100 100 100 100 100 100 100 100 100 100 100
75 4 5 2 1 0 0 0 0 13 0 0 0 0 0 0 0 0 1 2 1 0 2 6 5 6 32 57 99 82 100 100 72 100 100 92 100 100 100 100 100 100 100 100 100 100 100
26 56 2 5 2 2 1 0 0 2 7 0 0 0 0 0 0 0 4 1 0 0 0 2 2 6 50 30 22 62 100 100 67 85 69 8 47 100 93 66 91 64 16 49 21 100 100
6 100 80 5 5 5 5 5 0 0 0 0 0 0 0 0 0 0 0 0 0 0 0 0 0 0 4 5 5 0 0 0 0 1 2 5 42 16 31 6 22 10 68 5 89 59 95
18 53 100 76 5 5 5 5 5 1 0 0 0 0 0 0 0 0 0 0 0 0 0 0 0 0 0 0 0 0 0 0 0 0 2 3 4 5 0 2 0 4 53 92 44 33 96
100 5 73 100 65 5 4 0 5 3 2 0 0 0 0 0 0 0 0 0 0 0 0 0 0 0 0 0 0 0 0 0 0 0 0 2 0 0 3 0 0 0 1 64 70 99 76
100 22 5 72 100 70 45 5 5 5 4 4 0 0 0 0 0 0 0 0 0 0 0 0 0 0 0 0 0 0 0 0 0 0 0 0 2 0 1 0 0 0 0 0 1 2 12
100 90 63 5 100 100 27 5 5 5 5 2 7 4 0 0 0 0 0 0 0 0 0 0 0 0 0 0 0 0 0 0 0 0 0 0 0 0 4 0 0 0 0 0 0 0 3
75 54 31 60 4 99 100 100 43 6 4 5 5 5 7 0 0 0 0 0 0 0 0 0 1 0 0 0 0 0 0 0 0 0 0 0 5 5 1 3 3 0 0 0 0 0 0
90 79 5 5 5 5 66 100 100 82 93 10 4 6 6 44 5 2 0 0 0 0 0 0 0 0 0 0 0 0 0 1 5 5 5 5 11 35 20 6 5 5 5 5 3 0 0
97 28 88 52 5 100 5 100 98 95 84 88 6 5 5 7 57 75 6 3 0 0 0 0 0 0 0 0 0 0 0 0 0 0 0 0 0 2 3 3 3 5 5 5 5 5 5
100 14 100 100 28 6 52 100 99 76 100 100 93 5 5 5 37 36 40 12 5 4 0 5 5 4 0 0 0 0 0 0 0 0 0 0 0 0 0 0 1 0 0 0 1 5 5
100 100 100 62 100 100 6 64 90 100 100 100 70 14 6 15 7 5 36 90 82 5 5 3 0 5 5 4 0 5 3 2 0 0 0 0 0 4 4 3 4 5 5 2 0 0 0
100 100 100 100 100 100 32 96 59 100 100 100 100 97 7 11 7 5 5 80 62 68 6 6 5 0 2 5 5 5 4 0 2 0 0 0 4 4 3 1 1 1 4 5 5 1 0
100 100 100 100 100 100 100 100 100 100 100 100 100 100 75 6 8 5 5 5 31 9 92 22 5 14 0 0 3 5 8 70 8 5 2 0 5 5 5 3 4 0 3 3 5 5 5